[[{"header":{"parameterUnit":"m.s-1","parameterCategory":1,"la1":31.0,"la2":29.5877,"lo1":-88.7671,"lo2":-86.6584,"dy":0.0162,"dx":0.0185,"nx":115,"ny":88,"refTime":"2023-03-05T06:00:00:Z","depth":0,"parameterNumber":2,"parameterNumberName":"U-component_of_WINDS"},"data":[0.0,0.0,0.0,0.0,0.0,0.0,0.0,0.0,0.0,0.0,0.0,0.0,0.0,0.0,0.0,0.0,0.0,0.0,0.0,0.0,0.0,0.0,0.0,0.0,0.0,0.0,0.0,0.0,0.0,0.0,0.0,0.0,0.0,0.0,0.0,0.0,0.0,0.0,0.0,0.0,0.0,0.0,0.0,0.0,0.0,0.0,0.0,0.0,0.0,0.0,0.0,0.0,0.0,0.0,0.0,0.0,0.0,0.0,0.0,0.0,0.0,0.0,0.0,0.0,0.0,0.0,0.0,0.0,0.0,0.0,0.0,0.0,0.0,0.0,0.0,0.0,0.0,0.0,0.0,0.0,0.0,0.0,0.0,0.0,0.0,0.0,0.0,0.0,0.0,0.0,0.0,0.0,0.0,0.0,0.0,0.0,0.0,0.0,0.0,0.0,0.0,0.0,0.0,0.0,0.0,0.0,0.0,0.0,0.0,0.0,0.0,0.0,0.0,0.0,0.0,0.0,0.0,0.0,0.0,0.0,0.0,0.0,0.0,0.0,0.0,0.0,0.0,0.0,0.0,0.0,0.0,0.0,0.0,0.0,0.0,0.0,0.0,0.0,0.0,0.0,0.0,0.0,0.0,0.0,0.0,0.0,0.0,0.0,0.0,0.0,0.0,0.0,0.0,0.0,0.0,0.0,0.0,0.0,0.0,0.0,0.0,0.0,0.0,0.0,0.0,0.0,0.0,0.0,0.0,0.0,0.0,0.0,0.0,0.0,0.0,0.0,0.0,0.0,0.0,0.0,0.0,0.0,0.0,0.0,0.0,0.0,0.0,0.0,0.0,0.0,0.0,0.0,0.0,0.0,0.0,0.0,0.0,0.0,0.0,0.0,0.0,0.0,0.0,0.0,0.0,0.0,0.0,0.0,0.0,0.0,0.0,0.0,0.0,0.0,0.0,0.0,0.0,0.0,0.0,0.0,0.0,0.0,0.0,0.0,0.0,0.0,0.0,0.0,0.0,0.0,0.0,0.0,0.0,0.0,0.0,0.0,0.0,0.0,0.0,0.0,0.0,0.0,0.0,0.0,0.0,0.0,0.0,0.0,0.0,0.0,0.0,0.0,0.0,0.0,0.0,0.0,0.0,0.0,0.0,0.0,0.0,0.0,0.0,0.0,0.0,0.0,0.0,0.0,0.0,0.0,0.0,0.0,0.0,0.0,0.0,0.0,0.0,0.0,0.0,0.0,0.0,0.0,0.0,0.0,0.0,0.0,0.0,0.0,0.0,0.0,0.0,0.0,0.0,0.0,0.0,0.0,0.0,0.0,0.0,0.0,0.0,0.0,0.0,0.0,0.0,0.0,0.0,0.0,0.0,0.0,0.0,0.0,0.0,0.0,0.0,0.0,0.0,0.0,0.0,0.0,0.0,0.0,0.0,0.0,0.0,0.0,0.0,0.0,0.0,0.0,0.0,0.0,0.0,0.0,0.0,0.0,0.0,0.0,0.0,0.0,0.0,0.0,0.0,0.0,0.0,0.0,0.0,0.0,0.0,0.0,0.0,0.0,0.0,0.0,0.0,0.0,0.0,0.0,0.0,0.0,0.0,0.0,0.0,0.0,0.0,0.0,0.0,0.0,0.0,0.0,0.0,0.0,0.0,0.0,0.0,0.0,0.0,0.0,0.0,0.0,0.0,0.0,0.0,0.0,0.0,0.0,0.0,0.0,0.0,0.0,0.0,0.0,0.0,0.0,0.0,0.0,0.0,0.0,0.0,0.0,0.0,0.0,0.0,0.0,0.0,0.0,0.0,0.0,0.0,0.0,0.0,0.0,0.0,0.0,0.0,0.0,0.0,0.0,0.0,0.0,0.0,0.0,0.0,0.0,0.0,0.0,0.0,0.0,0.0,0.0,0.0,0.0,0.0,0.0,0.0,0.0,0.0,0.0,0.0,0.0,0.0,0.0,0.0,0.0,0.0,0.0,0.0,0.0,0.0,0.0,0.0,0.0,0.0,0.0,0.0,0.0,0.0,0.0,0.0,0.0,0.0,0.0,0.0,0.0,0.0,0.0,0.0,0.0,0.0,0.0,0.0,0.0,0.0,0.0,0.0,0.0,0.0,0.0,0.0,0.0,0.0,0.0,0.0,0.0,0.0,0.0,0.0,0.0,0.0,0.0,0.0,0.0,0.0,0.0,0.0,0.0,0.0,0.0,0.0,0.0,0.0,0.0,0.0,0.0,0.0,0.0,0.0,0.0,0.0,0.0,0.0,0.0,0.0,0.0,0.0,0.0,0.0,0.0,0.0,0.0,0.0,0.0,0.0,0.0,0.0,0.0,0.0,0.0,0.0,0.0,0.0,0.0,0.0,0.0,0.0,0.0,0.0,0.0,0.0,0.0,0.0,0.0,0.0,0.0,0.0,0.0,0.0,0.0,0.0,0.0,0.0,0.0,0.0,0.0,0.0,0.0,0.0,0.0,0.0,0.0,0.0,0.0,0.0,0.0,0.0,0.0,0.0,0.0,0.0,0.0,0.0,0.0,0.0,0.0,0.0,0.0,0.0,0.0,0.0,0.0,0.0,0.0,0.0,0.0,0.0,0.0,0.0,0.0,0.0,0.0,0.0,0.0,0.0,0.0,0.0,0.0,0.0,0.0,0.0,0.0,0.0,0.0,0.0,0.0,0.0,0.0,0.0,0.0,0.0,0.0,0.0,0.0,0.0,0.0,0.0,0.0,0.0,0.0,0.0,0.0,0.0,0.0,0.0,0.0,0.0,0.0,0.0,0.0,0.0,0.0,0.0,0.0,0.0,0.0,0.0,0.0,0.0,0.0,0.0,0.0,0.0,0.0,0.0,0.0,0.0,0.0,0.0,0.0,0.0,0.0,0.0,0.0,0.0,0.0,0.0,0.0,0.0,0.0,0.0,0.0,0.0,0.0,0.0,0.0,0.0,0.0,0.0,0.0,0.0,0.0,0.0,0.0,0.0,0.0,0.0,0.0,0.0,0.0,0.0,0.0,0.0,0.0,0.0,0.0,0.0,0.0,0.0,0.0,0.0,0.0,0.0,0.0,0.0,0.0,0.0,0.0,0.0,0.0,0.0,0.0,0.0,0.0,0.0,0.0,0.0,0.0,0.0,0.0,0.0,0.0,0.0,0.0,0.0,0.0,0.0,0.0,0.0,0.0,0.0,0.0,0.0,0.0,0.0,0.0,0.0,0.0,0.0,0.0,0.0,0.0,0.0,0.0,0.0,0.0,0.0,0.0,0.0,0.0,0.0,0.0,0.0,0.0,0.0,0.0,0.0,0.0,0.0,0.0,0.0,0.0,0.0,0.0,0.0,0.0,0.0,0.0,0.0,0.0,0.0,0.0,0.0,0.0,0.0,0.0,0.0,0.0,0.0,0.0,0.0,0.0,0.0,0.0,0.0,0.0,0.0,0.0,0.0,0.0,0.0,0.0,0.0,0.0,0.0,0.0,0.0,0.0,0.0,0.0,0.0,0.0,0.0,0.0,0.0,0.0,0.0,0.0,0.0,0.0,0.0,0.0,0.0,0.0,0.0,0.0,0.0,0.0,0.0,0.0,0.0,0.0,0.0,0.0,0.0,0.0,0.0,0.0,0.0,0.0,0.0,0.0,0.0,0.0,0.0,0.0,0.0,0.0,0.0,0.0,0.0,0.0,0.0,0.0,0.0,0.0,0.0,0.0,0.0,0.0,0.0,0.0,0.0,0.0,0.0,0.0,0.0,0.0,0.0,0.0,0.0,0.0,0.0,0.0,0.0,0.0,0.0,0.0,0.0,0.0,0.0,0.0,0.0,0.0,0.0,0.0,0.0,0.0,0.0,0.0,0.0,0.0,0.0,0.0,0.0,0.0,0.0,0.0,0.0,0.0,0.0,0.0,0.0,0.0,0.0,0.0,0.0,0.0,0.0,0.0,0.0,0.0,0.0,0.0,0.0,0.0,0.0,0.0,0.0,0.0,0.0,0.0,0.0,0.0,0.0,0.0,0.0,0.0,0.0,0.0,0.0,0.0,0.0,0.0,0.0,0.0,0.0,0.0,0.0,0.0,0.0,0.0,0.0,0.0,0.0,0.0,0.0,0.0,0.0,0.0,0.0,0.0,0.0,0.0,0.0,0.0,0.0,0.0,0.0,0.0,0.0,0.0,0.0,0.0,0.0,0.0,0.0,0.0,0.0,0.0,0.0,0.0,0.0,0.0,0.0,0.0,0.0,0.0,0.0,0.0,0.0,0.0,0.0,0.0,0.0,0.0,0.0,0.0,1.6712,0.0,0.0,0.0,0.0,0.0,0.0,0.0,0.0,0.0,0.0,0.0,0.0,0.0,0.0,0.0,0.0,0.0,0.0,0.0,0.0,0.0,0.0,0.0,0.0,0.0,0.0,0.0,0.0,0.0,0.0,0.0,0.0,0.0,0.0,0.0,0.0,0.0,0.0,0.0,0.0,0.0,0.0,0.0,0.0,0.0,0.0,0.0,0.0,0.0,0.0,0.0,0.0,0.0,0.0,0.0,0.0,0.0,0.0,0.0,0.0,0.0,0.0,0.0,0.0,0.0,0.0,0.0,0.0,0.0,0.0,0.0,0.0,0.0,0.0,0.0,0.0,0.0,0.0,0.0,0.0,0.0,0.0,0.0,0.0,0.0,0.0,0.0,0.0,0.0,0.0,0.0,0.0,0.0,0.0,0.0,0.0,0.0,0.0,0.0,0.0,0.0,0.0,0.0,0.0,0.0,0.0,0.0,0.0,0.0,0.0,1.8695,1.8639,1.7844,1.741,1.7441,0.0,0.0,0.0,0.0,0.0,0.0,0.0,0.0,0.0,0.0,0.0,0.0,0.0,0.0,0.0,0.0,0.0,0.0,0.0,0.0,0.0,0.0,0.0,0.0,0.0,0.0,0.0,0.0,0.0,0.0,0.0,0.0,0.0,0.0,0.0,0.0,0.0,0.0,0.0,0.0,0.0,0.0,0.0,0.0,0.0,0.0,0.0,0.0,0.0,0.0,0.0,0.0,0.0,0.0,0.0,0.0,0.0,0.0,0.0,0.0,0.0,0.0,0.0,0.0,0.0,0.0,0.0,0.0,0.0,0.0,0.0,0.0,0.0,0.0,0.0,0.0,0.0,0.0,0.0,0.0,0.0,0.0,0.0,0.0,0.0,0.0,0.0,0.0,0.0,0.0,0.0,0.0,0.0,0.0,0.0,0.0,0.0,0.0,0.0,0.0,0.0,0.0,0.0,0.0,0.0,0.0,0.0,0.0,0.0,0.0,0.0,0.0,1.87,1.839,1.8593,0.0,0.0,0.0,0.0,0.0,0.0,0.0,0.0,0.0,0.0,0.0,0.0,0.0,0.0,0.0,0.0,0.0,0.0,0.0,0.0,0.0,0.0,0.0,0.0,0.0,0.0,0.0,0.0,0.0,0.0,0.0,0.0,0.0,0.0,0.0,0.0,0.0,0.0,0.0,0.0,0.0,0.0,0.0,0.0,0.0,0.0,0.0,0.0,0.0,0.0,0.0,0.0,0.0,0.0,0.0,0.0,0.0,0.0,0.0,0.0,0.0,0.0,0.0,0.0,0.0,0.0,0.0,0.0,0.0,0.0,0.0,0.0,0.0,0.0,0.0,0.0,0.0,0.0,0.0,0.0,0.0,0.0,0.0,0.0,0.0,0.0,0.0,0.0,0.0,0.0,0.0,0.0,0.0,0.0,0.0,0.0,0.0,0.0,0.0,0.0,0.0,0.0,0.0,0.0,0.0,0.0,0.0,0.0,0.0,0.0,1.9651,2.0344,1.9619,0.0,2.0309,0.0,0.0,0.0,0.0,0.0,0.0,0.0,0.0,0.0,0.0,0.0,0.0,0.0,0.0,0.0,0.0,0.0,0.0,0.0,0.0,0.0,0.0,0.0,0.0,0.0,0.0,0.0,0.0,0.0,0.0,0.0,0.0,0.0,0.0,0.0,0.0,0.0,0.0,0.0,0.0,0.0,0.0,0.0,0.0,0.0,0.0,0.0,0.0,0.0,0.0,0.0,0.0,0.0,0.0,0.0,0.0,0.0,0.0,0.0,0.0,0.0,0.0,0.0,0.0,0.0,0.0,0.0,0.0,0.0,0.0,0.0,0.0,0.0,0.0,0.0,0.0,0.0,0.0,0.0,0.0,0.0,0.0,0.0,0.0,0.0,0.0,0.0,0.0,0.0,0.0,0.0,0.0,0.0,0.0,0.0,0.0,0.0,0.0,0.0,0.0,0.0,0.0,0.0,0.0,0.0,0.0,0.0,0.0,0.0,0.0,2.1705,2.203,2.1732,2.125,0.0,0.0,0.0,0.0,0.0,0.0,0.0,0.0,0.0,0.0,0.0,0.0,0.0,0.0,0.0,0.0,0.0,0.0,0.0,0.0,0.0,0.0,0.0,0.0,0.0,0.0,0.0,0.0,0.0,0.0,0.0,0.0,0.0,0.0,0.0,0.0,0.0,0.0,0.0,0.0,0.0,0.0,0.0,0.0,0.0,0.0,0.0,0.0,0.0,0.0,0.0,0.0,0.0,0.0,0.0,0.0,0.0,0.0,0.0,0.0,0.0,0.0,0.0,0.0,0.0,0.0,0.0,0.0,0.0,0.0,0.0,0.0,0.0,0.0,0.0,0.0,0.0,0.0,0.0,0.0,0.0,0.0,0.0,0.0,0.0,0.0,0.0,0.0,0.0,0.0,0.0,0.0,0.0,0.0,0.0,0.0,0.0,0.0,0.0,0.0,0.0,0.0,0.0,0.0,0.0,0.0,0.0,0.0,0.0,0.0,2.2907,2.3103,2.3079,2.2636,2.1911,2.0902,0.0,0.0,0.0,0.0,0.0,0.0,0.0,0.0,0.0,0.0,0.0,0.0,0.0,0.0,0.0,0.0,0.0,0.0,0.0,0.0,0.0,0.0,0.0,0.0,0.0,0.0,0.0,0.0,0.0,0.0,0.0,0.0,0.0,0.0,0.0,0.0,0.0,0.0,0.0,0.0,0.0,0.0,0.0,0.0,0.0,0.0,0.0,0.0,0.0,0.0,0.0,0.0,0.0,0.0,0.0,0.0,0.0,0.0,0.0,0.0,0.0,0.0,0.0,0.0,0.0,0.0,0.0,0.0,0.0,0.0,0.0,0.0,0.0,0.0,0.0,0.0,0.0,0.0,0.0,0.0,0.0,0.0,0.0,0.0,0.0,0.0,0.0,0.0,0.0,0.0,0.0,0.0,0.0,0.0,0.0,0.0,0.0,0.0,0.0,0.0,0.0,0.0,0.0,0.0,0.0,0.0,0.0,0.0,2.4198,2.3535,2.3125,2.3105,2.1484,2.0976,0.0,0.0,0.0,0.0,0.0,0.0,0.0,0.0,0.0,0.0,0.0,0.0,0.0,0.0,0.0,0.0,0.0,0.0,0.0,0.0,0.0,0.0,0.0,0.0,0.0,0.0,0.0,0.0,0.0,0.0,0.0,0.0,0.0,0.0,0.0,0.0,0.0,0.0,0.0,0.0,0.0,0.0,0.0,0.0,0.0,0.0,0.0,0.0,0.0,0.0,0.0,0.0,0.0,0.0,0.0,0.0,0.0,0.0,0.0,0.0,0.0,0.0,0.0,0.0,0.0,0.0,0.0,0.0,0.0,0.0,0.0,0.0,0.0,0.0,0.0,0.0,0.0,0.0,0.0,0.0,0.0,0.0,0.0,0.0,0.0,0.0,0.0,0.0,0.0,0.0,0.0,0.0,0.0,0.0,0.0,0.0,0.0,0.0,0.0,0.0,0.0,0.0,0.0,0.0,0.0,0.0,0.0,0.0,0.0,2.4392,2.4629,2.4492,2.3964,2.3844,2.3195,0.0,0.0,0.0,0.0,0.0,0.0,0.0,0.0,0.0,0.0,0.0,0.0,0.0,0.0,0.0,0.0,0.0,0.0,0.0,0.0,0.0,0.0,0.0,0.0,0.0,0.0,0.0,0.0,0.0,0.0,0.0,0.0,0.0,0.0,0.0,0.0,0.0,0.0,0.0,0.0,0.0,0.0,0.0,0.0,0.0,0.0,0.0,0.0,0.0,0.0,0.0,0.0,0.0,0.0,0.0,0.0,0.0,0.0,0.0,0.0,0.0,0.0,0.0,0.0,0.0,0.0,0.0,0.0,0.0,0.0,0.0,0.0,0.0,0.0,0.0,0.0,0.0,0.0,0.0,0.0,0.0,0.0,0.0,0.0,0.0,0.0,0.0,0.0,0.0,0.0,0.0,0.0,0.0,0.0,0.0,0.0,0.0,0.0,0.0,0.0,0.0,0.0,0.0,0.0,0.0,0.0,0.0,0.0,0.0,2.4807,0.0,2.5117,2.4843,2.4841,2.4037,0.0,0.0,0.0,0.0,0.0,0.0,0.0,0.0,0.0,0.0,0.0,0.0,0.0,0.0,0.0,0.0,0.0,0.0,0.0,0.0,0.0,0.0,0.0,0.0,0.0,0.0,0.0,0.0,0.0,0.0,0.0,0.0,0.0,0.0,0.0,0.0,0.0,0.0,0.0,0.0,0.0,0.0,0.0,0.0,0.0,0.0,0.0,0.0,0.0,0.0,0.0,0.0,0.0,0.0,0.0,0.0,0.0,0.0,0.0,0.0,0.0,0.0,0.0,0.0,0.0,0.0,0.0,0.0,0.0,0.0,0.0,0.0,0.0,0.0,0.0,0.0,0.0,0.0,0.0,0.0,0.0,0.0,0.0,0.0,0.0,0.0,0.0,0.0,0.0,0.0,0.0,0.0,0.0,0.0,0.0,0.0,0.0,0.0,0.0,0.0,0.0,0.0,0.0,0.0,0.0,0.0,0.0,0.0,2.5621,2.5583,2.4881,2.4961,2.5623,2.4178,2.3203,0.0,0.0,0.0,0.0,0.0,0.0,0.0,0.0,0.0,0.0,0.0,0.0,0.0,0.0,0.0,0.0,0.0,0.0,0.0,0.0,0.0,0.0,0.0,0.0,0.0,0.0,0.0,0.0,0.0,0.0,0.0,0.0,0.0,0.0,0.0,0.0,0.0,0.0,0.0,0.0,0.0,0.0,0.0,0.0,0.0,0.0,0.0,0.0,0.0,0.0,0.0,0.0,0.0,0.0,0.0,0.0,0.0,0.0,0.0,0.0,0.0,0.0,0.0,0.0,0.0,0.0,0.0,0.0,0.0,0.0,0.0,0.0,0.0,0.0,0.0,0.0,0.0,0.0,0.0,0.0,0.0,0.0,0.0,0.0,0.0,0.0,0.0,0.0,0.0,0.0,0.0,0.0,0.0,0.0,0.0,0.0,0.0,0.0,0.0,0.0,0.0,0.0,0.0,0.0,0.0,0.0,0.0,0.0,0.0,2.6294,2.6548,2.6592,2.6373,2.5874,2.5078,0.0,0.0,0.0,0.0,0.0,0.0,0.0,0.0,0.0,0.0,0.0,0.0,0.0,0.0,0.0,0.0,0.0,0.0,0.0,0.0,0.0,0.0,0.0,0.0,0.0,0.0,0.0,0.0,0.0,0.0,0.0,0.0,0.0,0.0,0.0,0.0,0.0,0.0,0.0,0.0,0.0,0.0,0.0,0.0,0.0,0.0,0.0,0.0,0.0,0.0,0.0,0.0,0.0,0.0,0.0,0.0,0.0,0.0,0.0,0.0,0.0,0.0,0.0,0.0,0.0,0.0,0.0,0.0,0.0,0.0,0.0,0.0,0.0,0.0,0.0,0.0,0.0,0.0,0.0,0.0,0.0,0.0,0.0,0.0,0.0,0.0,0.0,0.0,0.0,0.0,0.0,0.0,0.0,0.0,0.0,0.0,0.0,0.0,0.0,0.0,0.0,0.0,0.0,0.0,0.0,0.0,0.0,0.0,0.0,2.8113,2.8038,2.7788,2.7387,2.737,2.6378,2.4351,0.0,0.0,0.0,0.0,0.0,0.0,0.0,0.0,0.0,0.0,0.0,0.0,0.0,0.0,0.0,0.0,0.0,0.0,0.0,0.0,0.0,0.0,0.0,0.0,0.0,0.0,0.0,0.0,0.0,0.0,0.0,0.0,0.0,0.0,0.0,0.0,0.0,0.0,0.0,0.0,0.0,0.0,0.0,0.0,0.0,0.0,0.0,0.0,0.0,0.0,0.0,0.0,0.0,0.0,0.0,0.0,0.0,0.0,0.0,0.0,0.0,0.0,0.0,0.0,0.0,0.0,0.0,0.0,0.0,0.0,0.0,0.0,0.0,0.0,0.0,0.0,0.0,0.0,0.0,0.0,0.0,0.0,0.0,0.0,0.0,0.0,0.0,0.0,0.0,0.0,0.0,0.0,0.0,0.0,0.0,0.0,0.0,0.0,0.0,0.0,0.0,0.0,0.0,0.0,0.0,0.0,0.0,0.0,3.0742,2.953,2.8804,2.8561,2.8589,2.7171,0.0,0.0,0.0,0.0,0.0,0.0,0.0,0.0,0.0,0.0,0.0,0.0,0.0,0.0,0.0,0.0,0.0,0.0,0.0,0.0,0.0,0.0,0.0,0.0,0.0,0.0,0.0,0.0,0.0,0.0,0.0,0.0,0.0,0.0,0.0,0.0,0.0,0.0,0.0,0.0,0.0,0.0,0.0,0.0,0.0,0.0,0.0,0.0,0.0,0.0,0.0,0.0,0.0,0.0,0.0,0.0,0.0,0.0,0.0,0.0,0.0,0.0,0.0,0.0,0.0,0.0,0.0,0.0,0.0,0.0,0.0,0.0,0.0,0.0,0.0,0.0,0.0,0.0,0.0,0.0,0.0,0.0,0.0,0.0,0.0,0.0,0.0,0.0,0.0,0.0,0.0,0.0,0.0,0.0,0.0,0.0,0.0,0.0,0.0,0.0,0.0,0.0,0.0,0.0,0.0,0.0,0.0,0.0,0.0,3.135,3.2754,3.221,2.9532,2.9719,2.8179,0.0,0.0,0.0,0.0,0.0,0.0,0.0,0.0,0.0,0.0,0.0,0.0,0.0,0.0,0.0,0.0,0.0,0.0,0.0,0.0,0.0,0.0,0.0,0.0,0.0,0.0,0.0,0.0,0.0,0.0,0.0,0.0,0.0,0.0,0.0,0.0,0.0,0.0,0.0,0.0,0.0,0.0,0.0,0.0,0.0,0.0,0.0,0.0,0.0,0.0,0.0,0.0,0.0,0.0,0.0,0.0,0.0,0.0,0.0,0.0,0.0,0.0,0.0,0.0,0.0,0.0,0.0,0.0,0.0,0.0,0.0,0.0,0.0,0.0,0.0,0.0,0.0,0.0,0.0,0.0,0.0,0.0,0.0,0.0,0.0,0.0,0.0,0.0,0.0,0.0,0.0,0.0,0.0,0.0,0.0,0.0,0.0,0.0,0.0,0.0,0.0,0.0,0.0,0.0,0.0,0.0,0.0,0.0,3.2119,3.3129,3.5231,3.4818,3.1593,3.1601,2.9662,0.0,0.0,0.0,0.0,0.0,0.0,0.0,0.0,0.0,0.0,0.0,0.0,0.0,0.0,0.0,0.0,0.0,0.0,0.0,0.0,0.0,0.0,0.0,0.0,0.0,0.0,0.0,0.0,0.0,0.0,0.0,0.0,0.0,0.0,0.0,0.0,0.0,0.0,0.0,0.0,0.0,0.0,0.0,0.0,0.0,0.0,0.0,0.0,0.0,0.0,0.0,0.0,0.0,0.0,0.0,0.0,0.0,0.0,0.0,0.0,0.0,0.0,0.0,0.0,0.0,0.0,0.0,0.0,0.0,0.0,0.0,0.0,0.0,0.0,0.0,0.0,0.0,0.0,0.0,0.0,0.0,0.0,0.0,0.0,0.0,0.0,0.0,0.0,0.0,0.0,0.0,0.0,0.0,0.0,0.0,0.0,0.0,0.0,0.0,0.0,0.0,0.0,0.0,0.0,0.0,0.0,0.0,0.0,3.3728,3.5066,3.697,3.6758,3.4354,3.3724,3.1193,0.0,0.0,0.0,0.0,0.0,0.0,0.0,0.0,0.0,0.0,0.0,0.0,0.0,0.0,0.0,0.0,0.0,0.0,0.0,0.0,0.0,0.0,0.0,0.0,0.0,0.0,0.0,0.0,0.0,0.0,0.0,0.0,0.0,0.0,0.0,0.0,0.0,0.0,0.0,0.0,0.0,0.0,0.0,0.0,0.0,0.0,0.0,0.0,0.0,0.0,0.0,0.0,0.0,0.0,0.0,0.0,0.0,0.0,0.0,0.0,0.0,0.0,0.0,0.0,0.0,0.0,0.0,0.0,0.0,0.0,0.0,0.0,0.0,0.0,0.0,0.0,0.0,0.0,0.0,0.0,0.0,0.0,0.0,0.0,0.0,0.0,0.0,0.0,0.0,0.0,0.0,0.0,0.0,0.0,0.0,0.0,0.0,0.0,0.0,0.0,0.0,0.0,0.0,0.0,0.0,0.0,0.0,0.0,3.4215,3.4531,3.7411,3.7942,3.5783,3.4332,3.1293,0.0,0.0,0.0,0.0,0.0,0.0,0.0,0.0,0.0,0.0,0.0,0.0,0.0,0.0,0.0,0.0,0.0,0.0,0.0,0.0,0.0,0.0,0.0,0.0,0.0,0.0,0.0,0.0,0.0,0.0,0.0,0.0,0.0,0.0,0.0,0.0,0.0,0.0,0.0,0.0,0.0,0.0,0.0,0.0,0.0,0.0,0.0,0.0,2.1612,0.0,0.0,0.0,0.0,0.0,0.0,0.0,0.0,0.0,0.0,0.0,0.0,0.0,0.0,0.0,0.0,0.0,0.0,0.0,0.0,0.0,0.0,0.0,0.0,0.0,0.0,0.0,0.0,0.0,0.0,0.0,0.0,0.0,0.0,0.0,0.0,0.0,0.0,0.0,0.0,0.0,0.0,0.0,0.0,0.0,0.0,0.0,0.0,0.0,0.0,0.0,0.0,0.0,0.0,0.0,0.0,0.0,0.0,0.0,3.4641,3.5048,3.7507,3.7819,3.5795,3.4327,3.1785,0.0,0.0,0.0,0.0,0.0,0.0,0.0,0.0,0.0,0.0,0.0,0.0,0.0,0.0,0.0,0.0,0.0,0.0,0.0,0.0,0.0,0.0,0.0,0.0,0.0,0.0,0.0,0.0,0.0,0.0,0.0,0.0,0.0,0.0,0.0,0.0,0.0,0.0,0.0,0.0,0.0,0.0,0.0,0.0,0.0,0.0,0.0,0.0,0.0,0.0,0.0,0.0,0.0,0.0,0.0,0.0,0.0,0.0,0.0,0.0,0.0,0.0,0.0,0.0,0.0,0.0,0.0,0.0,0.0,0.0,0.0,0.0,0.0,0.0,0.0,0.0,0.0,0.0,0.0,0.0,0.0,0.0,0.0,0.0,0.0,0.0,0.0,0.0,0.0,0.0,0.0,0.0,0.0,0.0,0.0,0.0,0.0,0.0,0.0,0.0,0.0,0.0,0.0,0.0,0.0,0.0,0.0,3.2972,3.4886,3.5701,3.7334,3.7211,3.527,3.4282,3.2404,2.9591,0.0,0.0,0.0,0.0,0.0,0.0,0.0,0.0,0.0,0.0,0.0,0.0,0.0,0.0,0.0,0.0,0.0,0.0,0.0,0.0,0.0,0.0,0.0,0.0,0.0,0.0,0.0,0.0,0.0,0.0,0.0,0.0,0.0,0.0,0.0,0.0,0.0,0.0,2.181,2.2459,0.0,0.0,0.0,0.0,0.0,0.0,0.0,0.0,2.1961,0.0,0.0,0.0,0.0,0.0,0.0,0.0,0.0,0.0,0.0,0.0,0.0,0.0,0.0,0.0,0.0,0.0,0.0,0.0,0.0,0.0,0.0,0.0,0.0,0.0,0.0,0.0,0.0,0.0,0.0,0.0,0.0,0.0,0.0,0.0,0.0,0.0,0.0,0.0,0.0,0.0,0.0,0.0,0.0,0.0,0.0,0.0,0.0,0.0,0.0,0.0,0.0,0.0,0.0,0.0,0.0,2.9358,3.2854,3.4791,3.5052,3.6834,3.6967,3.5286,3.4759,3.305,2.9958,0.0,0.0,0.0,0.0,0.0,0.0,0.0,0.0,0.0,0.0,0.0,0.0,0.0,0.0,0.0,0.0,0.0,0.0,0.0,0.0,0.0,0.0,0.0,0.0,0.0,0.0,0.0,0.0,0.0,0.0,0.0,0.0,0.0,0.0,0.0,0.0,0.0,0.0,0.0,2.4024,2.4223,0.0,0.0,0.0,0.0,0.0,0.0,0.0,0.0,2.22,0.0,0.0,0.0,0.0,0.0,0.0,0.0,0.0,0.0,0.0,0.0,0.0,0.0,0.0,0.0,0.0,0.0,0.0,0.0,0.0,0.0,0.0,0.0,0.0,0.0,0.0,0.0,0.0,0.0,0.0,0.0,0.0,0.0,0.0,0.0,0.0,0.0,0.0,0.0,0.0,0.0,0.0,0.0,0.0,0.0,0.0,0.0,0.0,0.0,0.0,0.0,0.0,0.0,0.0,0.0,2.9761,3.1973,3.3813,3.5152,3.6326,3.6275,3.4977,3.4366,3.253,0.0,0.0,0.0,0.0,0.0,0.0,0.0,0.0,0.0,0.0,0.0,0.0,0.0,0.0,0.0,0.0,0.0,0.0,0.0,0.0,0.0,0.0,0.0,0.0,0.0,0.0,0.0,0.0,0.0,0.0,0.0,0.0,0.0,0.0,0.0,0.0,0.0,0.0,0.0,0.0,2.4984,2.5389,2.4013,0.0,0.0,0.0,0.0,0.0,0.0,2.4764,2.3842,0.0,0.0,0.0,0.0,0.0,0.0,0.0,0.0,0.0,0.0,0.0,0.0,0.0,0.0,0.0,0.0,0.0,0.0,0.0,0.0,0.0,0.0,0.0,0.0,0.0,0.0,0.0,0.0,0.0,0.0,0.0,0.0,0.0,0.0,0.0,0.0,0.0,0.0,0.0,0.0,0.0,0.0,0.0,0.0,0.0,0.0,0.0,0.0,0.0,0.0,0.0,0.0,0.0,0.0,0.0,3.043,3.1467,3.3138,3.5398,3.5772,3.554,3.475,3.3958,3.2159,0.0,0.0,0.0,0.0,0.0,0.0,0.0,0.0,0.0,0.0,0.0,0.0,0.0,0.0,0.0,0.0,0.0,0.0,0.0,0.0,0.0,0.0,0.0,0.0,0.0,0.0,0.0,0.0,0.0,0.0,0.0,0.0,0.0,0.0,0.0,0.0,0.0,0.0,0.0,0.0,0.0,2.6358,2.4542,2.5794,0.0,0.0,0.0,0.0,2.6114,2.6197,0.0,0.0,0.0,0.0,0.0,0.0,0.0,0.0,0.0,0.0,0.0,0.0,0.0,0.0,0.0,0.0,0.0,0.0,0.0,0.0,0.0,0.0,0.0,0.0,0.0,0.0,0.0,0.0,0.0,0.0,0.0,0.0,0.0,0.0,0.0,0.0,0.0,0.0,0.0,0.0,0.0,0.0,0.0,0.0,0.0,0.0,0.0,0.0,0.0,0.0,0.0,0.0,0.0,0.0,0.0,0.0,3.131,3.2379,3.3757,3.5364,3.5094,3.483,3.4681,3.4277,3.2723,0.0,0.0,0.0,0.0,0.0,0.0,0.0,0.0,0.0,0.0,0.0,0.0,0.0,0.0,0.0,0.0,0.0,0.0,0.0,0.0,0.0,0.0,0.0,0.0,0.0,0.0,0.0,0.0,0.0,0.0,0.0,0.0,0.0,0.0,0.0,0.0,0.0,0.0,0.0,0.0,0.0,2.6896,2.4469,2.6588,2.7442,0.0,0.0,2.868,2.7479,2.8674,0.0,0.0,0.0,0.0,0.0,0.0,0.0,0.0,0.0,0.0,0.0,0.0,0.0,0.0,0.0,0.0,0.0,0.0,0.0,0.0,0.0,0.0,0.0,0.0,0.0,0.0,0.0,0.0,0.0,0.0,0.0,0.0,0.0,0.0,0.0,0.0,0.0,0.0,0.0,0.0,0.0,0.0,0.0,0.0,0.0,0.0,0.0,0.0,0.0,0.0,0.0,0.0,0.0,0.0,0.0,2.9472,3.1376,3.1824,3.3291,3.5779,3.5101,3.4627,3.4451,3.3879,3.2222,0.0,0.0,0.0,0.0,0.0,0.0,0.0,0.0,0.0,0.0,0.0,0.0,0.0,0.0,0.0,0.0,0.0,0.0,0.0,0.0,0.0,0.0,0.0,0.0,0.0,0.0,0.0,0.0,0.0,0.0,0.0,0.0,0.0,0.0,0.0,0.0,0.0,0.0,0.0,0.0,0.0,0.0,2.4939,2.7979,0.0,0.0,0.0,3.1516,2.9751,0.0,0.0,0.0,0.0,0.0,0.0,0.0,0.0,0.0,0.0,0.0,0.0,0.0,0.0,0.0,0.0,0.0,0.0,0.0,0.0,0.0,0.0,0.0,0.0,0.0,0.0,0.0,0.0,0.0,0.0,0.0,0.0,0.0,0.0,0.0,0.0,0.0,0.0,0.0,0.0,0.0,0.0,0.0,0.0,0.0,0.0,0.0,0.0,0.0,0.0,0.0,0.0,0.0,0.0,0.0,0.0,0.0,3.15,3.1449,3.2901,3.5916,3.4942,3.4345,3.4295,3.3379,0.0,0.0,0.0,0.0,0.0,0.0,0.0,0.0,0.0,0.0,0.0,0.0,0.0,0.0,0.0,0.0,0.0,0.0,0.0,0.0,0.0,0.0,0.0,0.0,0.0,0.0,0.0,1.812,0.0,0.0,0.0,0.0,0.0,0.0,0.0,0.0,0.0,0.0,0.0,0.0,0.0,0.0,2.8288,2.591,2.9242,3.0903,0.0,0.0,3.3534,3.115,3.1474,3.1481,0.0,0.0,0.0,0.0,0.0,0.0,0.0,0.0,0.0,0.0,0.0,0.0,0.0,0.0,0.0,0.0,0.0,0.0,0.0,0.0,0.0,0.0,0.0,0.0,0.0,0.0,0.0,0.0,0.0,0.0,0.0,0.0,0.0,0.0,0.0,0.0,0.0,0.0,0.0,0.0,0.0,0.0,0.0,0.0,0.0,0.0,0.0,0.0,0.0,0.0,0.0,0.0,0.0,0.0,0.0,3.1918,3.1918,3.3127,3.5646,3.4228,3.3656,3.4279,3.3,3.2089,0.0,0.0,0.0,0.0,0.0,0.0,0.0,0.0,0.0,0.0,0.0,0.0,0.0,0.0,0.0,0.0,0.0,0.0,0.0,0.0,0.0,0.0,0.0,0.0,0.0,0.0,0.0,0.0,0.0,0.0,0.0,0.0,0.0,0.0,0.0,0.0,0.0,0.0,0.0,0.0,0.0,2.9813,2.7482,3.0234,3.1664,0.0,0.0,3.3756,3.055,3.3193,3.4219,3.0011,0.0,0.0,0.0,0.0,0.0,0.0,0.0,0.0,0.0,0.0,0.0,0.0,0.0,0.0,0.0,0.0,0.0,0.0,0.0,0.0,0.0,0.0,0.0,0.0,0.0,0.0,0.0,0.0,0.0,0.0,0.0,0.0,0.0,0.0,0.0,0.0,0.0,0.0,0.0,0.0,0.0,0.0,0.0,0.0,0.0,0.0,0.0,0.0,0.0,0.0,0.0,0.0,0.0,3.0083,3.1945,3.1822,3.3024,3.5646,3.4578,3.4036,3.4288,3.3321,3.2459,0.0,0.0,0.0,0.0,0.0,0.0,0.0,0.0,0.0,0.0,0.0,0.0,0.0,0.0,0.0,0.0,0.0,0.0,0.0,0.0,0.0,0.0,0.0,0.0,0.0,0.0,0.0,0.0,2.0899,2.1266,2.1405,0.0,0.0,0.0,0.0,0.0,0.0,0.0,0.0,0.0,0.0,3.0184,2.9165,3.1792,0.0,0.0,3.3845,3.5008,3.2062,3.2973,3.3291,3.1181,2.9255,0.0,0.0,0.0,0.0,0.0,0.0,0.0,0.0,0.0,0.0,0.0,0.0,0.0,0.0,0.0,0.0,0.0,0.0,0.0,0.0,0.0,0.0,0.0,0.0,0.0,0.0,0.0,0.0,0.0,0.0,0.0,0.0,0.0,0.0,0.0,0.0,0.0,0.0,0.0,0.0,0.0,0.0,0.0,0.0,0.0,0.0,0.0,0.0,0.0,0.0,0.0,0.0,2.9986,3.1725,3.1638,3.2955,3.5593,3.4571,3.4083,3.4241,3.3134,3.2301,0.0,0.0,0.0,0.0,0.0,0.0,0.0,0.0,0.0,0.0,0.0,0.0,0.0,0.0,0.0,0.0,0.0,0.0,0.0,0.0,0.0,0.0,0.0,0.0,0.0,0.0,0.0,0.0,2.1865,2.1909,2.1431,0.0,0.0,0.0,0.0,0.0,0.0,0.0,0.0,0.0,0.0,3.0546,3.0308,3.24,3.3582,3.2476,3.418,3.4993,3.3157,3.2668,3.2317,3.1787,0.0,0.0,0.0,0.0,0.0,0.0,0.0,0.0,0.0,0.0,0.0,0.0,0.0,0.0,0.0,0.0,0.0,0.0,0.0,0.0,0.0,0.0,0.0,0.0,0.0,0.0,0.0,0.0,0.0,0.0,0.0,0.0,0.0,0.0,0.0,0.0,0.0,0.0,0.0,0.0,0.0,0.0,0.0,0.0,0.0,0.0,0.0,0.0,0.0,0.0,0.0,0.0,0.0,2.8734,3.1276,3.156,3.2854,3.5324,3.4051,3.3688,3.4241,3.2329,3.1533,3.1962,0.0,0.0,0.0,0.0,0.0,0.0,0.0,0.0,0.0,0.0,0.0,0.0,0.0,0.0,0.0,0.0,0.0,0.0,0.0,0.0,0.0,0.0,0.0,0.0,0.0,0.0,2.0531,2.1437,2.2166,0.0,0.0,0.0,0.0,0.0,0.0,0.0,0.0,0.0,0.0,3.1211,3.112,3.0671,3.1787,3.2679,3.2523,3.2811,3.3143,3.3354,3.2527,3.1743,0.0,0.0,0.0,0.0,0.0,0.0,0.0,0.0,0.0,0.0,0.0,0.0,0.0,0.0,0.0,0.0,0.0,0.0,0.0,0.0,0.0,0.0,0.0,0.0,0.0,0.0,0.0,1.9409,1.8858,0.0,0.0,0.0,0.0,0.0,0.0,0.0,0.0,0.0,0.0,0.0,2.483,2.6986,0.0,0.0,0.0,0.0,0.0,0.0,0.0,0.0,0.0,0.0,0.0,0.0,3.0348,3.2491,3.2264,3.3382,3.5963,3.5173,3.4794,3.4999,3.3878,3.2854,3.1996,0.0,0.0,0.0,0.0,0.0,0.0,0.0,0.0,0.0,0.0,0.0,0.0,0.0,0.0,0.0,0.0,0.0,0.0,0.0,0.0,0.0,0.0,0.0,0.0,0.0,2.3228,0.0,0.0,0.0,0.0,0.0,0.0,0.0,0.0,0.0,0.0,0.0,2.9648,2.9909,3.1285,3.2204,3.1923,3.3035,3.3705,0.0,0.0,0.0,0.0,0.0,0.0,0.0,0.0,0.0,0.0,0.0,0.0,0.0,0.0,2.8829,2.7985,2.8174,2.8266,2.7816,0.0,0.0,0.0,0.0,0.0,0.0,0.0,0.0,0.0,0.0,0.0,0.0,0.0,0.0,0.0,0.0,2.1643,0.0,0.0,0.0,0.0,0.0,0.0,0.0,0.0,2.4697,2.6466,2.7542,2.9512,3.0414,0.0,3.0008,2.9116,0.0,0.0,0.0,0.0,0.0,0.0,0.0,0.0,3.1096,3.3068,3.2626,3.3609,3.6248,3.5489,3.5126,3.5347,3.3972,3.2625,3.1421,3.0847,3.1073,0.0,0.0,0.0,0.0,0.0,0.0,0.0,0.0,0.0,0.0,0.0,0.0,0.0,0.0,0.0,0.0,0.0,0.0,0.0,0.0,0.0,0.0,0.0,2.4445,0.0,0.0,0.0,0.0,0.0,0.0,0.0,0.0,0.0,2.7894,2.929,3.0315,3.0078,3.1258,3.2092,3.1891,0.0,0.0,0.0,0.0,0.0,0.0,0.0,3.2567,3.2166,3.1827,3.1751,3.2101,3.1708,3.1094,3.0345,0.0,0.0,2.9166,2.9242,2.9386,2.8902,2.9005,2.9317,2.9799,3.0246,3.0692,0.0,0.0,0.0,0.0,0.0,0.0,0.0,0.0,2.4887,2.4122,0.0,2.2807,0.0,0.0,0.0,0.0,0.0,0.0,0.0,0.0,2.676,2.8626,3.0417,3.0113,3.0508,3.1548,3.1336,3.107,3.083,2.9051,0.0,0.0,0.0,0.0,0.0,0.0,3.0858,3.2966,3.2644,3.3672,3.6311,3.5078,3.4683,3.53,3.2724,3.1002,3.0354,3.0653,3.0806,3.0884,3.0738,0.0,0.0,0.0,0.0,0.0,0.0,0.0,0.0,0.0,0.0,0.0,0.0,0.0,0.0,0.0,0.0,0.0,0.0,0.0,0.0,2.4302,0.0,0.0,0.0,0.0,0.0,0.0,0.0,0.0,0.0,0.0,3.0058,2.9671,2.9891,3.131,0.0,0.0,0.0,0.0,3.1625,3.1954,3.1936,3.2135,3.2755,3.2679,3.2527,3.2454,0.0,0.0,3.2663,3.2207,3.1708,3.0948,3.1484,3.1413,2.9502,2.9768,3.0177,3.0177,3.0751,3.1227,3.1295,3.1467,3.1489,3.0705,0.0,0.0,0.0,0.0,2.7088,2.7727,2.8563,2.9361,2.8885,2.7525,2.766,0.0,0.0,0.0,0.0,0.0,0.0,2.6545,2.8428,2.9863,3.1052,3.1977,3.245,3.266,3.2465,3.2757,3.2616,3.204,3.1517,3.0738,2.969,0.0,0.0,0.0,0.0,3.2842,3.3773,3.3761,3.4841,3.7133,3.5789,3.5173,3.5379,3.3166,3.1871,3.1731,3.1323,3.1437,3.2096,3.1218,0.0,0.0,0.0,0.0,0.0,0.0,0.0,0.0,0.0,0.0,0.0,0.0,0.0,0.0,0.0,0.0,0.0,0.0,0.0,2.7227,2.7677,2.7689,0.0,0.0,0.0,0.0,0.0,0.0,0.0,0.0,0.0,3.1873,3.2368,3.2496,0.0,0.0,3.2179,3.1637,3.2464,3.3103,3.3051,0.0,0.0,0.0,3.346,3.3197,3.3063,3.2934,3.2747,3.2643,3.2658,3.267,3.2297,3.253,3.2406,3.1326,3.1355,3.1641,3.1722,3.2239,3.2837,3.3306,3.3806,3.4,3.3059,3.1784,3.019,3.0069,3.1029,3.1214,3.1742,3.248,3.2886,3.2337,3.1229,3.1096,2.9512,2.692,2.6493,0.0,0.0,0.0,2.8973,3.0943,3.169,3.2547,3.3468,3.3834,3.3894,3.3667,3.3964,3.3721,3.2949,3.3208,3.2964,3.2161,0.0,0.0,3.1436,3.2722,3.3875,3.4931,3.4462,3.5216,3.7417,3.6105,3.5394,3.5347,3.3356,3.2266,3.2183,3.152,3.1462,3.2008,3.171,3.1851,0.0,0.0,0.0,0.0,0.0,0.0,0.0,0.0,0.0,0.0,0.0,2.4841,2.3768,0.0,0.0,0.0,2.729,2.8742,2.9904,2.9955,0.0,0.0,0.0,0.0,0.0,0.0,0.0,3.1319,3.2581,3.3565,3.3557,3.4031,3.3928,3.2588,3.3066,3.331,3.2674,0.0,3.3968,3.3878,3.4152,3.4297,3.4177,3.3909,3.3587,3.331,3.2883,3.2633,3.2577,3.2829,3.2989,3.2951,3.2951,3.2864,3.232,3.2619,3.2835,3.2651,3.3124,3.3763,3.4463,3.4967,3.5068,3.5135,3.6103,3.5278,3.5294,3.5864,3.588,3.6078,3.6329,3.5605,3.4812,3.4069,3.3446,3.2272,3.064,2.9383,0.0,0.0,3.0066,3.0939,3.2764,3.2709,3.3441,3.4832,3.4375,3.4375,3.4863,3.4925,3.4561,3.3836,3.436,3.4641,3.4514,3.3242,3.236,3.1891,3.2997,3.4393,3.5997,3.4736,3.5137,3.7203,3.5959,3.5266,3.5194,3.335,3.2226,3.1972,3.1612,3.1281,3.1228,3.2199,3.2736,3.2724,0.0,0.0,0.0,0.0,0.0,0.0,0.0,0.0,0.0,0.0,0.0,0.0,0.0,0.0,0.0,2.9231,0.0,3.2249,3.1501,0.0,0.0,0.0,3.1135,3.0861,3.2713,3.3784,3.3045,0.0,0.0,3.5031,0.0,3.4384,3.3688,3.4001,3.4115,3.3617,3.3995,3.4405,3.4293,3.4359,3.4293,3.4117,3.397,3.3678,3.3165,3.2834,3.2563,3.2609,3.2734,3.2858,3.2827,3.2874,3.2889,3.2858,3.3372,3.3802,3.3341,3.3685,3.4301,3.5127,3.5274,3.5216,3.8633,3.9607,3.8895,3.8172,3.7506,3.7294,3.7928,3.8958,3.805,3.7292,3.661,3.5895,3.4476,3.259,3.1195,3.1322,3.2618,3.3002,3.3826,3.4868,3.4497,3.4606,3.5111,3.4552,3.4368,3.4567,3.5304,3.5581,3.5385,3.5748,3.5719,3.5181,3.4698,3.4202,3.3734,3.5077,3.548,3.4852,3.5115,3.5353,3.5493,3.471,3.4147,3.3879,3.3033,3.2338,3.1925,3.2391,3.261,3.2625,3.2872,3.3144,3.3441,3.1869,0.0,0.0,0.0,0.0,0.0,0.0,0.0,0.0,0.0,2.6994,2.603,0.0,3.1097,0.0,3.1324,3.2589,3.3913,3.3454,0.0,0.0,3.4082,3.4026,3.3791,3.4675,3.5027,3.4447,3.4658,3.5005,3.5428,3.4731,3.4449,3.4975,3.476,3.4213,3.3402,3.4312,3.4771,3.4107,3.4415,3.4655,3.4187,3.3746,3.3216,3.2679,3.2514,3.2453,3.2413,3.2539,3.2648,3.257,3.3098,3.3191,3.2671,3.3496,3.428,3.4348,3.4929,3.5658,3.6404,3.6484,3.6328,3.9806,4.0115,3.9728,3.9189,3.8586,3.9194,3.9752,4.0275,3.9677,3.9078,3.8435,3.7329,3.6248,3.5094,3.3704,3.3565,3.4366,3.5039,3.5502,3.59,3.5883,3.5821,3.5692,3.5103,3.4994,3.5227,3.5502,3.5759,3.6014,3.6382,3.6398,3.6042,3.6244,3.6014,3.5539,3.5823,3.5973,3.6012,3.6168,3.5655,3.4545,3.3826,3.3577,3.3773,3.264,3.2207,3.261,3.2484,3.2519,3.2751,3.2301,3.2238,3.2756,3.1662,3.1099,0.0,0.0,0.0,0.0,0.0,0.0,0.0,0.0,0.0,0.0,0.0,3.327,3.2882,3.3311,3.382,3.4318,3.4161,3.4209,3.4735,3.4888,3.5104,3.5448,3.5573,3.5636,3.5531,3.5311,3.5283,3.5542,3.5121,3.4767,3.4961,3.4773,3.444,3.3979,3.4509,3.4718,3.406,3.4329,3.4464,3.3836,3.3443,3.2986,3.2547,3.2398,3.2398,3.2398,3.2453,3.2453,3.2484,3.2832,3.2971,3.2576,3.3229,3.4041,3.4222,3.496,3.5947,3.6691,3.68,3.66,3.9987,3.9499,3.9339,3.9354,3.9546,4.0923,4.12,4.0668,4.0579,4.0232,3.973,3.834,3.7796,3.778,3.6421,3.5938,3.624,3.6754,3.6761,3.635,3.6945,3.6866,3.6286,3.5749,3.5778,3.6243,3.5701,3.5718,3.6253,3.6752,3.7016,3.7031,3.7479,3.7496,3.6956,3.5929,3.6182,3.7731,3.7151,3.5963,3.4239,3.3592,3.3604,3.4178,3.2619,3.2338,3.3482,3.2517,3.2153,3.2628,3.1662,3.1356,3.1992,3.1614,3.1511,0.0,3.1182,0.0,0.0,0.0,0.0,0.0,0.0,0.0,0.0,3.3727,3.4773,3.4905,3.4861,3.4629,3.4297,3.4331,3.456,3.4931,3.4942,3.5232,3.6045,3.5756,3.5599,3.6011,3.5661,3.5374,3.5448,3.5391,3.4911,3.4267,3.4301,3.4332,3.4349,3.443,3.443,3.4087,3.3987,3.3684,3.3235,3.3093,3.2879,3.2492,3.2398,3.2398,3.2398,3.2398,3.2398,3.2398,3.2428,3.2413,3.2398,3.2952,3.3444,3.3629,3.4596,3.5552,3.6291,3.6523,3.6492,4.1565,4.1307,4.0258,4.0412,4.1293,4.1111,4.0634,4.003,4.0047,4.0224,4.0525,3.9533,3.9455,3.9882,3.8555,3.8225,3.8794,3.892,3.8461,3.7585,3.7706,3.7252,3.6301,3.6185,3.6185,3.6286,3.663,3.6778,3.6882,3.7398,3.7652,3.7652,3.7639,3.7443,3.7015,0.0,0.0,0.0,3.6379,3.5933,3.5099,3.5118,3.4898,3.4265,3.4115,0.0,3.4052,3.3897,3.3905,3.4123,3.3411,0.0,0.0,0.0,0.0,0.0,0.0,0.0,0.0,0.0,0.0,0.0,3.3733,3.3445,3.2631,3.3896,3.4808,3.4878,3.4496,3.4644,3.551,3.5268,3.5448,3.6323,3.5891,3.5575,3.5643,3.5035,3.4719,3.4861,3.4382,3.4235,3.4816,3.4052,3.3559,3.3799,3.3523,3.3171,3.3033,3.3818,3.402,3.3124,3.2911,3.2749,3.2586,3.2547,3.2602,3.2398,3.2398,3.2398,3.2398,3.2398,3.2398,3.2398,3.2398,3.2398,3.2398,3.2936,3.3521,3.4152,3.446,3.4919,3.5598,3.6168,3.6492,4.1849,0.0,4.0837,4.0713,0.0,4.0664,4.0322,3.9995,4.0601,4.0868,4.0769,3.9689,3.9435,3.9714,3.8611,3.8203,3.833,3.8586,3.8319,3.7619,3.7916,3.7986,3.7723,3.7099,3.7128,3.7694,3.7389,3.7372,3.7665,3.7866,3.8172,3.8498,3.8193,3.7973,3.7904,3.7059,3.6276,3.5538,3.5956,3.5551,3.4311,3.4055,3.3821,3.3471,0.0,0.0,0.0,0.0,0.0,0.0,0.0,0.0,0.0,0.0,0.0,3.4319,3.422,3.4358,3.4917,3.4981,3.5235,3.5803,3.5937,3.5505,3.4349,3.5359,3.5906,3.5639,3.5016,3.4755,3.5017,3.4771,3.4755,3.5175,3.4901,3.4707,3.4874,3.4398,3.4137,3.4382,3.3987,3.3786,3.4153,3.3681,3.3261,3.3314,3.3081,3.2843,3.2703,3.314,3.323,3.2617,3.2453,3.2398,3.2398,3.2398,3.2398,3.2398,3.2398,3.2398,3.2398,3.2398,3.2398,3.2398,3.2398,3.2398,3.2428,3.269,3.3013,3.3383,3.3721,3.4168,3.4845,3.5522,3.5984,4.1976,4.1265,4.1149,4.0858,4.0452,4.0336,4.0336,4.0502,0.0,0.0,0.0,3.9879,3.941,3.9349,3.8788,3.8286,3.7998,3.8314,3.8294,3.7973,3.8337,3.8786,3.9291,3.8289,3.8333,3.9276,3.8243,3.7922,3.8384,3.8308,3.8582,3.9009,3.8725,3.8512,3.8445,3.725,3.6127,3.5245,3.5821,3.5314,3.369,3.3221,3.2988,3.3154,3.2025,3.2086,3.3357,3.2896,3.2936,3.3499,3.306,3.3208,3.4005,3.4186,3.4606,3.5435,3.6062,3.6541,3.6835,3.6883,3.7007,3.7433,3.7464,3.707,3.6123,3.6734,3.6794,3.6032,3.5367,3.4682,3.3936,3.3803,3.3623,3.3455,3.3443,3.3598,3.3953,3.3684,3.3547,3.3953,3.3649,3.3391,3.3459,3.3407,3.3251,3.292,3.2827,3.2773,3.2594,3.2617,3.2617,3.2453,3.2398,3.2398,3.2398,3.2398,3.2398,3.2398,3.2398,3.2398,3.2398,3.2398,3.2398,3.2398,3.2398,3.2398,3.2398,3.2428,3.2444,3.2536,3.2906,3.349,3.4291,3.4906,3.5428,4.3036,4.1903,4.1337,4.1381,4.1773,4.1192,4.1294,4.1797,4.1307,4.1067,4.0948,4.1294,4.1351,4.144,4.1245,4.1215,4.1111,4.0658,4.0456,0.0,3.9979,3.9795,3.9944,3.9784,3.9799,3.9958,3.9434,3.9261,3.9239,3.8918,3.8732,3.8898,3.8816,3.8361,3.7522,3.6907,3.6307,3.5639,3.6364,3.6382,3.5557,3.5797,3.5648,3.5078,3.447,3.4353,3.4723,3.4681,3.4804,3.4985,3.4919,3.5196,3.5973,3.6004,3.6311,3.6845,3.7148,3.727,3.7156,3.7172,3.7144,3.7238,3.7254,3.6983,3.6416,3.6358,3.5802,3.4596,3.4281,3.381,3.3185,3.3053,3.3022,3.2796,3.2726,3.2726,3.2749,3.2695,3.2726,3.2881,3.2687,3.2711,3.2958,3.2765,3.2656,3.2633,3.2578,3.2453,3.2453,3.2453,3.2398,3.2398,3.2398,3.2398,3.2398,3.2398,3.2398,3.2398,3.2398,3.2398,3.2398,3.2398,3.2398,3.2398,3.2398,3.2398,3.2398,3.2398,3.2582,3.2952,3.289,3.3013,3.4183,3.4645,3.506,4.3645,4.3108,4.2789,4.2832,4.3065,4.2411,4.2295,4.2498,4.1909,4.1374,4.1087,4.0953,4.0867,4.0852,4.0867,4.0867,4.0837,4.0618,4.0371,4.0182,3.9891,3.9765,3.98,3.9558,3.9572,3.9872,3.9655,3.9587,3.9587,3.9422,3.9521,3.9747,3.9606,3.8962,3.7961,3.7354,3.6809,3.6198,3.6262,3.5953,3.5283,3.5501,3.5138,3.4197,3.4016,3.3762,3.3478,3.4273,3.4713,3.4763,3.5539,3.6113,3.6544,3.656,3.6701,3.7074,3.7181,3.7181,3.7105,3.7105,3.7089,3.7105,3.7103,3.6805,3.6146,3.6084,3.5446,3.4147,3.388,3.3504,3.2796,3.2648,3.2594,3.2523,3.2468,3.2468,3.2382,3.2398,3.2398,3.2499,3.2413,3.2453,3.2594,3.2523,3.2398,3.2453,3.2453,3.2398,3.2398,3.2398,3.2398,3.2398,3.2398,3.2398,3.2398,3.2398,3.2398,3.2398,3.2398,3.2398,3.2398,3.2398,3.2398,3.2398,3.2398,3.2398,3.2398,3.2398,3.2552,3.2659,3.2659,3.2967,3.4075,3.5014,3.5784,4.411,4.4008,4.4008,4.3892,4.3748,4.3097,4.2808,4.2581,4.199,4.1457,4.0953,4.0596,4.0365,4.0219,4.0205,4.0219,4.019,4.0046,3.9914,3.9762,3.9619,3.9711,3.9873,3.9606,3.9578,3.9957,3.9914,3.9984,3.9984,3.9759,3.9856,4.0301,3.9996,3.9358,3.8423,3.7826,3.7229,3.6605,3.6008,3.5493,3.5045,3.4909,3.438,3.3552,3.3335,3.3037,3.2663,3.3663,3.4243,3.4311,3.5539,3.6336,3.6445,3.6585,3.6785,3.6938,3.7015,3.6999,3.6938,3.6999,3.6999,3.6938,3.6937,3.6609,3.5973,3.596,3.5478,3.4307,3.4001,3.3593,3.2965,3.2693,3.2561,3.2428,3.2398,3.2398,3.2398,3.2398,3.2398,3.2398,3.2398,3.2398,3.2398,3.2398,3.2398,3.2398,3.2398,3.2398,3.2398,3.2398,3.2398,3.2398,3.2398,3.2398,3.2398,3.2398,3.2398,3.2398,3.2398,3.2398,3.2398,3.2398,3.2398,3.2398,3.2398,3.2398,3.2398,3.2398,3.2413,3.2475,3.2567,3.3106,3.4475,3.5614,3.6415,4.4501,4.4037,4.4052,4.3719,4.3312,4.2682,4.2166,4.1747,4.1155,4.0845,4.0802,4.1155,4.1028,4.0703,4.0661,4.0661,4.0605,3.9999,4.0069,4.0506,3.9929,3.9999,4.056,4.1095,4.1095,4.0672,4.0715,4.0761,4.0645,3.9809,3.9428,3.9394,3.938,3.9108,3.8437,3.784,3.7229,3.6605,3.6008,3.5683,3.5615,3.5113,3.4774,3.4679,3.4136,3.3837,3.3702,3.4001,3.4114,3.4214,3.5022,3.5593,3.577,3.6305,3.6708,3.6723,3.6862,3.6938,3.6785,3.6923,3.6954,3.6723,3.6785,3.649,3.584,3.6168,3.5952,3.4942,3.455,3.4125,3.3439,3.333,3.3082,3.2576,3.2475,3.2398,3.2444,3.2398,3.2398,3.2398,3.2398,3.2398,3.2398,3.2398,3.2398,3.2398,3.2398,3.2398,3.2398,3.2398,3.2398,3.2398,3.2398,3.2398,3.2398,3.2398,3.2398,3.2398,3.2398,3.2398,3.2398,3.2398,3.2398,3.2398,3.2398,3.2398,3.2398,3.2398,3.2398,3.2505,3.2906,3.3721,3.5045,3.5968,3.643,4.5683,4.5111,4.5097,4.483,4.4281,4.331,4.2862,4.264,4.205,4.1607,4.1416,4.1593,4.1303,4.073,4.1067,4.1235,4.125,4.1334,4.1341,4.1313,4.1049,4.0927,4.0921,4.1141,4.1127,4.0948,4.1,4.1005,4.0896,4.021,3.9821,3.9766,3.9481,3.9183,3.8884,3.8003,3.7406,3.7134,3.6198,3.571,3.5696,3.5479,3.5181,3.4841,3.4519,3.4221,3.4009,3.4053,3.4126,3.417,3.4932,3.54,3.5529,3.6196,3.6616,3.6616,3.6677,3.6677,3.6616,3.7049,3.7111,3.6647,3.6971,3.6909,3.6276,3.64,3.6276,3.5814,3.5308,3.4634,3.366,3.3805,3.3759,3.3121,3.2998,3.2982,3.2982,3.2628,3.2398,3.2398,3.2398,3.2398,3.2398,3.2398,3.2398,3.2398,3.2398,3.2398,3.2398,3.2398,3.2398,3.2398,3.2398,3.2398,3.2398,3.2398,3.2398,3.2398,3.2398,3.2398,3.2398,3.2398,3.2398,3.2398,3.2398,3.2398,3.2398,3.2398,3.2413,3.2598,3.3367,3.426,3.4799,3.5753,3.6353,4.6284,4.5685,4.5518,4.5124,4.4591,4.3602,4.3166,4.2912,4.2342,4.1896,4.1622,4.1622,4.1349,4.091,4.1243,4.1424,4.1494,4.1897,4.191,4.1636,4.1622,4.1466,4.1123,4.13,4.1272,4.1177,4.1272,4.1286,4.1123,4.0879,4.0526,4.0187,3.9753,3.9468,3.921,3.826,3.7691,3.746,3.6483,3.5886,3.5737,3.571,3.5506,3.5113,3.5072,3.4869,3.4434,3.4341,3.4293,3.4293,3.4975,3.5377,3.5659,3.6345,3.6809,3.7047,3.703,3.703,3.7062,3.7477,3.7569,3.7138,3.7371,3.7371,3.7046,3.6707,3.6692,3.6984,3.6258,3.5232,3.4263,3.4426,3.4454,3.3783,3.3552,3.3398,3.3336,3.2798,3.2398,3.2398,3.2398,3.2398,3.2398,3.2398,3.2398,3.2398,3.2398,3.2398,3.2398,3.2398,3.2398,3.2398,3.2398,3.2398,3.2398,3.2398,3.2398,3.2398,3.2398,3.2398,3.2398,3.2398,3.2398,3.2398,3.2398,3.2398,3.2398,3.2398,3.2505,3.2859,3.3583,3.4491,3.4876,3.5784,3.6338,4.5793,4.5124,4.4676,4.4289,4.364,4.3072,4.2463,4.2208,4.1529,4.1164,4.1298,4.127,4.111,4.1134,4.1202,4.1189,4.1162,4.127,4.1311,4.1311,4.1298,4.115,4.115,4.1679,4.1693,4.1354,4.1747,4.1707,4.1259,4.1625,4.1313,4.0255,4.0133,3.9848,3.9292,3.8654,3.8084,3.7568,3.6863,3.6293,3.5805,3.5737,3.5696,3.5628,3.5655,3.5601,3.552,3.5031,3.4784,3.4719,3.498,3.538,3.6083,3.6852,3.7607,3.8234,3.8327,3.8357,3.8317,3.8342,3.8323,3.8215,3.7791,3.7731,3.7908,3.7092,3.6969,3.82,3.7029,3.6061,3.5445,3.5378,3.5189,3.4519,3.3829,3.349,3.3429,3.2844,3.2459,3.2398,3.2398,3.2398,3.2398,3.2398,3.2398,3.2398,3.2398,3.2398,3.2398,3.2398,3.2398,3.2398,3.2398,3.2398,3.2398,3.2398,3.2398,3.2398,3.2398,3.2398,3.2398,3.2398,3.2398,3.2398,3.2398,3.2398,3.2398,3.2505,3.269,3.309,3.3783,3.4491,3.4845,3.5845,3.6399,4.6137,4.5475,4.5003,4.4727,4.4406,4.3379,4.274,4.2548,4.2358,4.2249,4.2249,4.2249,4.2249,4.2249,4.2249,4.2046,4.1747,4.2073,4.2249,4.2249,4.2249,4.2249,4.2276,4.2466,4.248,4.2331,4.2466,4.2466,4.2249,4.2114,4.1598,4.0852,4.0377,3.9888,3.9305,3.8708,3.8301,3.803,3.7134,3.6497,3.6266,3.5913,3.571,3.571,3.571,3.571,3.571,3.5153,3.4828,3.4828,3.492,3.5376,3.6199,3.7428,3.8198,3.84,3.8077,3.7831,3.791,3.8231,3.8108,3.7338,3.7818,3.782,3.7261,3.6784,3.6722,3.7013,3.688,3.6329,3.6214,3.6152,3.5859,3.5212,3.4506,3.4075,3.3875,3.3121,3.2398,3.2398,3.2398,3.2398,3.2428,3.2398,3.2398,3.2398,3.2398,3.2398,3.2398,3.2398,3.2398,3.2398,3.2398,3.2398,3.2398,3.2398,3.2398,3.2398,3.2398,3.2398,3.2398,3.2398,3.2398,3.2398,3.2398,3.2398,3.2398,3.2428,3.2628,3.2798,3.3552,3.4321,3.4768,3.566,3.6215,4.5877,4.4911,4.4541,4.4448,4.4261,4.3341,4.29,4.29,4.29,4.29,4.2887,4.29,4.29,4.29,4.29,4.2697,4.2344,4.2697,4.29,4.29,4.29,4.29,4.29,4.29,4.29,4.2887,4.29,4.29,4.286,4.2493,4.1978,4.1394,4.096,4.0363,3.9644,3.9183,3.8857,3.8342,3.7596,3.7107,3.6877,3.6307,3.5995,3.5967,3.5818,3.571,3.571,3.533,3.5126,3.5138,3.5173,3.5597,3.6445,3.75,3.8174,3.8325,3.7831,3.759,3.78,3.8231,3.8123,3.7277,3.7674,3.7766,3.7169,3.6753,3.6707,3.6952,3.6685,3.656,3.6689,3.6615,3.6307,3.5814,3.5199,3.4706,3.4503,3.3429,3.2844,3.2736,3.2521,3.249,3.2628,3.2505,3.2428,3.2398,3.2398,3.2398,3.2398,3.2398,3.2398,3.2398,3.2398,3.2398,3.2398,3.2398,3.2398,3.2398,3.2398,3.2398,3.2398,3.2398,3.2398,3.2398,3.2398,3.2398,3.2398,3.2398,3.2444,3.249,3.3136,3.3998,3.4645,3.5383,3.5891,4.4997,4.3383,4.297,4.3259,4.3341,4.3163,4.2984,4.3163,4.308,4.3067,4.3067,4.2984,4.29,4.29,4.29,4.2873,4.2833,4.286,4.29,4.29,4.29,4.29,4.29,4.29,4.29,4.29,4.29,4.29,4.2887,4.2806,4.2507,4.2059,4.1869,4.1191,4.016,3.9997,3.9536,3.8695,3.8315,3.8043,3.7541,3.6877,3.651,3.6483,3.6008,3.571,3.571,3.5683,3.5642,3.5642,3.5588,3.6042,3.662,3.7082,3.7511,3.8046,3.7714,3.7713,3.828,3.8388,3.8354,3.8031,3.7843,3.7766,3.78,3.7107,3.6923,3.7631,3.7136,3.6722,3.7138,3.683,3.6476,3.6399,3.5768,3.5137,3.4568,3.386,3.3398,3.3336,3.2982,3.2782,3.3075,3.2982,3.2761,3.269,3.2607,3.2561,3.2521,3.2475,3.2398,3.2398,3.2398,3.2398,3.2398,3.2398,3.2398,3.2398,3.2398,3.2398,3.2398,3.2398,3.2398,3.2398,3.2398,3.2398,3.2398,3.2413,3.2521,3.269,3.329,3.3798,3.4491,3.5168,3.5599,4.7583,4.5003,4.4869,4.4883,4.4791,4.4139,4.4247,4.4791,4.4233,4.3871,4.3776,4.3149,4.29,4.29,4.29,4.29,4.29,4.29,4.29,4.29,4.29,4.29,4.29,4.29,4.29,4.29,4.29,4.29,4.29,4.29,4.2588,4.2114,4.2005,4.1354,4.0309,4.016,3.9766,3.9088,3.8627,3.8315,3.8057,3.7134,3.6619,3.6537,3.6035,3.571,3.571,3.571,3.571,3.5723,3.533,3.5301,3.5742,3.6287,3.6958,3.7526,3.7076,3.702,3.7689,3.7769,3.7615,3.7307,3.7369,3.7353,3.7169,3.6769,3.6676,3.7123,3.6722,3.6615,3.6707,3.6645,3.6492,3.6492,3.5891,3.5445,3.5122,3.4522,3.4214,3.4121,3.3952,3.3952,3.4072,3.3809,3.3681,3.364,3.3326,3.3058,3.3023,3.2675,3.2413,3.2398,3.2398,3.2398,3.2398,3.2398,3.2398,3.2398,3.2398,3.2398,3.2398,3.2398,3.2398,3.2398,3.2398,3.2398,3.2398,3.2444,3.2536,3.2829,3.3306,3.3829,3.4383,3.4922,3.546,4.8416,4.5941,4.604,4.5982,4.5837,4.5373,4.5436,4.5627,4.4762,4.4312,4.4139,4.3328,4.29,4.29,4.29,4.29,4.29,4.29,4.29,4.29,4.29,4.29,4.29,4.29,4.29,4.29,4.29,4.29,4.29,4.2887,4.2697,4.2385,4.2331,4.1869,4.092,4.0621,4.0228,3.9631,3.9061,3.8735,3.8559,3.7786,3.7175,3.6931,3.6578,3.6185,3.5805,3.5913,3.594,3.571,3.533,3.5104,3.5079,3.5321,3.5726,3.5988,3.591,3.5974,3.6615,3.698,3.6969,3.6661,3.6892,3.6953,3.6584,3.6492,3.6492,3.6492,3.6492,3.6492,3.6507,3.6492,3.6492,3.6492,3.6138,3.5753,3.5476,3.4876,3.466,3.4675,3.4599,3.4506,3.4488,3.421,3.4145,3.4025,3.369,3.3419,3.3295,3.3044,3.2782,3.2536,3.2398,3.2398,3.2398,3.2398,3.2398,3.2398,3.2398,3.2398,3.2398,3.2398,3.2398,3.2398,3.2398,3.2398,3.2398,3.2398,3.249,3.2906,3.3367,3.3798,3.4321,3.4999,3.5507,4.7955,4.6148,4.6643,4.6512,4.6075,4.6599,4.6512,4.5837,4.4869,4.4406,4.4139,4.3341,4.29,4.29,4.29,4.29,4.29,4.29,4.29,4.29,4.29,4.29,4.29,4.29,4.29,4.29,4.29,4.29,4.29,4.29,4.29,4.2819,4.2778,4.2561,4.1842,4.1381,4.0743,4.0106,3.9549,3.9251,3.921,3.8654,3.8111,3.7582,3.7351,3.6809,3.6076,3.6171,3.6171,3.5737,3.5533,3.5221,3.4774,3.4173,3.4163,3.4482,3.438,3.4905,3.5524,3.6285,3.6553,3.6522,3.6538,3.6492,3.6507,3.6492,3.6492,3.6492,3.6492,3.6492,3.6492,3.6492,3.6492,3.6492,3.6399,3.6138,3.5614,3.5045,3.5091,3.5322,3.4983,3.4614,3.4796,3.4229,3.3891,3.3863,3.3796,3.364,3.3652,3.3567,3.3121,3.2829,3.2582,3.2398,3.2398,3.2398,3.2398,3.2398,3.2398,3.2398,3.2398,3.2398,3.2398,3.2398,3.2398,3.2398,3.2398,3.2398,3.2659,3.3167,3.3537,3.3814,3.4352,3.5076,3.5245,4.9246,4.76,4.7748,4.7436,4.6976,4.754,4.7451,4.6784,4.5764,4.4869,4.4233,4.3341,4.29,4.29,4.29,4.29,4.29,4.29,4.29,4.29,4.29,4.29,4.29,4.29,4.29,4.29,4.29,4.29,4.29,4.29,4.29,4.29,4.2887,4.2588,4.2005,4.1422,4.0811,4.0187,3.9604,3.9305,3.921,3.8749,3.8369,3.8152,3.7379,3.6795,3.6334,3.6076,3.5669,3.5126,3.5058,3.4787,3.4312,3.4014,3.419,3.4598,3.4909,3.5316,3.5932,3.6389,3.6553,3.6492,3.6553,3.6492,3.6492,3.6492,3.6492,3.6492,3.6492,3.6492,3.6492,3.6492,3.6492,3.6492,3.6492,3.6399,3.6215,3.6107,3.6061,3.6168,3.5999,3.5876,3.566,3.5316,3.5004,3.5197,3.4799,3.4263,3.4306,3.3906,3.3398,3.3106,3.2844,3.2567,3.2398,3.2398,3.2398,3.2398,3.2398,3.2398,3.2398,3.2398,3.2398,3.2398,3.2398,3.2398,3.2398,3.2398,3.289,3.3321,3.3367,3.3552,3.446,3.5183,3.4953,4.9922,4.8864,4.9137,4.8698,4.7915,4.8368,4.8057,4.7048,4.5764,4.4854,4.4139,4.3328,4.29,4.29,4.29,4.29,4.29,4.29,4.29,4.29,4.29,4.29,4.29,4.29,4.29,4.29,4.29,4.29,4.29,4.29,4.29,4.29,4.29,4.2575,4.2005,4.1422,4.0811,4.0187,3.9617,3.9305,3.9264,3.8979,3.8654,3.8464,3.7867,3.7582,3.7026,3.6185,3.5547,3.5276,3.5181,3.4936,3.4329,3.4262,3.4358,3.4582,3.5178,3.5838,3.6271,3.6895,3.7215,3.6984,3.6907,3.6753,3.6569,3.6492,3.6492,3.6492,3.6492,3.6492,3.6492,3.6492,3.6492,3.6492,3.6492,3.6492,3.6492,3.6461,3.6492,3.6492,3.6476,3.6353,3.6138,3.5749,3.5735,3.5737,3.5014,3.4814,3.4737,3.4183,3.3752,3.3506,3.3413,3.3244,3.2936,3.2829,3.2521,3.2475,3.2398,3.2398,3.2398,3.2398,3.2398,3.2398,3.2398,3.2398,3.2398,3.249,3.2813,3.309,3.309,3.3721,3.4752,3.5322,3.5029,5.0297,4.9728,5.0343,4.9735,4.8561,4.8844,4.8075,4.6624,4.513,4.4312,4.3965,4.3245,4.2887,4.29,4.29,4.29,4.29,4.29,4.29,4.29,4.29,4.29,4.29,4.29,4.29,4.29,4.29,4.29,4.29,4.29,4.29,4.2846,4.2833,4.2521,4.1924,4.1327,4.0743,4.0187,3.9604,3.9332,3.9305,3.921,3.8993,3.8681,3.8559,3.803,3.7161,3.6293,3.5683,3.5696,3.571,3.5411,3.4911,3.4861,3.4726,3.4521,3.5437,3.6141,3.6445,3.7436,3.8119,3.7643,3.76,3.7369,3.6984,3.6815,3.6707,3.6722,3.6553,3.6507,3.6492,3.6492,3.6492,3.6492,3.6492,3.6492,3.6492,3.6492,3.6492,3.6492,3.6492,3.6168,3.5815,3.5569,3.5538,3.6045,3.5414,3.523,3.5153,3.4876,3.4414,3.4029,3.4014,3.406,3.369,3.3321,3.289,3.2582,3.2444,3.2398,3.2398,3.2398,3.2398,3.2398,3.2398,3.2398,3.2398,3.2567,3.2813,3.3275,3.3567,3.4429,3.5337,3.5568,3.5491,5.0297,4.9697,4.9835,4.895,4.7744,4.8115,4.7109,4.4961,4.4499,4.3871,4.3245,4.297,4.2887,4.29,4.29,4.29,4.29,4.29,4.29,4.29,4.29,4.29,4.29,4.29,4.29,4.29,4.29,4.29,4.29,4.29,4.29,4.286,4.2534,4.2141,4.1883,4.1015,4.0363,4.0092,3.959,3.9332,3.9305,3.9305,3.9224,3.9007,3.8383,3.7351,3.6361,3.5859,3.5723,3.571,3.5696,3.5615,3.552,3.5466,3.5372,3.5353,3.5635,3.6265,3.6867,3.7426,3.7819,3.8288,3.8292,3.8231,3.8092,3.7492,3.7307,3.7184,3.683,3.6522,3.6492,3.6492,3.6492,3.6492,3.6492,3.6492,3.6492,3.6492,3.6492,3.6492,3.6492,3.6445,3.6245,3.5799,3.5799,3.6061,3.5922,3.563,3.5491,3.5368,3.5045,3.4583,3.4506,3.4475,3.3921,3.3537,3.3121,3.2936,3.2829,3.2813,3.2798,3.2659,3.2752,3.2613,3.2398,3.2398,3.2398,3.249,3.2675,3.3352,3.4075,3.4814,3.5445,3.5722,3.5999,5.0297,4.9697,4.9697,4.8727,4.7354,4.7437,4.6254,4.4476,4.379,4.3328,4.2984,4.29,4.29,4.29,4.29,4.29,4.29,4.29,4.29,4.29,4.29,4.29,4.29,4.29,4.29,4.29,4.29,4.29,4.29,4.29,4.29,4.2887,4.2534,4.21,4.1652,4.0892,4.0336,3.9807,3.9495,3.9305,3.9305,3.9305,3.9305,3.9088,3.8193,3.7161,3.67,3.5995,3.5778,3.571,3.571,3.571,3.571,3.571,3.571,3.5762,3.6206,3.6764,3.7418,3.7955,3.8446,3.8934,3.8985,3.8769,3.8462,3.7892,3.7554,3.7369,3.6953,3.6492,3.6492,3.6492,3.6492,3.6492,3.6492,3.6492,3.6492,3.6492,3.6492,3.6492,3.6492,3.6492,3.6307,3.6014,3.6045,3.6307,3.5845,3.5568,3.5522,3.543,3.5445,3.5168,3.5045,3.4768,3.4152,3.369,3.3321,3.3321,3.349,3.3567,3.3675,3.346,3.3229,3.2906,3.2536,3.2413,3.2413,3.249,3.2829,3.3721,3.4475,3.5076,3.5614,3.6061,3.6276,5.0048,4.9343,4.9173,4.8177,4.6888,4.6512,4.5524,4.4101,4.3245,4.2984,4.29,4.29,4.29,4.29,4.29,4.29,4.29,4.29,4.29,4.29,4.29,4.29,4.29,4.29,4.29,4.29,4.29,4.29,4.29,4.29,4.29,4.2846,4.2588,4.1991,4.1286,4.0825,4.0241,3.9468,3.9359,3.9305,3.9305,3.9305,3.9264,3.8884,3.8125,3.7419,3.6958,3.6293,3.571,3.571,3.571,3.571,3.571,3.571,3.571,3.571,3.6364,3.7158,3.7941,3.8707,3.9259,3.9557,3.9677,3.9431,3.8908,3.8415,3.8092,3.7692,3.7323,3.6676,3.6522,3.6492,3.6492,3.6492,3.6492,3.6492,3.6492,3.6492,3.6492,3.6492,3.6492,3.6492,3.6492,3.6353,3.643,3.6415,3.5938,3.5614,3.5599,3.5599,3.566,3.5676,3.5537,3.5322,3.4752,3.4137,3.3737,3.3783,3.4044,3.4198,3.4337,3.406,3.366,3.3013,3.2675,3.2598,3.2475,3.2428,3.3013,3.406,3.466,3.5029,3.5645,3.6368,3.6492,4.8741,4.7542,4.6756,4.5776,4.4883,4.4705,4.4171,4.3259,4.297,4.2887,4.29,4.29,4.29,4.29,4.29,4.29,4.29,4.29,4.29,4.29,4.29,4.29,4.29,4.29,4.29,4.29,4.29,4.29,4.29,4.29,4.29,4.2683,4.2059,4.1408,4.0974,4.0228,3.9794,3.9386,3.9305,3.9305,3.9305,3.9292,3.9115,3.8722,3.8016,3.7419,3.6809,3.6171,3.571,3.571,3.571,3.571,3.571,3.571,3.571,3.5857,3.636,3.7112,3.7951,3.8767,3.9576,4.0163,4.0293,4.0309,3.9985,3.9493,3.8939,3.8616,3.7938,3.7138,3.6553,3.6584,3.6507,3.6507,3.6492,3.6522,3.6538,3.6584,3.6661,3.6769,3.6676,3.6492,3.6492,3.6492,3.6492,3.6492,3.6276,3.6091,3.6091,3.6061,3.6045,3.6045,3.5999,3.5753,3.543,3.4799,3.4321,3.4368,3.4537,3.4645,3.4691,3.4491,3.4075,3.369,3.3213,3.2952,3.2782,3.2567,3.3177,3.4164,3.4596,3.4922,3.5737,3.6492,3.6492,4.8872,4.7234,4.6667,4.5674,4.4499,4.4312,4.3776,4.2984,4.29,4.29,4.29,4.29,4.29,4.29,4.29,4.29,4.29,4.29,4.29,4.29,4.29,4.29,4.29,4.29,4.29,4.29,4.29,4.29,4.29,4.29,4.29,4.2778,4.2249,4.1761,4.1164,4.0635,3.9861,3.9522,3.9305,3.9305,3.9305,3.9305,3.9088,3.8817,3.8288,3.7704,3.7107,3.6497,3.6022,3.5791,3.571,3.571,3.571,3.571,3.571,3.5777,3.6163,3.6702,3.7434,3.8264,3.9,3.9763,4.0231,4.0455,4.037,3.9893,3.9416,3.8928,3.8616,3.7756,3.7111,3.7016,3.6846,3.6569,3.6538,3.6707,3.6907,3.6999,3.7153,3.7246,3.6923,3.6707,3.6492,3.6492,3.6492,3.6492,3.6492,3.6492,3.6492,3.6415,3.6307,3.6184,3.6045,3.5568,3.5476,3.5306,3.4968,3.5029,3.5122,3.523,3.5337,3.5291,3.506,3.4722,3.4198,3.3521,3.3198,3.3059,3.3686,3.4284,3.4796,3.5337,3.603,3.6492,3.6492,4.9027,4.7189,4.7016,4.6033,4.467,4.4392,4.3857,4.3245,4.297,4.29,4.29,4.29,4.29,4.29,4.29,4.29,4.29,4.29,4.29,4.29,4.29,4.29,4.29,4.29,4.29,4.29,4.29,4.29,4.29,4.29,4.29,4.2792,4.2792,4.2209,4.1259,4.0784,4.0228,3.9671,3.9305,3.9305,3.9305,3.9305,3.9305,3.9251,3.8722,3.8152,3.7704,3.6917,3.6388,3.6022,3.5818,3.571,3.571,3.571,3.579,3.5937,3.6097,3.6531,3.7218,3.8264,3.9233,3.9763,4.0231,4.0385,4.0447,4.0047,3.9462,3.8839,3.865,3.84,3.7851,3.7679,3.7461,3.7184,3.7046,3.7092,3.7523,3.7754,3.7892,3.7738,3.7261,3.7047,3.6908,3.6492,3.6492,3.6492,3.6492,3.6492,3.6492,3.6492,3.6399,3.6245,3.5953,3.5322,3.5276,3.5707,3.5584,3.5691,3.583,3.5984,3.6138,3.6261,3.5922,3.5476,3.4829,3.4183,3.3844,3.3706,3.4198,3.4706,3.5168,3.5676,3.6245,3.6476,3.6492,4.7965,4.7118,4.6314,4.5779,4.5403,4.4684,4.4219,4.3951,4.3122,4.2887,4.2887,4.2873,4.2846,4.29,4.29,4.29,4.29,4.29,4.29,4.29,4.29,4.29,4.29,4.29,4.29,4.29,4.29,4.29,4.29,4.29,4.286,4.2778,4.2398,4.1774,4.1177,4.0879,3.9956,3.9454,3.9332,3.9305,3.9305,3.9305,3.9305,3.9156,3.8762,3.8369,3.807,3.7243,3.6524,3.6429,3.5954,3.5737,3.571,3.571,3.6097,3.6702,3.7372,3.7875,3.8101,3.9015,3.9763,3.999,4.0385,4.0455,4.0478,4.0416,3.9985,3.9488,3.9406,3.9072,3.855,3.8381,3.8288,3.82,3.8,3.8108,3.8369,3.8415,3.8554,3.8539,3.8154,3.7758,3.7545,3.6986,3.6492,3.6492,3.6492,3.6492,3.6492,3.6492,3.6292,3.6091,3.6138,3.5599,3.5368,3.5768,3.5999,3.6199,3.6322,3.6492,3.6492,3.6492,3.6492,3.5999,3.5383,3.4997,3.4704,3.4704,3.4831,3.5048,3.5477,3.5938,3.6353,3.6476,3.663,4.7905,4.7204,4.6755,4.5958,4.4946,4.4499,4.3965,4.345,4.2699,4.2575,4.2765,4.2507,4.2548,4.2833,4.29,4.29,4.29,4.29,4.29,4.29,4.29,4.29,4.29,4.29,4.29,4.29,4.2887,4.29,4.2887,4.2833,4.2765,4.2466,4.2412,4.2032,4.1259,4.1191,4.0635,4.0011,3.9522,3.9319,3.9305,3.9305,3.9305,3.9278,3.8708,3.8464,3.8111,3.727,3.6646,3.6497,3.6035,3.5951,3.6243,3.648,3.678,3.751,3.8339,3.8473,3.8324,3.9305,3.9763,4.0005,4.0231,4.0455,4.0524,4.0509,4.0447,4.0078,4.0062,3.9711,3.9244,3.9066,3.879,3.8719,3.8703,3.8923,3.9016,3.9077,3.9139,3.9108,3.9,3.8531,3.8039,3.7542,3.6892,3.6492,3.6492,3.6492,3.6492,3.6492,3.6215,3.583,3.5968,3.5999,3.5876,3.5984,3.6199,3.6368,3.6368,3.6492,3.6492,3.6492,3.6492,3.6492,3.6091,3.5783,3.5566,3.5382,3.5277,3.5523,3.5815,3.623,3.6584,3.6969,3.7076,4.8172,4.7548,4.7563,4.655,4.5024,4.4762,4.4228,4.3324,4.2385,4.2345,4.2781,4.2562,4.2521,4.2806,4.29,4.29,4.29,4.29,4.29,4.29,4.29,4.29,4.29,4.29,4.29,4.286,4.2643,4.2724,4.2765,4.2575,4.2249,4.2195,4.2181,4.1896,4.1422,4.1123,4.0743,3.9875,3.9481,3.9319,3.9305,3.9305,3.9197,3.8993,3.8681,3.8342,3.807,3.7433,3.689,3.6768,3.632,3.6332,3.693,3.6906,3.7386,3.8175,3.8928,3.916,3.9088,3.9463,3.955,3.9778,4.0005,4.0524,4.0524,4.0524,4.0524,4.0432,4.0447,4.0171,3.9902,3.9711,3.961,3.9349,3.918,3.9379,3.9616,3.9662,3.9754,3.9801,3.957,3.9016,3.8542,3.8031,3.743,3.6692,3.6492,3.6492,3.6492,3.6492,3.6322,3.5984,3.6076,3.6261,3.6215,3.623,3.6445,3.6492,3.6492,3.6492,3.6492,3.6492,3.6492,3.6492,3.6492,3.6338,3.6014,3.5891,3.5753,3.5984,3.623,3.6492,3.683,3.7277,3.7667,4.8521,4.8521,4.849,4.7789,4.6842,4.6048,4.5252,4.4357,4.2716,4.2433,4.2995,4.2916,4.2712,4.2819,4.2778,4.2792,4.2846,4.2887,4.2846,4.2846,4.2887,4.2846,4.2792,4.2861,4.2861,4.2739,4.2657,4.2725,4.2644,4.212,4.2275,4.2588,4.195,4.1367,4.1145,4.1041,4.0776,4.0117,3.9815,3.9645,3.9557,3.9414,3.9251,3.8755,3.845,3.8179,3.7663,3.7476,3.7465,3.7424,3.6935,3.6982,3.7607,3.7494,3.7979,3.8928,3.9305,3.9621,3.992,4.0076,4.0301,4.0385,4.0455,4.0524,4.0524,4.0524,4.0524,4.0524,4.0524,4.0439,4.0378,4.0363,4.0148,4.0025,3.9825,3.9917,4.0139,4.0216,4.0309,4.0447,4.0078,3.9385,3.8769,3.8246,3.7446,3.6676,3.6492,3.6492,3.6492,3.6492,3.6492,3.6368,3.6384,3.6445,3.6445,3.6492,3.6492,3.6492,3.6492,3.6492,3.6492,3.6492,3.6492,3.6492,3.6492,3.6492,3.6538,3.6492,3.6446,3.6415,3.6615,3.7047,3.7497,3.8042,3.8419,4.7661,4.7226,4.7211,4.7175,4.7174,4.6411,4.5595,4.4617,4.3222,4.235,4.2256,4.2467,4.253,4.2345,4.2344,4.2344,4.2398,4.2751,4.2602,4.2575,4.2629,4.2629,4.2603,4.2805,4.2948,4.2736,4.2768,4.3045,4.3234,4.2406,4.2665,4.2711,4.1824,4.1443,4.1252,4.1495,4.1463,4.131,4.1071,4.0887,4.0816,4.0374,4.0003,3.9809,3.8678,3.8586,3.8537,3.7937,3.7965,3.7937,3.77,3.8047,3.8504,3.8335,3.8811,3.9763,3.992,4.0146,4.037,4.0524,4.0524,4.0524,4.0455,4.0524,4.0524,4.0524,4.0524,4.0524,4.0524,4.0524,4.0455,4.0439,4.0393,4.0524,4.0524,4.0524,4.0524,4.0524,4.0524,4.0509,4.0108,3.9539,3.8939,3.8354,3.7492,3.6676,3.6584,3.6492,3.6492,3.6492,3.6492,3.6492,3.6492,3.6492,3.6492,3.6492,3.6492,3.6492,3.6492,3.6492,3.6492,3.6492,3.6492,3.6492,3.6569,3.6724,3.6848,3.7033,3.711,3.7141,3.7404,3.7807,3.8308,3.8763,3.9328,4.6873,4.6314,4.6203,4.6297,4.6345,4.5958,4.5291,4.4383,4.2883,4.1879,4.1188,4.1696,4.1934,4.1746,4.1734,4.1988,4.2084,4.2222,4.2275,4.2342,4.245,4.241,4.2564,4.2817,4.3282,4.3005,4.3113,4.3444,4.3574,4.2951,4.2868,4.2696,4.2185,4.1773,4.2006,4.2265,4.2545,4.2498,4.2266,4.1816,4.1579,4.1065,4.0236,4.0037,3.9033,3.845,3.8478,3.8137,3.8253,3.8328,3.8382,3.8837,3.9194,3.9526,3.9793,4.0231,4.0524,4.0524,4.0524,4.0524,4.0524,4.0524,4.0524,4.0524,4.0524,4.0524,4.0524,4.0524,4.0524,4.0524,4.0524,4.0524,4.0524,4.0524,4.0524,4.0524,4.0524,4.0524,4.0524,4.0509,4.0124,3.9847,3.9216,3.8616,3.7707,3.6907,3.6553,3.6492,3.6492,3.6492,3.6492,3.6492,3.6492,3.6492,3.6492,3.6553,3.6584,3.6492,3.6492,3.6492,3.6492,3.6662,3.6647,3.6554,3.6708,3.6939,3.7265,3.7561,3.7717,3.7794,3.8387,3.9185,3.9125,3.9629,4.0566,4.6269,4.6284,4.5996,4.5425,4.4818,4.4649,4.4477,4.3965,4.241,4.1211,4.0763,4.1146,4.1356,4.1295,4.1466,4.1896,4.2182,4.1851,4.1838,4.2342,4.2663,4.2508,4.2679,4.3124,4.3531,4.3488,4.3536,4.3573,4.3787,4.3075,4.286,4.2865,4.2669,4.2371,4.269,4.2295,4.2117,4.2087,4.2097,4.1828,4.1492,4.1171,4.0416,3.9989,3.9269,3.8743,3.8328,3.8732,3.8788,3.8589,3.8895,3.9402,3.9903,3.9673,3.9879,4.0385,4.0455,4.0524,4.0524,4.0524,4.0524,4.0524,4.0524,4.0524,4.0524,4.0524,4.0524,4.0524,4.0524,4.0524,4.0524,4.0524,4.0524,4.0524,4.0524,4.0524,4.0524,4.0524,4.0524,4.0524,4.0462,4.0247,3.9585,3.8862,3.7954,3.7215,3.6692,3.6538,3.6645,3.6846,3.6984,3.6876,3.6907,3.6892,3.6907,3.6738,3.6676,3.6569,3.6786,3.7157,3.7342,3.7679,3.7479,3.694,3.7388,3.8204,3.8257,3.8184,3.8779,3.9548,4.0054,4.0625,4.0435,4.0617,4.1629,4.5209,4.4592,4.4512,4.4178,4.3886,4.4563,4.474,4.4499,4.3596,4.2529,4.1723,4.2221,4.2052,4.1755,4.1942,4.2292,4.2596,4.3038,4.3053,4.2668,4.294,4.2969,4.3098,4.342,4.3856,4.3649,4.3673,4.3957,4.4346,4.3657,4.372,4.3859,4.3608,4.3483,4.3429,4.3299,4.362,4.3212,4.3091,4.2893,4.256,4.1694,4.1074,4.0926,4.0081,3.9252,3.8716,3.9408,3.9442,3.9232,3.9684,4.0043,4.0314,4.0036,4.0176,4.0455,4.0524,4.0524,4.0524,4.0524,4.0524,4.0524,4.0524,4.0524,4.0524,4.0524,4.0524,4.0524,4.0524,4.0524,4.0524,4.0524,4.0524,4.0524,4.0524,4.0524,4.0524,4.0524,4.0524,4.0524,4.0493,4.0201,3.9677,3.9508,3.8739,3.8308,3.7908,3.7384,3.7323,3.7677,3.7892,3.7631,3.7538,3.7461,3.7384,3.7465,3.7266,3.7186,3.7869,3.8665,3.8845,3.8738,3.899,3.8842,3.9225,3.9548,3.9774,4.0079,4.08,4.1491,4.1864,4.2074,4.1967,4.225,4.2964,4.397,4.3359,4.3265,4.3307,4.3374,4.4127,4.4308,4.4218,4.392,4.314,4.2237,4.2578,4.2441,4.2008,4.2235,4.2806,4.2948,4.2934,4.3332,4.2962,4.3353,4.325,4.3322,4.3817,4.4067,4.4003,4.4174,4.4542,4.4542,4.4603,4.4511,4.445,4.4541,4.4006,4.3837,4.3991,4.4173,4.3683,4.3409,4.3162,4.2554,4.1921,4.1413,4.1174,4.0666,3.9948,3.9904,4.001,4.0182,4.0133,4.0223,4.0455,4.0524,4.0524,4.0524,4.0524,4.0524,4.0524,4.0524,4.0524,4.0524,4.0524,4.0524,4.0524,4.0524,4.0524,4.0524,4.0524,4.0524,4.0524,4.0524,4.0524,4.0524,4.0524,4.0524,4.0524,4.0524,4.0524,4.0524,4.0524,4.0493,4.0155,3.9955,3.9924,3.9662,3.9431,3.92,3.8616,3.8061,3.8338,3.8554,3.8308,3.8138,3.8077,3.8175,3.8447,3.8232,3.7831,3.8718,3.9927,3.972,3.9632,4.0161,4.0652,4.058,4.0787,4.1527,4.2121,4.2407,4.2871,4.3389,4.3538,4.3571,4.3656,4.393,4.268,4.2665,4.2404,4.2671,4.318,4.3254,4.3155,4.2864,4.301,4.2725,4.2073,4.2237,4.231,4.2184,4.2199,4.2718,4.323,4.2725,4.2953,4.3245,4.3599,4.3434,4.3672,4.4204,4.4343,4.4542,4.4572,4.4572,4.4572,4.4572,4.4572,4.4387,4.431,4.3943,4.3804,4.3774,4.3771,4.331,4.3079,4.2663,4.2037,4.1607,4.125,4.101,4.0593,4.0141,3.9994,4.0117,4.0056,4.0011,4.0091,4.0385,4.0524,4.0524,4.0524,4.0524,4.0524,4.0524,4.0524,4.0524,4.0524,4.0524,4.0524,4.0524,4.0524,4.0524,4.0524,4.0524,4.0524,4.0524,4.0524,4.0524,4.0524,4.0524,4.0524,4.0524,4.0524,4.0524,4.0524,4.0524,4.0524,4.0385,4.0355,4.0324,4.017,4.0108,3.9847,3.957,3.9093,3.8893,3.9016,3.88,3.8677,3.8727,3.8955,3.9421,3.9499,3.9193,4.0113,4.1059,4.0745,4.0828,4.1585,4.1981,4.1617,4.1863,4.2722,4.3263,4.3606,4.4047,4.4236,4.4179,4.3956,4.3927,4.4063,4.1896,4.176,4.1669,4.1773,4.1998,4.2447,4.291,4.3394,4.3596,4.3329,4.2739,4.3536,4.3364,4.3046,4.3615,4.3927,4.4004,4.402,4.4035,4.4143,4.3929,4.4128,4.4282,4.4297,4.4526,4.4541,4.4526,4.451,4.4572,4.4556,4.391,4.3325,4.3694,4.3402,4.3171,4.3094,4.2725,4.2448,4.2325,4.2001,4.154,4.114,4.1001,4.0986,4.0678,4.0277,4.0301,4.0301,4.0231,4.0301,4.037,4.0524,4.0524,4.0524,4.0524,4.0524,4.0524,4.0524,4.0524,4.0524,4.0524,4.0524,4.0524,4.0524,4.0524,4.0524,4.0524,4.0524,4.0524,4.0524,4.0524,4.0524,4.0524,4.0524,4.0524,4.0524,4.0524,4.0524,4.0524,4.0524,4.0524,4.0524,4.0524,4.0509,4.0385,4.0478,4.0432,4.017,3.9985,3.9724,3.9658,3.9457,3.9437,3.9534,4.0044,4.0529,4.0649,4.0847,4.1648,4.2253,4.2349,4.2568,4.3233,4.3333,4.3009,4.3266,4.3923,4.4243,4.4236,4.4367,4.444,4.444,4.4333,4.4243,4.4215,4.1204,4.122,4.113,4.128,4.1595,4.1971,4.2406,4.2859,4.3512,4.3539,4.3283,4.399,4.4174,4.3864,4.4266,4.4419,4.4251,4.4067,4.3959,4.3838,4.3972,4.3666,4.3771,4.3879,4.3895,4.4048,4.4249,4.4264,4.4402,4.4172,4.3587,4.2833,4.3079,4.2725,4.2417,4.2202,4.1832,4.1586,4.1417,4.1386,4.1109,4.0786,4.094,4.1001,4.0662,4.0586,4.0524,4.0524,4.0524,4.0524,4.0524,4.0524,4.0524,4.0524,4.0524,4.0524,4.0524,4.0524,4.0524,4.0524,4.0524,4.0524,4.0524,4.0524,4.0524,4.0524,4.0524,4.0524,4.0524,4.0524,4.0524,4.0524,4.0524,4.0524,4.0524,4.0524,4.0524,4.0524,4.0524,4.0524,4.0524,4.0524,4.0524,4.0524,4.0524,4.0524,4.0524,4.0447,4.0339,4.0247,4.0365,4.0462,4.0401,4.0473,4.1075,4.1486,4.1646,4.2029,4.2891,4.3468,4.372,4.3804,4.3962,4.4221,4.4361,4.4519,4.4429,4.4519,4.4497,4.4536,4.4502,4.448,4.4446,4.4361,4.4384,4.0543,4.0906,4.0761,4.0917,4.1505,4.158,4.1445,4.1475,4.2769,4.3395,4.3213,4.3808,4.3884,4.3655,4.3899,4.3853,4.3609,4.3455,4.3271,4.3196,4.2978,4.2852,4.2806,4.2694,4.3279,4.3479,4.3679,4.3956,4.4172,4.3925,4.3371,4.2586,4.2509,4.2171,4.1617,4.1524,4.1247,4.094,4.1047,4.1155,4.077,4.0555,4.0524,4.057,4.0539,4.0524,4.0524,4.0524,4.0524,4.0524,4.0524,4.0524,4.0524,4.0524,4.0524,4.0524,4.0524,4.0524,4.0524,4.0524,4.0524,4.0524,4.0524,4.0524,4.0524,4.0524,4.0524,4.0524,4.0524,4.0524,4.0524,4.0524,4.0524,4.0524,4.0524,4.0524,4.0524,4.0524,4.0524,4.0524,4.0524,4.0524,4.0524,4.0524,4.0524,4.0524,4.0524,4.0524,4.0715,4.0715,4.0789,4.115,4.1064,4.1111,4.1821,4.2248,4.2577,4.3098,4.3887,4.4097,4.4028,4.4215,4.4536,4.457,4.457,4.457,4.4553,4.457,4.4485,4.4299,4.4316,4.4468,4.4468,4.4367,4.4265,3.9881,4.0254,4.0167,4.0187,4.0239,4.0706,4.0573,4.0023,4.1355,4.1987,4.2108,4.2394,4.2621,4.2712,4.2787,4.2727,4.259,4.2558,4.2332,4.2345,4.2218,4.2077,4.2349,4.2283,4.2863,4.3387,4.3618,4.3633,4.3694,4.3479,4.2956,4.1971,4.1817,4.1494,4.0955,4.0893,4.0755,4.0486,4.0678,4.0832,4.0601,4.0524,4.0524,4.0524,4.0524,4.0524,4.0524,4.0524,4.0524,4.0524,4.0524,4.0524,4.0524,4.0524,4.0524,4.0524,4.0524,4.0524,4.0524,4.0524,4.0524,4.0524,4.0524,4.0524,4.0524,4.0524,4.0524,4.0524,4.0524,4.0524,4.0524,4.0524,4.0524,4.0524,4.0524,4.0524,4.0524,4.0524,4.0524,4.0524,4.0524,4.0524,4.0524,4.0524,4.0524,4.0524,4.0524,4.0662,4.1158,4.1276,4.1024,4.128,4.1362,4.1641,4.2458,4.2921,4.3119,4.3564,4.4266,4.4328,4.4265,4.4401,4.457,4.457,4.457,4.457,4.457,4.457,4.4451,4.4248,4.4248,4.4451,4.4282,4.413,4.3978,3.9839,4.0207,4.0137,3.998,3.9914,4.016,3.9956,3.9589,4.0202,4.0576,4.0858,4.1444,4.182,4.1895,4.191,4.176,4.1714,4.1592,4.1501,4.1498,4.1359,4.126,4.1393,4.1643,4.1976,4.2556,4.331,4.3494,4.3248,4.3017,4.2494,4.1417,4.114,4.097,4.0524,4.0524,4.0524,4.0539,4.0524,4.0524,4.0524,4.0524,4.0524,4.0524,4.0524,4.0524,4.0524,4.0524,4.0524,4.0524,4.0524,4.0524,4.0524,4.0524,4.0524,4.0524,4.0524,4.0524,4.0524,4.0524,4.0524,4.0524,4.0524,4.0524,4.0524,4.0524,4.0524,4.0524,4.0524,4.0524,4.0524,4.0524,4.0524,4.0524,4.0524,4.0524,4.0524,4.0524,4.0524,4.0524,4.0524,4.0524,4.0524,4.0524,4.0593,4.1024,4.0972,4.1209,4.1641,4.1965,4.1706,4.1641,4.1965,4.2537,4.3486,4.3663,4.3597,4.4145,4.457,4.4502,4.4418,4.4485,4.457,4.457,4.457,4.457,4.457,4.457,4.4519,4.4367,4.4384,4.4468,4.4164,4.3792,4.3694,4.0207,4.0455,4.0331,4.0207,3.9996,3.9854,3.964,3.9439,3.9454,3.9469,3.9649,4.0843,4.1354,4.1489,4.1578,4.1355,4.11,4.0766,4.0674,4.0507,4.0217,4.0375,4.0426,4.0445,4.1051,4.1991,4.2956,4.2956,4.274,4.2633,4.2155,4.0924,4.0586,4.0524,4.0524,4.0524,4.0524,4.0524,4.0524,4.0524,4.0524,4.0524,4.0524,4.0524,4.0524,4.0524,4.0524,4.0524,4.0524,4.0524,4.0524,4.0524,4.0524,4.0524,4.0524,4.0524,4.0524,4.0524,4.0524,4.0524,4.0524,4.0524,4.0524,4.0524,4.0524,4.0524,4.0524,4.0524,4.0524,4.0524,4.0524,4.0524,4.0524,4.0524,4.0524,4.0524,4.0524,4.0524,4.0524,4.0524,4.0524,4.0524,4.0524,4.0524,4.0851,4.1292,4.1722,4.2094,4.2395,4.2645,4.2645,4.2724,4.297,4.368,4.4236,4.4293,4.403,4.4236,4.457,4.457,4.457,4.457,4.457,4.457,4.457,4.457,4.457,4.457,4.4519,4.4231,4.4147,4.3961,4.342,4.3132,4.3237,4.0137,4.0347,4.0401,4.0261,3.9996,3.994,3.9711,3.9424,3.9424,3.9424,3.9499,3.9559,3.9856,3.9886,3.9871,3.9888,4.0156,3.9914,3.9751,3.9601,3.9787,3.9798,3.991,4.0081,4.0634,4.1571,4.2575,4.2987,4.2494,4.2448,4.2202,4.1309,4.0647,4.0539,4.0524,4.0524,4.0524,4.0524,4.0524,4.0524,4.0524,4.0524,4.0524,4.0524,4.0524,4.0524,4.0524,4.0524,4.0524,4.0524,4.0524,4.0524,4.0524,4.0524,4.0524,4.0524,4.0524,4.0524,4.0524,4.0524,4.0524,4.0524,4.0524,4.0524,4.0524,4.0524,4.0524,4.0524,4.0524,4.0524,4.0524,4.0524,4.0524,4.0524,4.0524,4.0524,4.0524,4.0524,4.0524,4.0524,4.0524,4.0524,4.0524,4.0677,4.095,4.139,4.1738,4.2237,4.3152,4.3333,4.3469,4.3663,4.3914,4.3781,4.3839,4.4367,4.4367,4.4553,4.457,4.457,4.457,4.457,4.457,4.457,4.457,4.457,4.457,4.4468,4.3893,4.3589,4.3572,4.3352,4.2794,4.2647,4.2908]},{"header":{"parameterUnit":"m.s-1","parameterCategory":1,"la1":31.0,"la2":29.5877,"lo1":-88.7671,"lo2":-86.6584,"dy":0.0162,"dx":0.0185,"nx":115,"ny":88,"refTime":"2023-03-05T06:00:00:Z","depth":0,"parameterNumber":3,"parameterNumberName":"V-component_of_WINDS"},"data":[0.0,0.0,0.0,0.0,0.0,0.0,0.0,0.0,0.0,0.0,0.0,0.0,0.0,0.0,0.0,0.0,0.0,0.0,0.0,0.0,0.0,0.0,0.0,0.0,0.0,0.0,0.0,0.0,0.0,0.0,0.0,0.0,0.0,0.0,0.0,0.0,0.0,0.0,0.0,0.0,0.0,0.0,0.0,0.0,0.0,0.0,0.0,0.0,0.0,0.0,0.0,0.0,0.0,0.0,0.0,0.0,0.0,0.0,0.0,0.0,0.0,0.0,0.0,0.0,0.0,0.0,0.0,0.0,0.0,0.0,0.0,0.0,0.0,0.0,0.0,0.0,0.0,0.0,0.0,0.0,0.0,0.0,0.0,0.0,0.0,0.0,0.0,0.0,0.0,0.0,0.0,0.0,0.0,0.0,0.0,0.0,0.0,0.0,0.0,0.0,0.0,0.0,0.0,0.0,0.0,0.0,0.0,0.0,0.0,0.0,0.0,0.0,0.0,0.0,0.0,0.0,0.0,0.0,0.0,0.0,0.0,0.0,0.0,0.0,0.0,0.0,0.0,0.0,0.0,0.0,0.0,0.0,0.0,0.0,0.0,0.0,0.0,0.0,0.0,0.0,0.0,0.0,0.0,0.0,0.0,0.0,0.0,0.0,0.0,0.0,0.0,0.0,0.0,0.0,0.0,0.0,0.0,0.0,0.0,0.0,0.0,0.0,0.0,0.0,0.0,0.0,0.0,0.0,0.0,0.0,0.0,0.0,0.0,0.0,0.0,0.0,0.0,0.0,0.0,0.0,0.0,0.0,0.0,0.0,0.0,0.0,0.0,0.0,0.0,0.0,0.0,0.0,0.0,0.0,0.0,0.0,0.0,0.0,0.0,0.0,0.0,0.0,0.0,0.0,0.0,0.0,0.0,0.0,0.0,0.0,0.0,0.0,0.0,0.0,0.0,0.0,0.0,0.0,0.0,0.0,0.0,0.0,0.0,0.0,0.0,0.0,0.0,0.0,0.0,0.0,0.0,0.0,0.0,0.0,0.0,0.0,0.0,0.0,0.0,0.0,0.0,0.0,0.0,0.0,0.0,0.0,0.0,0.0,0.0,0.0,0.0,0.0,0.0,0.0,0.0,0.0,0.0,0.0,0.0,0.0,0.0,0.0,0.0,0.0,0.0,0.0,0.0,0.0,0.0,0.0,0.0,0.0,0.0,0.0,0.0,0.0,0.0,0.0,0.0,0.0,0.0,0.0,0.0,0.0,0.0,0.0,0.0,0.0,0.0,0.0,0.0,0.0,0.0,0.0,0.0,0.0,0.0,0.0,0.0,0.0,0.0,0.0,0.0,0.0,0.0,0.0,0.0,0.0,0.0,0.0,0.0,0.0,0.0,0.0,0.0,0.0,0.0,0.0,0.0,0.0,0.0,0.0,0.0,0.0,0.0,0.0,0.0,0.0,0.0,0.0,0.0,0.0,0.0,0.0,0.0,0.0,0.0,0.0,0.0,0.0,0.0,0.0,0.0,0.0,0.0,0.0,0.0,0.0,0.0,0.0,0.0,0.0,0.0,0.0,0.0,0.0,0.0,0.0,0.0,0.0,0.0,0.0,0.0,0.0,0.0,0.0,0.0,0.0,0.0,0.0,0.0,0.0,0.0,0.0,0.0,0.0,0.0,0.0,0.0,0.0,0.0,0.0,0.0,0.0,0.0,0.0,0.0,0.0,0.0,0.0,0.0,0.0,0.0,0.0,0.0,0.0,0.0,0.0,0.0,0.0,0.0,0.0,0.0,0.0,0.0,0.0,0.0,0.0,0.0,0.0,0.0,0.0,0.0,0.0,0.0,0.0,0.0,0.0,0.0,0.0,0.0,0.0,0.0,0.0,0.0,0.0,0.0,0.0,0.0,0.0,0.0,0.0,0.0,0.0,0.0,0.0,0.0,0.0,0.0,0.0,0.0,0.0,0.0,0.0,0.0,0.0,0.0,0.0,0.0,0.0,0.0,0.0,0.0,0.0,0.0,0.0,0.0,0.0,0.0,0.0,0.0,0.0,0.0,0.0,0.0,0.0,0.0,0.0,0.0,0.0,0.0,0.0,0.0,0.0,0.0,0.0,0.0,0.0,0.0,0.0,0.0,0.0,0.0,0.0,0.0,0.0,0.0,0.0,0.0,0.0,0.0,0.0,0.0,0.0,0.0,0.0,0.0,0.0,0.0,0.0,0.0,0.0,0.0,0.0,0.0,0.0,0.0,0.0,0.0,0.0,0.0,0.0,0.0,0.0,0.0,0.0,0.0,0.0,0.0,0.0,0.0,0.0,0.0,0.0,0.0,0.0,0.0,0.0,0.0,0.0,0.0,0.0,0.0,0.0,0.0,0.0,0.0,0.0,0.0,0.0,0.0,0.0,0.0,0.0,0.0,0.0,0.0,0.0,0.0,0.0,0.0,0.0,0.0,0.0,0.0,0.0,0.0,0.0,0.0,0.0,0.0,0.0,0.0,0.0,0.0,0.0,0.0,0.0,0.0,0.0,0.0,0.0,0.0,0.0,0.0,0.0,0.0,0.0,0.0,0.0,0.0,0.0,0.0,0.0,0.0,0.0,0.0,0.0,0.0,0.0,0.0,0.0,0.0,0.0,0.0,0.0,0.0,0.0,0.0,0.0,0.0,0.0,0.0,0.0,0.0,0.0,0.0,0.0,0.0,0.0,0.0,0.0,0.0,0.0,0.0,0.0,0.0,0.0,0.0,0.0,0.0,0.0,0.0,0.0,0.0,0.0,0.0,0.0,0.0,0.0,0.0,0.0,0.0,0.0,0.0,0.0,0.0,0.0,0.0,0.0,0.0,0.0,0.0,0.0,0.0,0.0,0.0,0.0,0.0,0.0,0.0,0.0,0.0,0.0,0.0,0.0,0.0,0.0,0.0,0.0,0.0,0.0,0.0,0.0,0.0,0.0,0.0,0.0,0.0,0.0,0.0,0.0,0.0,0.0,0.0,0.0,0.0,0.0,0.0,0.0,0.0,0.0,0.0,0.0,0.0,0.0,0.0,0.0,0.0,0.0,0.0,0.0,0.0,0.0,0.0,0.0,0.0,0.0,0.0,0.0,0.0,0.0,0.0,0.0,0.0,0.0,0.0,0.0,0.0,0.0,0.0,0.0,0.0,0.0,0.0,0.0,0.0,0.0,0.0,0.0,0.0,0.0,0.0,0.0,0.0,0.0,0.0,0.0,0.0,0.0,0.0,0.0,0.0,0.0,0.0,0.0,0.0,0.0,0.0,0.0,0.0,0.0,0.0,0.0,0.0,0.0,0.0,0.0,0.0,0.0,0.0,0.0,0.0,0.0,0.0,0.0,0.0,0.0,0.0,0.0,0.0,0.0,0.0,0.0,0.0,0.0,0.0,0.0,0.0,0.0,0.0,0.0,0.0,0.0,0.0,0.0,0.0,0.0,0.0,0.0,0.0,0.0,0.0,0.0,0.0,0.0,0.0,0.0,0.0,0.0,0.0,0.0,0.0,0.0,0.0,0.0,0.0,0.0,0.0,0.0,0.0,0.0,0.0,0.0,0.0,0.0,0.0,0.0,0.0,0.0,0.0,0.0,0.0,0.0,0.0,0.0,0.0,0.0,0.0,0.0,0.0,0.0,0.0,0.0,0.0,0.0,0.0,0.0,0.0,0.0,0.0,0.0,0.0,0.0,0.0,0.0,0.0,0.0,0.0,0.0,0.0,0.0,0.0,0.0,0.0,0.0,0.0,0.0,0.0,0.0,0.0,0.0,0.0,0.0,0.0,0.0,0.0,0.0,0.0,0.0,0.0,0.0,0.0,0.0,0.0,0.0,0.0,0.0,0.0,0.0,0.0,0.0,0.0,0.0,0.0,0.0,0.0,0.0,0.0,0.0,0.0,0.0,0.0,0.0,0.0,0.0,0.0,0.0,0.0,0.0,0.0,0.0,0.0,0.0,0.0,0.0,0.0,0.0,0.0,0.0,0.0,0.0,0.0,0.0,0.0,0.0,0.0,0.0,0.0,0.0,0.0,0.0,0.0,0.0,0.0,0.0,0.0,0.0,0.0,0.0,0.0,0.0,0.0,0.0,0.0,0.0,0.0,0.0,0.0,0.0,0.0,0.0,0.0,0.0,0.0,0.0,0.0,0.0,0.0,0.0,0.0,0.0,0.0,0.0,0.0,0.0,0.0,0.0,0.0,0.0,0.0,0.0,0.0,0.0,0.0,0.0,0.0,0.0,0.0,0.0,0.0,0.0,0.0,0.0,0.0,0.0,-0.0474,0.0,0.0,0.0,0.0,0.0,0.0,0.0,0.0,0.0,0.0,0.0,0.0,0.0,0.0,0.0,0.0,0.0,0.0,0.0,0.0,0.0,0.0,0.0,0.0,0.0,0.0,0.0,0.0,0.0,0.0,0.0,0.0,0.0,0.0,0.0,0.0,0.0,0.0,0.0,0.0,0.0,0.0,0.0,0.0,0.0,0.0,0.0,0.0,0.0,0.0,0.0,0.0,0.0,0.0,0.0,0.0,0.0,0.0,0.0,0.0,0.0,0.0,0.0,0.0,0.0,0.0,0.0,0.0,0.0,0.0,0.0,0.0,0.0,0.0,0.0,0.0,0.0,0.0,0.0,0.0,0.0,0.0,0.0,0.0,0.0,0.0,0.0,0.0,0.0,0.0,0.0,0.0,0.0,0.0,0.0,0.0,0.0,0.0,0.0,0.0,0.0,0.0,0.0,0.0,0.0,0.0,0.0,0.0,0.0,0.0,-0.1143,-0.1099,-0.0974,-0.0646,-0.0152,0.0,0.0,0.0,0.0,0.0,0.0,0.0,0.0,0.0,0.0,0.0,0.0,0.0,0.0,0.0,0.0,0.0,0.0,0.0,0.0,0.0,0.0,0.0,0.0,0.0,0.0,0.0,0.0,0.0,0.0,0.0,0.0,0.0,0.0,0.0,0.0,0.0,0.0,0.0,0.0,0.0,0.0,0.0,0.0,0.0,0.0,0.0,0.0,0.0,0.0,0.0,0.0,0.0,0.0,0.0,0.0,0.0,0.0,0.0,0.0,0.0,0.0,0.0,0.0,0.0,0.0,0.0,0.0,0.0,0.0,0.0,0.0,0.0,0.0,0.0,0.0,0.0,0.0,0.0,0.0,0.0,0.0,0.0,0.0,0.0,0.0,0.0,0.0,0.0,0.0,0.0,0.0,0.0,0.0,0.0,0.0,0.0,0.0,0.0,0.0,0.0,0.0,0.0,0.0,0.0,0.0,0.0,0.0,0.0,0.0,0.0,0.0,-0.1062,-0.0562,0.0162,0.0,0.0,0.0,0.0,0.0,0.0,0.0,0.0,0.0,0.0,0.0,0.0,0.0,0.0,0.0,0.0,0.0,0.0,0.0,0.0,0.0,0.0,0.0,0.0,0.0,0.0,0.0,0.0,0.0,0.0,0.0,0.0,0.0,0.0,0.0,0.0,0.0,0.0,0.0,0.0,0.0,0.0,0.0,0.0,0.0,0.0,0.0,0.0,0.0,0.0,0.0,0.0,0.0,0.0,0.0,0.0,0.0,0.0,0.0,0.0,0.0,0.0,0.0,0.0,0.0,0.0,0.0,0.0,0.0,0.0,0.0,0.0,0.0,0.0,0.0,0.0,0.0,0.0,0.0,0.0,0.0,0.0,0.0,0.0,0.0,0.0,0.0,0.0,0.0,0.0,0.0,0.0,0.0,0.0,0.0,0.0,0.0,0.0,0.0,0.0,0.0,0.0,0.0,0.0,0.0,0.0,0.0,0.0,0.0,0.0,-0.1202,-0.1378,-0.1071,0.0,0.0399,0.0,0.0,0.0,0.0,0.0,0.0,0.0,0.0,0.0,0.0,0.0,0.0,0.0,0.0,0.0,0.0,0.0,0.0,0.0,0.0,0.0,0.0,0.0,0.0,0.0,0.0,0.0,0.0,0.0,0.0,0.0,0.0,0.0,0.0,0.0,0.0,0.0,0.0,0.0,0.0,0.0,0.0,0.0,0.0,0.0,0.0,0.0,0.0,0.0,0.0,0.0,0.0,0.0,0.0,0.0,0.0,0.0,0.0,0.0,0.0,0.0,0.0,0.0,0.0,0.0,0.0,0.0,0.0,0.0,0.0,0.0,0.0,0.0,0.0,0.0,0.0,0.0,0.0,0.0,0.0,0.0,0.0,0.0,0.0,0.0,0.0,0.0,0.0,0.0,0.0,0.0,0.0,0.0,0.0,0.0,0.0,0.0,0.0,0.0,0.0,0.0,0.0,0.0,0.0,0.0,0.0,0.0,0.0,0.0,0.0,-0.0758,-0.0962,-0.0522,0.0093,0.0,0.0,0.0,0.0,0.0,0.0,0.0,0.0,0.0,0.0,0.0,0.0,0.0,0.0,0.0,0.0,0.0,0.0,0.0,0.0,0.0,0.0,0.0,0.0,0.0,0.0,0.0,0.0,0.0,0.0,0.0,0.0,0.0,0.0,0.0,0.0,0.0,0.0,0.0,0.0,0.0,0.0,0.0,0.0,0.0,0.0,0.0,0.0,0.0,0.0,0.0,0.0,0.0,0.0,0.0,0.0,0.0,0.0,0.0,0.0,0.0,0.0,0.0,0.0,0.0,0.0,0.0,0.0,0.0,0.0,0.0,0.0,0.0,0.0,0.0,0.0,0.0,0.0,0.0,0.0,0.0,0.0,0.0,0.0,0.0,0.0,0.0,0.0,0.0,0.0,0.0,0.0,0.0,0.0,0.0,0.0,0.0,0.0,0.0,0.0,0.0,0.0,0.0,0.0,0.0,0.0,0.0,0.0,0.0,0.0,-0.035,-0.0302,-0.0554,-0.0099,0.0335,0.0821,0.0,0.0,0.0,0.0,0.0,0.0,0.0,0.0,0.0,0.0,0.0,0.0,0.0,0.0,0.0,0.0,0.0,0.0,0.0,0.0,0.0,0.0,0.0,0.0,0.0,0.0,0.0,0.0,0.0,0.0,0.0,0.0,0.0,0.0,0.0,0.0,0.0,0.0,0.0,0.0,0.0,0.0,0.0,0.0,0.0,0.0,0.0,0.0,0.0,0.0,0.0,0.0,0.0,0.0,0.0,0.0,0.0,0.0,0.0,0.0,0.0,0.0,0.0,0.0,0.0,0.0,0.0,0.0,0.0,0.0,0.0,0.0,0.0,0.0,0.0,0.0,0.0,0.0,0.0,0.0,0.0,0.0,0.0,0.0,0.0,0.0,0.0,0.0,0.0,0.0,0.0,0.0,0.0,0.0,0.0,0.0,0.0,0.0,0.0,0.0,0.0,0.0,0.0,0.0,0.0,0.0,0.0,0.0,0.0264,0.0154,-0.0,-0.0202,-0.0047,0.0092,0.0,0.0,0.0,0.0,0.0,0.0,0.0,0.0,0.0,0.0,0.0,0.0,0.0,0.0,0.0,0.0,0.0,0.0,0.0,0.0,0.0,0.0,0.0,0.0,0.0,0.0,0.0,0.0,0.0,0.0,0.0,0.0,0.0,0.0,0.0,0.0,0.0,0.0,0.0,0.0,0.0,0.0,0.0,0.0,0.0,0.0,0.0,0.0,0.0,0.0,0.0,0.0,0.0,0.0,0.0,0.0,0.0,0.0,0.0,0.0,0.0,0.0,0.0,0.0,0.0,0.0,0.0,0.0,0.0,0.0,0.0,0.0,0.0,0.0,0.0,0.0,0.0,0.0,0.0,0.0,0.0,0.0,0.0,0.0,0.0,0.0,0.0,0.0,0.0,0.0,0.0,0.0,0.0,0.0,0.0,0.0,0.0,0.0,0.0,0.0,0.0,0.0,0.0,0.0,0.0,0.0,0.0,0.0,0.0,-0.0373,-0.0107,0.0053,0.0209,0.0416,0.0607,0.0,0.0,0.0,0.0,0.0,0.0,0.0,0.0,0.0,0.0,0.0,0.0,0.0,0.0,0.0,0.0,0.0,0.0,0.0,0.0,0.0,0.0,0.0,0.0,0.0,0.0,0.0,0.0,0.0,0.0,0.0,0.0,0.0,0.0,0.0,0.0,0.0,0.0,0.0,0.0,0.0,0.0,0.0,0.0,0.0,0.0,0.0,0.0,0.0,0.0,0.0,0.0,0.0,0.0,0.0,0.0,0.0,0.0,0.0,0.0,0.0,0.0,0.0,0.0,0.0,0.0,0.0,0.0,0.0,0.0,0.0,0.0,0.0,0.0,0.0,0.0,0.0,0.0,0.0,0.0,0.0,0.0,0.0,0.0,0.0,0.0,0.0,0.0,0.0,0.0,0.0,0.0,0.0,0.0,0.0,0.0,0.0,0.0,0.0,0.0,0.0,0.0,0.0,0.0,0.0,0.0,0.0,0.0,0.0,-0.092,0.0,0.0055,0.0163,0.0379,0.0524,0.0,0.0,0.0,0.0,0.0,0.0,0.0,0.0,0.0,0.0,0.0,0.0,0.0,0.0,0.0,0.0,0.0,0.0,0.0,0.0,0.0,0.0,0.0,0.0,0.0,0.0,0.0,0.0,0.0,0.0,0.0,0.0,0.0,0.0,0.0,0.0,0.0,0.0,0.0,0.0,0.0,0.0,0.0,0.0,0.0,0.0,0.0,0.0,0.0,0.0,0.0,0.0,0.0,0.0,0.0,0.0,0.0,0.0,0.0,0.0,0.0,0.0,0.0,0.0,0.0,0.0,0.0,0.0,0.0,0.0,0.0,0.0,0.0,0.0,0.0,0.0,0.0,0.0,0.0,0.0,0.0,0.0,0.0,0.0,0.0,0.0,0.0,0.0,0.0,0.0,0.0,0.0,0.0,0.0,0.0,0.0,0.0,0.0,0.0,0.0,0.0,0.0,0.0,0.0,0.0,0.0,0.0,0.0,-0.1792,-0.1061,-0.0271,0.0054,-0.0335,-0.0264,-0.0152,0.0,0.0,0.0,0.0,0.0,0.0,0.0,0.0,0.0,0.0,0.0,0.0,0.0,0.0,0.0,0.0,0.0,0.0,0.0,0.0,0.0,0.0,0.0,0.0,0.0,0.0,0.0,0.0,0.0,0.0,0.0,0.0,0.0,0.0,0.0,0.0,0.0,0.0,0.0,0.0,0.0,0.0,0.0,0.0,0.0,0.0,0.0,0.0,0.0,0.0,0.0,0.0,0.0,0.0,0.0,0.0,0.0,0.0,0.0,0.0,0.0,0.0,0.0,0.0,0.0,0.0,0.0,0.0,0.0,0.0,0.0,0.0,0.0,0.0,0.0,0.0,0.0,0.0,0.0,0.0,0.0,0.0,0.0,0.0,0.0,0.0,0.0,0.0,0.0,0.0,0.0,0.0,0.0,0.0,0.0,0.0,0.0,0.0,0.0,0.0,0.0,0.0,0.0,0.0,0.0,0.0,0.0,0.0,0.0,0.0861,0.1973,0.2385,0.196,0.0508,0.0,0.0,0.0,0.0,0.0,0.0,0.0,0.0,0.0,0.0,0.0,0.0,0.0,0.0,0.0,0.0,0.0,0.0,0.0,0.0,0.0,0.0,0.0,0.0,0.0,0.0,0.0,0.0,0.0,0.0,0.0,0.0,0.0,0.0,0.0,0.0,0.0,0.0,0.0,0.0,0.0,0.0,0.0,0.0,0.0,0.0,0.0,0.0,0.0,0.0,0.0,0.0,0.0,0.0,0.0,0.0,0.0,0.0,0.0,0.0,0.0,0.0,0.0,0.0,0.0,0.0,0.0,0.0,0.0,0.0,0.0,0.0,0.0,0.0,0.0,0.0,0.0,0.0,0.0,0.0,0.0,0.0,0.0,0.0,0.0,0.0,0.0,0.0,0.0,0.0,0.0,0.0,0.0,0.0,0.0,0.0,0.0,0.0,0.0,0.0,0.0,0.0,0.0,0.0,0.0,0.0,0.0,0.0,0.0,0.0,0.3576,0.4128,0.4215,0.3849,0.1974,0.1209,0.1756,0.0,0.0,0.0,0.0,0.0,0.0,0.0,0.0,0.0,0.0,0.0,0.0,0.0,0.0,0.0,0.0,0.0,0.0,0.0,0.0,0.0,0.0,0.0,0.0,0.0,0.0,0.0,0.0,0.0,0.0,0.0,0.0,0.0,0.0,0.0,0.0,0.0,0.0,0.0,0.0,0.0,0.0,0.0,0.0,0.0,0.0,0.0,0.0,0.0,0.0,0.0,0.0,0.0,0.0,0.0,0.0,0.0,0.0,0.0,0.0,0.0,0.0,0.0,0.0,0.0,0.0,0.0,0.0,0.0,0.0,0.0,0.0,0.0,0.0,0.0,0.0,0.0,0.0,0.0,0.0,0.0,0.0,0.0,0.0,0.0,0.0,0.0,0.0,0.0,0.0,0.0,0.0,0.0,0.0,0.0,0.0,0.0,0.0,0.0,0.0,0.0,0.0,0.0,0.0,0.0,0.0,0.0,0.0,0.6886,0.6209,0.586,0.5681,0.4273,0.3396,0.0,0.0,0.0,0.0,0.0,0.0,0.0,0.0,0.0,0.0,0.0,0.0,0.0,0.0,0.0,0.0,0.0,0.0,0.0,0.0,0.0,0.0,0.0,0.0,0.0,0.0,0.0,0.0,0.0,0.0,0.0,0.0,0.0,0.0,0.0,0.0,0.0,0.0,0.0,0.0,0.0,0.0,0.0,0.0,0.0,0.0,0.0,0.0,0.0,0.0,0.0,0.0,0.0,0.0,0.0,0.0,0.0,0.0,0.0,0.0,0.0,0.0,0.0,0.0,0.0,0.0,0.0,0.0,0.0,0.0,0.0,0.0,0.0,0.0,0.0,0.0,0.0,0.0,0.0,0.0,0.0,0.0,0.0,0.0,0.0,0.0,0.0,0.0,0.0,0.0,0.0,0.0,0.0,0.0,0.0,0.0,0.0,0.0,0.0,0.0,0.0,0.0,0.0,0.0,0.0,0.0,0.0,0.0,0.0,0.8035,1.1119,1.1724,0.9667,0.8312,0.67,0.0,0.0,0.0,0.0,0.0,0.0,0.0,0.0,0.0,0.0,0.0,0.0,0.0,0.0,0.0,0.0,0.0,0.0,0.0,0.0,0.0,0.0,0.0,0.0,0.0,0.0,0.0,0.0,0.0,0.0,0.0,0.0,0.0,0.0,0.0,0.0,0.0,0.0,0.0,0.0,0.0,0.0,0.0,0.0,0.0,0.0,0.0,0.0,0.0,0.0,0.0,0.0,0.0,0.0,0.0,0.0,0.0,0.0,0.0,0.0,0.0,0.0,0.0,0.0,0.0,0.0,0.0,0.0,0.0,0.0,0.0,0.0,0.0,0.0,0.0,0.0,0.0,0.0,0.0,0.0,0.0,0.0,0.0,0.0,0.0,0.0,0.0,0.0,0.0,0.0,0.0,0.0,0.0,0.0,0.0,0.0,0.0,0.0,0.0,0.0,0.0,0.0,0.0,0.0,0.0,0.0,0.0,0.0,0.7859,1.0605,1.4774,1.6329,1.5154,1.2448,0.9709,0.0,0.0,0.0,0.0,0.0,0.0,0.0,0.0,0.0,0.0,0.0,0.0,0.0,0.0,0.0,0.0,0.0,0.0,0.0,0.0,0.0,0.0,0.0,0.0,0.0,0.0,0.0,0.0,0.0,0.0,0.0,0.0,0.0,0.0,0.0,0.0,0.0,0.0,0.0,0.0,0.0,0.0,0.0,0.0,0.0,0.0,0.0,0.0,0.0,0.0,0.0,0.0,0.0,0.0,0.0,0.0,0.0,0.0,0.0,0.0,0.0,0.0,0.0,0.0,0.0,0.0,0.0,0.0,0.0,0.0,0.0,0.0,0.0,0.0,0.0,0.0,0.0,0.0,0.0,0.0,0.0,0.0,0.0,0.0,0.0,0.0,0.0,0.0,0.0,0.0,0.0,0.0,0.0,0.0,0.0,0.0,0.0,0.0,0.0,0.0,0.0,0.0,0.0,0.0,0.0,0.0,0.0,0.0,0.9275,1.399,1.7535,1.9854,2.0642,1.6176,1.2366,0.0,0.0,0.0,0.0,0.0,0.0,0.0,0.0,0.0,0.0,0.0,0.0,0.0,0.0,0.0,0.0,0.0,0.0,0.0,0.0,0.0,0.0,0.0,0.0,0.0,0.0,0.0,0.0,0.0,0.0,0.0,0.0,0.0,0.0,0.0,0.0,0.0,0.0,0.0,0.0,0.0,0.0,0.0,0.0,0.0,0.0,0.0,0.0,0.0,0.0,0.0,0.0,0.0,0.0,0.0,0.0,0.0,0.0,0.0,0.0,0.0,0.0,0.0,0.0,0.0,0.0,0.0,0.0,0.0,0.0,0.0,0.0,0.0,0.0,0.0,0.0,0.0,0.0,0.0,0.0,0.0,0.0,0.0,0.0,0.0,0.0,0.0,0.0,0.0,0.0,0.0,0.0,0.0,0.0,0.0,0.0,0.0,0.0,0.0,0.0,0.0,0.0,0.0,0.0,0.0,0.0,0.0,0.0,1.2032,1.5646,1.9371,2.1467,2.1713,1.7587,1.4179,0.0,0.0,0.0,0.0,0.0,0.0,0.0,0.0,0.0,0.0,0.0,0.0,0.0,0.0,0.0,0.0,0.0,0.0,0.0,0.0,0.0,0.0,0.0,0.0,0.0,0.0,0.0,0.0,0.0,0.0,0.0,0.0,0.0,0.0,0.0,0.0,0.0,0.0,0.0,0.0,0.0,0.0,0.0,0.0,0.0,0.0,0.0,0.0,0.6044,0.0,0.0,0.0,0.0,0.0,0.0,0.0,0.0,0.0,0.0,0.0,0.0,0.0,0.0,0.0,0.0,0.0,0.0,0.0,0.0,0.0,0.0,0.0,0.0,0.0,0.0,0.0,0.0,0.0,0.0,0.0,0.0,0.0,0.0,0.0,0.0,0.0,0.0,0.0,0.0,0.0,0.0,0.0,0.0,0.0,0.0,0.0,0.0,0.0,0.0,0.0,0.0,0.0,0.0,0.0,0.0,0.0,0.0,0.0,1.4615,1.7858,2.1005,2.2724,2.2694,1.9919,1.6811,0.0,0.0,0.0,0.0,0.0,0.0,0.0,0.0,0.0,0.0,0.0,0.0,0.0,0.0,0.0,0.0,0.0,0.0,0.0,0.0,0.0,0.0,0.0,0.0,0.0,0.0,0.0,0.0,0.0,0.0,0.0,0.0,0.0,0.0,0.0,0.0,0.0,0.0,0.0,0.0,0.0,0.0,0.0,0.0,0.0,0.0,0.0,0.0,0.0,0.0,0.0,0.0,0.0,0.0,0.0,0.0,0.0,0.0,0.0,0.0,0.0,0.0,0.0,0.0,0.0,0.0,0.0,0.0,0.0,0.0,0.0,0.0,0.0,0.0,0.0,0.0,0.0,0.0,0.0,0.0,0.0,0.0,0.0,0.0,0.0,0.0,0.0,0.0,0.0,0.0,0.0,0.0,0.0,0.0,0.0,0.0,0.0,0.0,0.0,0.0,0.0,0.0,0.0,0.0,0.0,0.0,0.0,1.3071,1.6733,1.9993,2.2432,2.3706,2.3678,2.2051,1.9374,1.5486,0.0,0.0,0.0,0.0,0.0,0.0,0.0,0.0,0.0,0.0,0.0,0.0,0.0,0.0,0.0,0.0,0.0,0.0,0.0,0.0,0.0,0.0,0.0,0.0,0.0,0.0,0.0,0.0,0.0,0.0,0.0,0.0,0.0,0.0,0.0,0.0,0.0,0.0,0.3503,0.462,0.0,0.0,0.0,0.0,0.0,0.0,0.0,0.0,0.6245,0.0,0.0,0.0,0.0,0.0,0.0,0.0,0.0,0.0,0.0,0.0,0.0,0.0,0.0,0.0,0.0,0.0,0.0,0.0,0.0,0.0,0.0,0.0,0.0,0.0,0.0,0.0,0.0,0.0,0.0,0.0,0.0,0.0,0.0,0.0,0.0,0.0,0.0,0.0,0.0,0.0,0.0,0.0,0.0,0.0,0.0,0.0,0.0,0.0,0.0,0.0,0.0,0.0,0.0,0.0,0.0,1.3148,1.4371,1.7063,2.1375,2.3353,2.4121,2.3689,2.2465,2.0154,1.6777,0.0,0.0,0.0,0.0,0.0,0.0,0.0,0.0,0.0,0.0,0.0,0.0,0.0,0.0,0.0,0.0,0.0,0.0,0.0,0.0,0.0,0.0,0.0,0.0,0.0,0.0,0.0,0.0,0.0,0.0,0.0,0.0,0.0,0.0,0.0,0.0,0.0,0.0,0.0,0.5601,0.6264,0.0,0.0,0.0,0.0,0.0,0.0,0.0,0.0,0.7267,0.0,0.0,0.0,0.0,0.0,0.0,0.0,0.0,0.0,0.0,0.0,0.0,0.0,0.0,0.0,0.0,0.0,0.0,0.0,0.0,0.0,0.0,0.0,0.0,0.0,0.0,0.0,0.0,0.0,0.0,0.0,0.0,0.0,0.0,0.0,0.0,0.0,0.0,0.0,0.0,0.0,0.0,0.0,0.0,0.0,0.0,0.0,0.0,0.0,0.0,0.0,0.0,0.0,0.0,0.0,1.2863,1.4571,1.7696,2.2394,2.3816,2.4353,2.4039,2.2424,2.0032,0.0,0.0,0.0,0.0,0.0,0.0,0.0,0.0,0.0,0.0,0.0,0.0,0.0,0.0,0.0,0.0,0.0,0.0,0.0,0.0,0.0,0.0,0.0,0.0,0.0,0.0,0.0,0.0,0.0,0.0,0.0,0.0,0.0,0.0,0.0,0.0,0.0,0.0,0.0,0.0,0.6519,0.74,0.7629,0.0,0.0,0.0,0.0,0.0,0.0,0.8406,0.8268,0.0,0.0,0.0,0.0,0.0,0.0,0.0,0.0,0.0,0.0,0.0,0.0,0.0,0.0,0.0,0.0,0.0,0.0,0.0,0.0,0.0,0.0,0.0,0.0,0.0,0.0,0.0,0.0,0.0,0.0,0.0,0.0,0.0,0.0,0.0,0.0,0.0,0.0,0.0,0.0,0.0,0.0,0.0,0.0,0.0,0.0,0.0,0.0,0.0,0.0,0.0,0.0,0.0,0.0,0.0,1.2064,1.5009,1.8653,2.2988,2.4015,2.4426,2.4332,2.2264,1.9515,0.0,0.0,0.0,0.0,0.0,0.0,0.0,0.0,0.0,0.0,0.0,0.0,0.0,0.0,0.0,0.0,0.0,0.0,0.0,0.0,0.0,0.0,0.0,0.0,0.0,0.0,0.0,0.0,0.0,0.0,0.0,0.0,0.0,0.0,0.0,0.0,0.0,0.0,0.0,0.0,0.0,0.8437,0.8211,0.9134,0.0,0.0,0.0,0.0,0.8865,0.9341,0.0,0.0,0.0,0.0,0.0,0.0,0.0,0.0,0.0,0.0,0.0,0.0,0.0,0.0,0.0,0.0,0.0,0.0,0.0,0.0,0.0,0.0,0.0,0.0,0.0,0.0,0.0,0.0,0.0,0.0,0.0,0.0,0.0,0.0,0.0,0.0,0.0,0.0,0.0,0.0,0.0,0.0,0.0,0.0,0.0,0.0,0.0,0.0,0.0,0.0,0.0,0.0,0.0,0.0,0.0,0.0,1.265,1.6856,2.0383,2.3075,2.4007,2.4388,2.4397,2.1732,1.9179,0.0,0.0,0.0,0.0,0.0,0.0,0.0,0.0,0.0,0.0,0.0,0.0,0.0,0.0,0.0,0.0,0.0,0.0,0.0,0.0,0.0,0.0,0.0,0.0,0.0,0.0,0.0,0.0,0.0,0.0,0.0,0.0,0.0,0.0,0.0,0.0,0.0,0.0,0.0,0.0,0.0,0.8869,0.8485,0.9809,1.026,0.0,0.0,1.1807,1.0548,1.1512,0.0,0.0,0.0,0.0,0.0,0.0,0.0,0.0,0.0,0.0,0.0,0.0,0.0,0.0,0.0,0.0,0.0,0.0,0.0,0.0,0.0,0.0,0.0,0.0,0.0,0.0,0.0,0.0,0.0,0.0,0.0,0.0,0.0,0.0,0.0,0.0,0.0,0.0,0.0,0.0,0.0,0.0,0.0,0.0,0.0,0.0,0.0,0.0,0.0,0.0,0.0,0.0,0.0,0.0,0.0,1.1019,1.3157,1.7641,2.1209,2.3794,2.4237,2.4472,2.4687,2.1376,1.8603,0.0,0.0,0.0,0.0,0.0,0.0,0.0,0.0,0.0,0.0,0.0,0.0,0.0,0.0,0.0,0.0,0.0,0.0,0.0,0.0,0.0,0.0,0.0,0.0,0.0,0.0,0.0,0.0,0.0,0.0,0.0,0.0,0.0,0.0,0.0,0.0,0.0,0.0,0.0,0.0,0.0,0.0,0.92,1.1092,0.0,0.0,0.0,1.3378,1.1869,0.0,0.0,0.0,0.0,0.0,0.0,0.0,0.0,0.0,0.0,0.0,0.0,0.0,0.0,0.0,0.0,0.0,0.0,0.0,0.0,0.0,0.0,0.0,0.0,0.0,0.0,0.0,0.0,0.0,0.0,0.0,0.0,0.0,0.0,0.0,0.0,0.0,0.0,0.0,0.0,0.0,0.0,0.0,0.0,0.0,0.0,0.0,0.0,0.0,0.0,0.0,0.0,0.0,0.0,0.0,0.0,0.0,1.386,1.834,2.1984,2.4569,2.4467,2.4498,2.4803,2.147,0.0,0.0,0.0,0.0,0.0,0.0,0.0,0.0,0.0,0.0,0.0,0.0,0.0,0.0,0.0,0.0,0.0,0.0,0.0,0.0,0.0,0.0,0.0,0.0,0.0,0.0,0.0,0.2105,0.0,0.0,0.0,0.0,0.0,0.0,0.0,0.0,0.0,0.0,0.0,0.0,0.0,0.0,1.1001,0.9946,1.2337,1.3759,0.0,0.0,1.4668,1.3142,1.5266,1.5954,0.0,0.0,0.0,0.0,0.0,0.0,0.0,0.0,0.0,0.0,0.0,0.0,0.0,0.0,0.0,0.0,0.0,0.0,0.0,0.0,0.0,0.0,0.0,0.0,0.0,0.0,0.0,0.0,0.0,0.0,0.0,0.0,0.0,0.0,0.0,0.0,0.0,0.0,0.0,0.0,0.0,0.0,0.0,0.0,0.0,0.0,0.0,0.0,0.0,0.0,0.0,0.0,0.0,0.0,0.0,1.4969,1.9273,2.2661,2.4959,2.4528,2.4453,2.4791,2.2258,2.0149,0.0,0.0,0.0,0.0,0.0,0.0,0.0,0.0,0.0,0.0,0.0,0.0,0.0,0.0,0.0,0.0,0.0,0.0,0.0,0.0,0.0,0.0,0.0,0.0,0.0,0.0,0.0,0.0,0.0,0.0,0.0,0.0,0.0,0.0,0.0,0.0,0.0,0.0,0.0,0.0,0.0,1.1819,1.0756,1.3146,1.4681,0.0,0.0,1.5741,1.4572,1.7742,1.8676,1.3835,0.0,0.0,0.0,0.0,0.0,0.0,0.0,0.0,0.0,0.0,0.0,0.0,0.0,0.0,0.0,0.0,0.0,0.0,0.0,0.0,0.0,0.0,0.0,0.0,0.0,0.0,0.0,0.0,0.0,0.0,0.0,0.0,0.0,0.0,0.0,0.0,0.0,0.0,0.0,0.0,0.0,0.0,0.0,0.0,0.0,0.0,0.0,0.0,0.0,0.0,0.0,0.0,0.0,1.3631,1.5323,1.9692,2.3017,2.4959,2.4778,2.4728,2.4912,2.2794,2.0878,0.0,0.0,0.0,0.0,0.0,0.0,0.0,0.0,0.0,0.0,0.0,0.0,0.0,0.0,0.0,0.0,0.0,0.0,0.0,0.0,0.0,0.0,0.0,0.0,0.0,0.0,0.0,0.0,0.5066,0.545,0.5536,0.0,0.0,0.0,0.0,0.0,0.0,0.0,0.0,0.0,0.0,1.2968,1.2909,1.4825,0.0,0.0,1.6507,1.6886,1.5121,1.6982,1.7515,1.4046,1.2949,0.0,0.0,0.0,0.0,0.0,0.0,0.0,0.0,0.0,0.0,0.0,0.0,0.0,0.0,0.0,0.0,0.0,0.0,0.0,0.0,0.0,0.0,0.0,0.0,0.0,0.0,0.0,0.0,0.0,0.0,0.0,0.0,0.0,0.0,0.0,0.0,0.0,0.0,0.0,0.0,0.0,0.0,0.0,0.0,0.0,0.0,0.0,0.0,0.0,0.0,0.0,0.0,1.4303,1.5904,2.0059,2.3183,2.5271,2.4888,2.4763,2.4877,2.3201,2.1583,0.0,0.0,0.0,0.0,0.0,0.0,0.0,0.0,0.0,0.0,0.0,0.0,0.0,0.0,0.0,0.0,0.0,0.0,0.0,0.0,0.0,0.0,0.0,0.0,0.0,0.0,0.0,0.0,0.5859,0.5922,0.5592,0.0,0.0,0.0,0.0,0.0,0.0,0.0,0.0,0.0,0.0,1.384,1.3892,1.5367,1.6289,1.5928,1.6578,1.6691,1.5638,1.6377,1.6378,1.4319,0.0,0.0,0.0,0.0,0.0,0.0,0.0,0.0,0.0,0.0,0.0,0.0,0.0,0.0,0.0,0.0,0.0,0.0,0.0,0.0,0.0,0.0,0.0,0.0,0.0,0.0,0.0,0.0,0.0,0.0,0.0,0.0,0.0,0.0,0.0,0.0,0.0,0.0,0.0,0.0,0.0,0.0,0.0,0.0,0.0,0.0,0.0,0.0,0.0,0.0,0.0,0.0,0.0,1.472,1.6893,2.0398,2.3327,2.5547,2.474,2.4476,2.4877,2.3488,2.2285,2.1457,0.0,0.0,0.0,0.0,0.0,0.0,0.0,0.0,0.0,0.0,0.0,0.0,0.0,0.0,0.0,0.0,0.0,0.0,0.0,0.0,0.0,0.0,0.0,0.0,0.0,0.0,0.3574,0.4998,0.6095,0.0,0.0,0.0,0.0,0.0,0.0,0.0,0.0,0.0,0.0,1.3248,1.4182,1.3416,1.4319,1.5325,1.5426,1.5039,1.5017,1.6178,1.6395,1.6,0.0,0.0,0.0,0.0,0.0,0.0,0.0,0.0,0.0,0.0,0.0,0.0,0.0,0.0,0.0,0.0,0.0,0.0,0.0,0.0,0.0,0.0,0.0,0.0,0.0,0.0,0.0,0.9571,0.9096,0.0,0.0,0.0,0.0,0.0,0.0,0.0,0.0,0.0,0.0,0.0,1.5141,1.711,0.0,0.0,0.0,0.0,0.0,0.0,0.0,0.0,0.0,0.0,0.0,0.0,1.6392,1.8289,2.1355,2.4032,2.6129,2.5555,2.5279,2.5429,2.4613,2.3327,2.1581,0.0,0.0,0.0,0.0,0.0,0.0,0.0,0.0,0.0,0.0,0.0,0.0,0.0,0.0,0.0,0.0,0.0,0.0,0.0,0.0,0.0,0.0,0.0,0.0,0.0,0.6716,0.0,0.0,0.0,0.0,0.0,0.0,0.0,0.0,0.0,0.0,0.0,1.1381,1.2312,1.3766,1.4676,1.4633,1.5668,1.6348,0.0,0.0,0.0,0.0,0.0,0.0,0.0,0.0,0.0,0.0,0.0,0.0,0.0,0.0,1.3367,1.1951,1.2397,1.2956,1.253,0.0,0.0,0.0,0.0,0.0,0.0,0.0,0.0,0.0,0.0,0.0,0.0,0.0,0.0,0.0,0.0,1.1508,0.0,0.0,0.0,0.0,0.0,0.0,0.0,0.0,1.5283,1.7269,1.8403,2.0473,2.1296,0.0,2.0336,1.8638,0.0,0.0,0.0,0.0,0.0,0.0,0.0,0.0,1.7504,1.9092,2.1903,2.4418,2.6335,2.5784,2.552,2.5681,2.4682,2.3379,2.1696,2.0417,1.9891,0.0,0.0,0.0,0.0,0.0,0.0,0.0,0.0,0.0,0.0,0.0,0.0,0.0,0.0,0.0,0.0,0.0,0.0,0.0,0.0,0.0,0.0,0.0,0.7943,0.0,0.0,0.0,0.0,0.0,0.0,0.0,0.0,0.0,0.9333,1.117,1.2557,1.2767,1.4163,1.4965,1.4702,0.0,0.0,0.0,0.0,0.0,0.0,0.0,1.4585,1.5085,1.4841,1.523,1.7339,1.7849,1.7862,1.7519,0.0,0.0,1.4861,1.5141,1.5625,1.5286,1.5341,1.5588,1.5928,1.6252,1.6578,0.0,0.0,0.0,0.0,0.0,0.0,0.0,0.0,1.408,1.3647,0.0,1.2838,0.0,0.0,0.0,0.0,0.0,0.0,0.0,0.0,1.8306,2.0138,2.1597,2.2283,2.2472,2.2399,2.2662,2.2162,2.0795,1.7369,0.0,0.0,0.0,0.0,0.0,0.0,1.8267,1.9613,2.2122,2.4464,2.6381,2.5486,2.5199,2.5647,2.3775,2.2524,2.1953,2.1364,2.1073,2.1028,1.9582,0.0,0.0,0.0,0.0,0.0,0.0,0.0,0.0,0.0,0.0,0.0,0.0,0.0,0.0,0.0,0.0,0.0,0.0,0.0,0.0,0.8309,0.0,0.0,0.0,0.0,0.0,0.0,0.0,0.0,0.0,0.0,1.013,1.1912,1.3152,1.265,0.0,0.0,0.0,0.0,1.4579,1.3894,1.3886,1.4307,1.4927,1.4379,1.4909,1.7713,0.0,0.0,2.0114,1.9737,1.9052,1.8687,2.0154,2.0302,1.6947,1.6756,1.6986,1.6986,1.7398,1.7668,1.7706,1.8076,1.7997,2.3349,0.0,0.0,0.0,0.0,1.8099,1.8266,1.8197,1.9158,1.9028,1.8218,1.8048,0.0,0.0,0.0,0.0,0.0,0.0,1.7074,1.8905,2.1399,2.3082,2.4096,2.5467,2.5863,2.5479,2.5135,2.4578,2.3816,2.1763,1.9582,1.7402,0.0,0.0,0.0,0.0,2.0822,2.1723,2.353,2.5314,2.6978,2.6003,2.5555,2.5704,2.4097,2.3155,2.2949,2.2446,2.2218,2.2265,2.1057,0.0,0.0,0.0,0.0,0.0,0.0,0.0,0.0,0.0,0.0,0.0,0.0,0.0,0.0,0.0,0.0,0.0,0.0,0.0,1.0656,1.1112,1.0977,0.0,0.0,0.0,0.0,0.0,0.0,0.0,0.0,0.0,1.168,1.316,1.4214,0.0,0.0,1.4495,1.3592,1.4624,1.5524,1.5588,0.0,0.0,0.0,1.7233,1.7651,1.8706,2.0083,2.1368,2.1914,2.255,2.2876,2.2931,2.331,2.3115,2.2037,2.155,2.1443,2.1498,2.1848,2.2358,2.2677,2.3018,2.315,2.6771,2.406,2.2441,2.1547,2.1127,2.1755,2.1918,2.1805,2.2391,2.2329,2.1664,2.1272,2.0094,1.8243,1.7618,0.0,0.0,0.0,1.9913,2.2071,2.3664,2.5087,2.6384,2.7644,2.794,2.7385,2.7016,2.6346,2.5397,2.4238,2.2761,2.1086,0.0,0.0,1.8517,2.1047,2.2742,2.334,2.5038,2.6417,2.7185,2.6232,2.5716,2.5681,2.4235,2.3442,2.349,2.3006,2.2754,2.2831,2.2101,2.1585,0.0,0.0,0.0,0.0,0.0,0.0,0.0,0.0,0.0,0.0,0.0,1.0609,1.0089,0.0,0.0,0.0,1.2079,1.2947,1.3314,1.3103,0.0,0.0,0.0,0.0,0.0,0.0,0.0,1.2258,1.4166,1.5032,1.3814,1.4797,1.5462,1.5196,1.5419,1.5356,1.4633,0.0,1.6567,1.6707,1.7121,1.7569,1.7886,1.8796,1.9982,2.1323,2.2706,2.3601,2.3778,2.4292,2.4634,2.4718,2.4718,2.4541,2.4355,2.4247,2.4186,2.3941,2.4288,2.4869,2.5269,2.5639,2.5831,2.9744,2.9497,2.7811,2.6476,2.5464,2.5475,2.5262,2.4968,2.447,2.4038,2.3635,2.3094,2.2388,2.1654,2.0384,0.0,0.0,2.1248,2.2478,2.5254,2.5326,2.6481,2.8459,2.9101,2.9101,2.8484,2.8408,2.7614,2.6199,2.531,2.4824,2.4732,2.2422,2.0815,2.0317,2.2678,2.4194,2.4624,2.6534,2.7452,2.7279,2.6366,2.5858,2.5923,2.4342,2.3629,2.3874,2.3179,2.2936,2.3107,2.2967,2.2816,2.249,0.0,0.0,0.0,0.0,0.0,0.0,0.0,0.0,0.0,0.0,0.0,0.0,0.0,0.0,0.0,1.3476,0.0,1.6079,1.4522,0.0,0.0,0.0,1.2976,1.3419,1.4736,1.5307,1.4712,0.0,0.0,1.6242,0.0,1.705,1.7258,1.7418,1.7195,1.6396,1.7042,1.753,1.7662,1.7791,1.8043,1.862,1.991,2.1871,2.4429,2.5195,2.5099,2.5135,2.5004,2.4873,2.4849,2.4885,2.4897,2.4873,2.5262,2.5471,2.4783,2.5269,2.5847,2.6112,2.634,2.6417,3.3288,3.2216,3.1357,2.969,2.7626,2.7976,2.781,2.7278,2.7141,2.6723,2.6234,2.5722,2.4819,2.3461,2.2457,2.2548,2.3589,2.3758,2.4916,2.6876,2.7318,2.8274,2.9592,3.0302,3.054,3.0314,2.9362,2.8684,2.8273,2.6816,2.5833,2.5444,2.4979,2.4396,2.3841,2.502,2.5896,2.6382,2.7067,2.7621,2.798,2.7363,2.7162,2.7434,2.5577,2.4814,2.5281,2.4519,2.413,2.4141,2.4103,2.3861,2.3307,2.1699,0.0,0.0,0.0,0.0,0.0,0.0,0.0,0.0,0.0,1.2588,1.2069,0.0,1.4832,0.0,1.5961,1.6875,1.6724,1.6771,0.0,0.0,1.5263,1.5149,1.5667,1.6539,1.6801,1.6063,1.7374,1.8029,1.7184,1.8467,1.9589,1.9889,1.8288,1.7432,1.842,1.834,1.8683,1.9791,2.0272,2.0823,2.1362,2.2442,2.3693,2.5076,2.5289,2.5241,2.5324,2.5194,2.5052,2.5218,2.5397,2.5468,2.5183,2.5935,2.6423,2.6237,2.6441,2.687,2.7308,2.7493,2.7375,3.5063,3.411,3.3781,3.2448,3.0555,2.9804,2.9549,2.9531,2.8959,2.8653,2.857,2.7371,2.6335,2.5497,2.4487,2.4611,2.5662,2.6165,2.7365,2.8942,2.958,3.0325,3.1164,3.133,3.1509,3.1718,3.0188,2.9608,2.982,2.8681,2.7929,2.7656,2.7937,2.8138,2.8016,2.7364,2.7231,2.7758,2.8258,2.8872,2.9504,2.851,2.7802,2.7471,2.5731,2.4825,2.4909,2.4037,2.3626,2.3904,2.3361,2.3315,2.3798,2.1862,2.039,0.0,0.0,0.0,0.0,0.0,0.0,0.0,0.0,0.0,0.0,0.0,1.7597,1.7947,1.8942,1.9232,1.8536,1.8742,1.8574,1.7698,1.7395,1.7311,1.7674,1.8419,1.8551,1.7812,1.8874,1.9457,1.8898,1.9669,2.0787,2.1634,2.0279,1.9485,2.0316,2.0226,2.045,2.149,2.187,2.2274,2.3147,2.3745,2.4409,2.5087,2.5312,2.5312,2.5312,2.5241,2.5241,2.5265,2.5421,2.5529,2.5337,2.5961,2.6476,2.6497,2.6947,2.7459,2.79,2.8111,2.8084,3.6005,3.5409,3.5266,3.4513,3.333,3.1401,3.0906,3.1347,3.0302,3.0179,3.0486,2.837,2.7461,2.7449,2.6462,2.6593,2.7557,2.8075,2.9241,3.0909,3.1415,3.2047,3.2672,3.2189,3.2215,3.2633,3.1035,3.0506,3.0963,3.0431,3.0109,3.0121,3.0622,3.1185,3.1703,2.9617,2.8652,2.8952,2.9817,3.058,3.1237,2.9589,2.8197,2.7186,2.5599,2.459,2.4326,2.3194,2.2829,2.3273,2.217,2.2366,2.4108,2.2034,2.0366,0.0,1.939,0.0,0.0,0.0,0.0,0.0,0.0,0.0,0.0,1.8027,2.0279,2.139,2.1573,2.1429,2.0812,2.0527,2.0256,1.9965,1.9669,1.963,1.9775,2.0333,2.045,1.9756,2.0382,2.0837,2.0672,2.0847,2.1603,2.2681,2.2489,2.2189,2.2307,2.2146,2.2146,2.2776,2.2925,2.3368,2.4036,2.4264,2.4552,2.5158,2.5312,2.5312,2.5312,2.5312,2.5312,2.5312,2.5336,2.5324,2.5312,2.5745,2.6129,2.6274,2.6908,2.7651,2.7973,2.8279,2.851,3.6936,3.575,3.4842,3.4212,3.3888,3.2995,3.2467,3.2127,3.1855,3.1568,3.0956,2.9253,2.8666,2.8976,2.8012,2.79,2.8445,2.8538,2.9379,3.0708,3.0807,3.1536,3.2685,3.2581,3.2581,3.2672,3.1842,3.1551,3.164,3.0966,3.0626,3.0626,3.0889,3.1279,3.1754,0.0,0.0,0.0,3.1624,3.2071,3.1743,3.0126,2.9024,2.8625,2.7015,0.0,2.6366,2.5082,2.4408,2.434,2.3722,0.0,0.0,0.0,0.0,0.0,0.0,0.0,0.0,0.0,0.0,0.0,2.1387,2.0595,1.9413,2.0569,2.1435,2.1583,2.2188,2.2391,2.2082,2.2576,2.2801,2.2587,2.221,2.2015,2.2164,2.2105,2.18,2.1573,2.2328,2.2553,2.1756,2.2968,2.3717,2.3338,2.3801,2.4322,2.4443,2.3243,2.2947,2.4288,2.4576,2.4791,2.5004,2.5087,2.5016,2.5312,2.5312,2.5312,2.5312,2.5312,2.5312,2.5312,2.5312,2.5312,2.5312,2.5733,2.619,2.6683,2.6923,2.716,2.7687,2.8131,2.851,3.7352,0.0,3.5813,3.5391,0.0,3.473,3.4438,3.4159,3.3469,3.28,3.214,3.073,3.026,3.0474,2.9761,2.9714,3.0217,3.0555,3.1169,3.213,3.2384,3.3021,3.3966,3.3404,3.343,3.394,3.3079,3.2774,3.3032,3.2772,3.2746,3.3026,3.3348,3.3892,3.4581,3.4861,3.4125,3.2422,3.3237,3.3443,3.2989,3.1896,3.0856,2.9874,0.0,0.0,0.0,0.0,0.0,0.0,0.0,0.0,0.0,0.0,0.0,2.4367,2.3519,2.3284,2.3885,2.393,2.4216,2.4837,2.4814,2.4062,2.2628,2.3403,2.3991,2.4039,2.4292,2.4223,2.3842,2.4234,2.4223,2.3503,2.321,2.2972,2.2647,2.2767,2.2702,2.2328,2.2925,2.322,2.2713,2.3475,2.4166,2.4093,2.4478,2.4861,2.4981,2.4299,2.4143,2.5028,2.5241,2.5312,2.5312,2.5312,2.5312,2.5312,2.5312,2.5312,2.5312,2.5312,2.5312,2.5312,2.5312,2.5312,2.5336,2.554,2.5793,2.6081,2.6346,2.6695,2.7224,2.7753,2.8114,3.7795,3.7155,3.705,3.6789,3.6423,3.6319,3.6319,3.6309,0.0,0.0,0.0,3.2438,3.2056,3.2007,3.1551,3.1701,3.2167,3.2579,3.3142,3.3892,3.4217,3.477,3.5378,3.4476,3.4515,3.5365,3.4585,3.4446,3.4866,3.4949,3.52,3.5746,3.6111,3.6707,3.7452,3.7741,3.6763,3.4635,3.4743,3.4703,3.4283,3.3512,3.2417,3.0916,2.9864,2.9018,2.8489,2.6878,2.6081,2.6408,2.48,2.3906,2.4033,2.4048,2.457,2.5627,2.5251,2.5349,2.6153,2.6187,2.6519,2.7196,2.7219,2.6564,2.506,2.5721,2.6245,2.6299,2.6051,2.5663,2.5226,2.5242,2.4993,2.3863,2.3745,2.3526,2.301,2.3368,2.3599,2.301,2.3452,2.3818,2.3756,2.3829,2.4047,2.4694,2.4849,2.4921,2.5123,2.5028,2.5028,2.5241,2.5312,2.5312,2.5312,2.5312,2.5312,2.5312,2.5312,2.5312,2.5312,2.5312,2.5312,2.5312,2.5312,2.5312,2.5312,2.5336,2.5348,2.542,2.5709,2.6166,2.6791,2.7272,2.7555,3.8749,3.773,3.722,3.726,3.7612,3.709,3.7181,3.7469,3.575,3.492,3.4819,3.404,3.3785,3.3707,3.3699,3.3674,3.3739,3.3368,3.3796,0.0,3.4448,3.4899,3.5966,3.5822,3.5835,3.5979,3.6293,3.6452,3.6591,3.6932,3.724,3.7236,3.7321,3.737,3.7359,3.7721,3.7433,3.6584,3.5891,3.5287,3.479,3.3236,3.2097,3.1446,3.0631,2.9995,2.9656,2.8336,2.756,2.7456,2.6194,2.5689,2.6016,2.6039,2.6381,2.714,2.699,2.6955,2.7244,2.7256,2.736,2.7429,2.7441,2.7117,2.6336,2.6416,2.6251,2.5483,2.5483,2.5362,2.4894,2.4907,2.4884,2.4826,2.4886,2.4886,2.4791,2.4862,2.4886,2.4778,2.4969,2.4874,2.4611,2.4802,2.4945,2.504,2.5111,2.5241,2.5241,2.5241,2.5312,2.5312,2.5312,2.5312,2.5312,2.5312,2.5312,2.5312,2.5312,2.5312,2.5312,2.5312,2.5312,2.5312,2.5312,2.5312,2.5312,2.5312,2.5456,2.5745,2.5697,2.5793,2.6707,2.7067,2.7392,3.9298,3.8815,3.8527,3.8566,3.8776,3.8187,3.8083,3.8266,3.7078,3.6444,3.6032,3.5443,3.5213,3.52,3.5213,3.5213,3.5188,3.4844,3.5249,3.6022,3.5761,3.6279,3.7277,3.705,3.7063,3.7344,3.7631,3.7731,3.7731,3.7903,3.8165,3.8551,3.8751,3.8792,3.863,3.8513,3.8116,3.7484,3.674,3.6111,3.5592,3.4735,3.3932,3.3023,3.2563,3.2179,3.1769,3.0323,2.9517,2.9429,2.8016,2.7337,2.7413,2.7425,2.7531,2.7684,2.7638,2.7638,2.7708,2.7708,2.7696,2.7708,2.758,2.7358,2.6869,2.6823,2.6469,2.5499,2.553,2.5477,2.5052,2.5052,2.5123,2.5182,2.5253,2.5253,2.53,2.5312,2.5312,2.5277,2.5324,2.5241,2.5123,2.5182,2.5312,2.5241,2.5241,2.5312,2.5312,2.5312,2.5312,2.5312,2.5312,2.5312,2.5312,2.5312,2.5312,2.5312,2.5312,2.5312,2.5312,2.5312,2.5312,2.5312,2.5312,2.5312,2.5312,2.5312,2.5432,2.5516,2.5516,2.5757,2.6622,2.7356,2.7957,3.9716,3.9625,3.9625,3.9695,3.9738,3.9147,3.8884,3.9018,3.8477,3.7989,3.7527,3.6875,3.6665,3.6854,3.6841,3.6854,3.6827,3.6696,3.6896,3.7404,3.727,3.7685,3.8505,3.8247,3.8388,3.8586,3.8883,3.8951,3.8951,3.8901,3.9166,3.9604,3.9996,4.0051,3.9788,3.917,3.8552,3.7906,3.7288,3.6754,3.629,3.615,3.5602,3.4745,3.452,3.4211,3.3676,3.2226,3.1378,3.1303,2.9689,2.8645,2.8474,2.8327,2.8099,2.7962,2.7893,2.7881,2.7962,2.7881,2.7881,2.7962,2.7834,2.7587,2.7231,2.7345,2.6978,2.5969,2.5855,2.5777,2.5409,2.5314,2.5325,2.5336,2.5312,2.5312,2.5312,2.5312,2.5312,2.5312,2.5312,2.5312,2.5312,2.5312,2.5312,2.5312,2.5312,2.5312,2.5312,2.5312,2.5312,2.5312,2.5312,2.5312,2.5312,2.5312,2.5312,2.5312,2.5312,2.5312,2.5312,2.5312,2.5312,2.5312,2.5312,2.5312,2.5312,2.5312,2.5324,2.5372,2.5444,2.5865,2.6935,2.7825,2.845,4.0069,3.9651,3.9664,3.9886,4.0213,3.9628,3.9666,3.9965,3.9397,3.91,3.906,3.8545,3.8595,3.8965,3.8925,3.8925,3.8871,3.8458,3.8526,3.8945,3.8559,3.8627,3.9339,3.9685,3.9685,3.9448,4.0186,4.0584,4.0645,4.051,4.0474,4.0616,4.0602,4.0321,3.9802,3.9184,3.8552,3.7906,3.7288,3.695,3.688,3.636,3.6009,3.5911,3.5349,3.504,3.4899,3.3559,3.28,3.261,3.0714,2.9471,2.9225,2.8621,2.8167,2.8179,2.803,2.7962,2.8099,2.795,2.7973,2.8179,2.8099,2.7873,2.7501,2.8004,2.7837,2.6812,2.6391,2.6304,2.6008,2.5575,2.5385,2.5337,2.5372,2.5312,2.5348,2.5312,2.5312,2.5312,2.5312,2.5312,2.5312,2.5312,2.5312,2.5312,2.5312,2.5312,2.5312,2.5312,2.5312,2.5312,2.5312,2.5312,2.5312,2.5312,2.5312,2.5312,2.5312,2.5312,2.5312,2.5312,2.5312,2.5312,2.5312,2.5312,2.5312,2.5312,2.5312,2.5396,2.5709,2.6346,2.738,2.8102,2.8462,4.0417,4.0618,4.0605,4.0899,4.1293,4.11,4.1031,4.1177,4.0608,4.0532,4.0699,4.0518,4.006,3.9332,3.9658,3.9821,3.9834,3.9916,4.0273,4.0776,4.0515,4.0749,4.1279,4.1501,4.1487,4.1307,4.1722,4.1909,4.1798,4.1457,4.1235,4.1179,4.0884,4.0575,4.0266,3.9353,3.8735,3.8454,3.7484,3.6978,3.6964,3.674,3.6431,3.6079,3.5902,3.5592,3.5064,3.3757,3.2955,3.2854,3.0905,2.9704,2.9549,2.8791,2.8351,2.8351,2.8271,2.8271,2.8351,2.8557,2.8605,2.8375,2.8626,2.8578,2.8088,2.8311,2.8215,2.7855,2.771,2.7303,2.6298,2.6175,2.6139,2.5877,2.5781,2.5769,2.5769,2.5492,2.5312,2.5312,2.5312,2.5312,2.5312,2.5312,2.5312,2.5312,2.5312,2.5312,2.5312,2.5312,2.5312,2.5312,2.5312,2.5312,2.5312,2.5312,2.5312,2.5312,2.5312,2.5312,2.5312,2.5312,2.5312,2.5312,2.5312,2.5312,2.5312,2.5312,2.5324,2.5468,2.6069,2.6767,2.7188,2.7933,2.8402,4.0769,4.1498,4.171,4.2079,4.2501,4.229,4.2234,4.2354,4.1791,4.1714,4.1987,4.1987,4.1349,4.0378,4.0707,4.0885,4.0954,4.1352,4.1727,4.2001,4.1987,4.2196,4.2584,4.2767,4.2739,4.264,4.2739,4.2753,4.2584,4.2331,4.1966,4.1615,4.1165,4.087,4.0603,3.962,3.903,3.8791,3.7779,3.7161,3.7007,3.6978,3.6768,3.636,3.6318,3.6107,3.5658,3.4491,3.3847,3.3847,3.1909,3.0753,3.0455,2.9695,2.9149,2.8814,2.8931,2.8931,2.8826,2.928,2.9352,2.9015,2.9066,2.9066,2.8943,2.8679,2.8667,2.8895,2.8712,2.79,2.689,2.6776,2.6677,2.6394,2.6214,2.6093,2.6045,2.5624,2.5312,2.5312,2.5312,2.5312,2.5312,2.5312,2.5312,2.5312,2.5312,2.5312,2.5312,2.5312,2.5312,2.5312,2.5312,2.5312,2.5312,2.5312,2.5312,2.5312,2.5312,2.5312,2.5312,2.5312,2.5312,2.5312,2.5312,2.5312,2.5312,2.5312,2.5396,2.5673,2.6238,2.6947,2.7248,2.7957,2.839,4.1232,4.2079,4.2582,4.2957,4.345,4.2885,4.3023,4.3328,4.2817,4.2626,4.2579,4.2551,4.257,4.241,4.248,4.2466,4.2438,4.2551,4.2593,4.2593,4.2579,4.2612,4.2612,4.316,4.3174,4.2823,4.3231,4.3188,4.2725,4.3104,4.2781,4.1685,4.1559,4.1264,4.0688,4.0027,3.9437,3.8903,3.8173,3.7583,3.7077,3.7007,3.6964,3.6894,3.6922,3.6866,3.6782,3.6276,3.5863,3.5953,3.4375,3.3282,3.2489,3.1614,3.0589,2.9738,2.981,2.9834,2.9535,2.9822,2.9941,2.9857,2.9129,2.8952,2.9617,2.8979,2.8883,2.9845,2.906,2.83,2.7693,2.7269,2.7002,2.6848,2.643,2.6166,2.6117,2.5661,2.536,2.5312,2.5312,2.5312,2.5312,2.5312,2.5312,2.5312,2.5312,2.5312,2.5312,2.5312,2.5312,2.5312,2.5312,2.5312,2.5312,2.5312,2.5312,2.5312,2.5312,2.5312,2.5312,2.5312,2.5312,2.5312,2.5312,2.5312,2.5312,2.5396,2.554,2.5853,2.6394,2.6947,2.7224,2.8005,2.8438,4.0818,4.167,4.215,4.2444,4.2695,4.3379,4.3873,4.4059,4.3863,4.375,4.375,4.375,4.375,4.375,4.375,4.354,4.3231,4.3568,4.375,4.375,4.375,4.375,4.3778,4.3975,4.3989,4.3835,4.3975,4.3975,4.375,4.361,4.3076,4.2303,4.1812,4.1306,4.0702,4.0083,3.9662,3.9381,3.8454,3.7793,3.7555,3.7189,3.6978,3.6978,3.6978,3.6978,3.6978,3.6402,3.6065,3.6065,3.4768,3.3571,3.2594,3.1267,3.0384,3.0001,2.9749,2.9556,2.9486,2.9869,2.9773,2.9172,2.9414,2.9284,2.9112,2.8739,2.8691,2.9048,2.9468,2.9157,2.8421,2.7992,2.7765,2.7387,2.6959,2.6622,2.6466,2.5877,2.5312,2.5312,2.5312,2.5312,2.5336,2.5312,2.5312,2.5312,2.5312,2.5312,2.5312,2.5312,2.5312,2.5312,2.5312,2.5312,2.5312,2.5312,2.5312,2.5312,2.5312,2.5312,2.5312,2.5312,2.5312,2.5312,2.5312,2.5312,2.5312,2.5336,2.5492,2.5624,2.6214,2.6815,2.7164,2.7861,2.8294,4.1489,4.2248,4.2639,4.2736,4.2929,4.3912,4.4425,4.4425,4.4425,4.4425,4.4411,4.4425,4.4425,4.4425,4.4425,4.4214,4.3849,4.4214,4.4425,4.4425,4.4425,4.4425,4.4425,4.4425,4.4425,4.4411,4.4425,4.4425,4.4383,4.4003,4.3469,4.2865,4.2416,4.1797,4.1053,4.0575,4.0238,3.9704,3.8931,3.8426,3.8187,3.7597,3.7274,3.7245,3.7091,3.6978,3.6978,3.6585,3.6374,3.6228,3.5481,3.4526,3.3542,3.2028,3.0913,3.0349,3.0092,2.9767,2.9532,2.9869,2.9785,2.9124,2.9567,2.9639,2.9039,2.8715,2.8679,2.9,2.918,2.9212,2.8923,2.8607,2.8366,2.7981,2.75,2.7115,2.6836,2.6117,2.5661,2.5576,2.5408,2.5384,2.5492,2.5396,2.5336,2.5312,2.5312,2.5312,2.5312,2.5312,2.5312,2.5312,2.5312,2.5312,2.5312,2.5312,2.5312,2.5312,2.5312,2.5312,2.5312,2.5312,2.5312,2.5312,2.5312,2.5312,2.5312,2.5312,2.5348,2.5384,2.5889,2.6562,2.7067,2.7645,2.8041,4.3264,4.3954,4.4303,4.4021,4.3912,4.4115,4.4317,4.4115,4.4223,4.4209,4.4209,4.4317,4.4425,4.4425,4.4425,4.4397,4.4355,4.4383,4.4425,4.4425,4.4425,4.4425,4.4425,4.4425,4.4425,4.4425,4.4425,4.4425,4.4411,4.4326,4.4017,4.3554,4.3357,4.2654,4.1587,4.1418,4.094,4.0069,3.9676,3.9395,3.8875,3.8187,3.7807,3.7779,3.7288,3.6978,3.6978,3.695,3.6908,3.6908,3.6852,3.6517,3.5209,3.3831,3.2465,3.0947,3.0951,3.0676,2.9774,2.9858,2.9965,2.9713,2.9699,2.9639,2.9532,2.8991,2.8847,2.94,2.9145,2.8691,2.9015,2.8775,2.8498,2.8438,2.7945,2.7452,2.7007,2.6454,2.6093,2.6045,2.5769,2.5612,2.5841,2.5769,2.5481,2.554,2.5361,2.5325,2.5408,2.5372,2.5312,2.5312,2.5312,2.5312,2.5312,2.5312,2.5312,2.5312,2.5312,2.5312,2.5312,2.5312,2.5312,2.5312,2.5312,2.5312,2.5312,2.5324,2.5408,2.554,2.6009,2.6406,2.6947,2.7476,2.7813,4.1182,4.215,4.2208,4.2222,4.2319,4.2999,4.2916,4.2319,4.2902,4.33,4.3396,4.4101,4.4425,4.4425,4.4425,4.4425,4.4425,4.4425,4.4425,4.4425,4.4425,4.4425,4.4425,4.4425,4.4425,4.4425,4.4425,4.4425,4.4425,4.4425,4.4102,4.361,4.3497,4.2823,4.1741,4.1587,4.1179,4.0477,3.9999,3.9676,3.9409,3.8454,3.792,3.7835,3.7316,3.6978,3.6978,3.6978,3.6978,3.6993,3.6585,3.5767,3.4516,3.3397,3.2269,3.121,3.0835,3.0381,2.9579,2.9508,2.9388,2.9148,2.9196,2.9184,2.9039,2.8727,2.8655,2.9003,2.8691,2.8607,2.8679,2.8631,2.851,2.851,2.8041,2.7693,2.744,2.6971,2.6731,2.6659,2.6526,2.6526,2.65,2.6296,2.6079,2.6164,2.5804,2.5481,2.5685,2.5528,2.5324,2.5312,2.5312,2.5312,2.5312,2.5312,2.5312,2.5312,2.5312,2.5312,2.5312,2.5312,2.5312,2.5312,2.5312,2.5312,2.5312,2.5348,2.542,2.5648,2.6021,2.643,2.6863,2.7284,2.7705,4.0626,4.1185,4.1455,4.1402,4.1272,4.2126,4.2001,4.1445,4.2293,4.2792,4.2999,4.3899,4.4425,4.4425,4.4425,4.4425,4.4425,4.4425,4.4425,4.4425,4.4425,4.4425,4.4425,4.4425,4.4425,4.4425,4.4425,4.4425,4.4425,4.4411,4.4214,4.3891,4.3835,4.3357,4.2374,4.2064,4.1657,4.1039,4.0449,4.0112,3.9929,3.9128,3.8496,3.8243,3.7878,3.747,3.7077,3.7189,3.7217,3.6978,3.6585,3.5878,3.4774,3.4109,3.3169,3.198,3.0942,3.0052,2.9518,2.9153,2.8883,2.8643,2.8823,2.8871,2.8582,2.851,2.851,2.851,2.851,2.851,2.8522,2.851,2.851,2.851,2.8234,2.7933,2.7717,2.7248,2.7079,2.7091,2.7031,2.6959,2.6824,2.6608,2.6438,2.6464,2.6322,2.5876,2.613,2.5817,2.5612,2.542,2.5312,2.5312,2.5312,2.5312,2.5312,2.5312,2.5312,2.5312,2.5312,2.5312,2.5312,2.5312,2.5312,2.5312,2.5312,2.5312,2.5384,2.5709,2.6069,2.6406,2.6815,2.7344,2.7741,4.1139,4.1188,4.1631,4.1513,4.1123,4.1591,4.1513,4.1272,4.2208,4.2695,4.2999,4.3912,4.4425,4.4425,4.4425,4.4425,4.4425,4.4425,4.4425,4.4425,4.4425,4.4425,4.4425,4.4425,4.4425,4.4425,4.4425,4.4425,4.4425,4.4425,4.4425,4.434,4.4298,4.4074,4.3329,4.2851,4.2191,4.1531,4.0955,4.0645,4.0603,4.0027,3.9465,3.8917,3.8678,3.8116,3.7358,3.7456,3.7456,3.7007,3.6796,3.6473,3.6009,3.5854,3.4613,3.3009,3.1228,3.0343,2.9677,2.8992,2.8558,2.8534,2.8546,2.851,2.8522,2.851,2.851,2.851,2.851,2.851,2.851,2.851,2.851,2.851,2.8438,2.8234,2.7825,2.738,2.7416,2.7596,2.7332,2.7043,2.7064,2.6743,2.6478,2.6576,2.6882,2.6639,2.6529,2.6226,2.5877,2.5648,2.5456,2.5312,2.5312,2.5312,2.5312,2.5312,2.5312,2.5312,2.5312,2.5312,2.5312,2.5312,2.5312,2.5312,2.5312,2.5312,2.5516,2.5913,2.6202,2.6418,2.6839,2.7404,2.7536,4.0236,4.0654,4.0781,4.0514,4.0121,4.0603,4.0527,4.0134,4.1206,4.2208,4.2902,4.3912,4.4425,4.4425,4.4425,4.4425,4.4425,4.4425,4.4425,4.4425,4.4425,4.4425,4.4425,4.4425,4.4425,4.4425,4.4425,4.4425,4.4425,4.4425,4.4425,4.4425,4.4411,4.4102,4.3497,4.2893,4.2261,4.1615,4.1011,4.0702,4.0603,4.0126,3.9732,3.9507,3.8707,3.8102,3.7625,3.7358,3.6936,3.6374,3.6304,3.6023,3.5531,3.5222,3.4641,3.3704,3.2269,3.0971,3.0284,2.9206,2.8558,2.851,2.8558,2.851,2.851,2.851,2.851,2.851,2.851,2.851,2.851,2.851,2.851,2.851,2.851,2.8438,2.8294,2.821,2.8174,2.8258,2.8126,2.8029,2.7735,2.7222,2.6859,2.7375,2.7188,2.689,2.6803,2.649,2.6093,2.5865,2.5661,2.5444,2.5312,2.5312,2.5312,2.5312,2.5312,2.5312,2.5312,2.5312,2.5312,2.5312,2.5312,2.5312,2.5312,2.5312,2.5697,2.6033,2.6069,2.6214,2.6923,2.7488,2.7308,3.971,3.9746,3.9968,3.9611,3.9149,4.0227,4.0325,4.0006,4.1206,4.2195,4.2999,4.3899,4.4425,4.4425,4.4425,4.4425,4.4425,4.4425,4.4425,4.4425,4.4425,4.4425,4.4425,4.4425,4.4425,4.4425,4.4425,4.4425,4.4425,4.4425,4.4425,4.4425,4.4425,4.4088,4.3497,4.2893,4.2261,4.1615,4.1025,4.0702,4.0659,4.0364,4.0027,3.9831,3.9212,3.8917,3.8341,3.747,3.681,3.6529,3.6431,3.6178,3.5705,3.5634,3.5269,3.4582,3.3382,3.2411,3.1391,3.001,2.9076,2.8895,2.8835,2.8715,2.857,2.851,2.851,2.851,2.851,2.851,2.851,2.851,2.851,2.851,2.851,2.851,2.851,2.8486,2.851,2.851,2.8498,2.8402,2.8234,2.7555,2.7669,2.7795,2.7356,2.72,2.714,2.6707,2.637,2.6178,2.6105,2.5973,2.5733,2.5648,2.5408,2.5372,2.5312,2.5312,2.5312,2.5312,2.5312,2.5312,2.5312,2.5312,2.5312,2.5384,2.5636,2.5853,2.5853,2.6346,2.7152,2.7596,2.7368,3.9296,3.8852,3.9333,3.9032,3.8627,4.0264,4.0698,4.0529,4.19,4.2792,4.3204,4.4007,4.4411,4.4425,4.4425,4.4425,4.4425,4.4425,4.4425,4.4425,4.4425,4.4425,4.4425,4.4425,4.4425,4.4425,4.4425,4.4425,4.4425,4.4425,4.4425,4.4369,4.4355,4.4031,4.3413,4.2795,4.2191,4.1615,4.1011,4.073,4.0702,4.0603,4.0378,4.0055,3.9929,3.9381,3.8482,3.7583,3.695,3.6964,3.6978,3.6669,3.631,3.6736,3.6434,3.5437,3.4521,3.3555,3.2671,3.1135,2.9916,2.9542,2.9376,2.9196,2.8895,2.8763,2.8679,2.8691,2.8558,2.8522,2.851,2.851,2.851,2.851,2.851,2.851,2.851,2.851,2.851,2.851,2.851,2.8258,2.8108,2.8041,2.8268,2.8035,2.7669,2.7524,2.7464,2.7248,2.6887,2.6586,2.6574,2.661,2.6322,2.6033,2.5697,2.5456,2.5348,2.5312,2.5312,2.5312,2.5312,2.5312,2.5312,2.5312,2.5312,2.5444,2.5636,2.5997,2.6226,2.6899,2.7609,2.7789,2.7729,3.9296,3.8827,3.8936,3.9111,3.9357,4.0195,4.1132,4.211,4.2598,4.33,4.4007,4.4303,4.4411,4.4425,4.4425,4.4425,4.4425,4.4425,4.4425,4.4425,4.4425,4.4425,4.4425,4.4425,4.4425,4.4425,4.4425,4.4425,4.4425,4.4425,4.4425,4.4383,4.4045,4.3638,4.3371,4.2472,4.1797,4.1516,4.0997,4.073,4.0702,4.0702,4.0617,4.0393,3.9746,3.8678,3.7653,3.7133,3.6993,3.6978,3.6964,3.688,3.6782,3.6887,3.6789,3.6291,3.5018,3.3966,3.3195,3.1965,3.0762,3.0049,2.9917,2.9869,2.9761,2.9292,2.9148,2.9051,2.8775,2.8534,2.851,2.851,2.851,2.851,2.851,2.851,2.851,2.851,2.851,2.851,2.851,2.8474,2.8318,2.7969,2.8096,2.8174,2.8065,2.7837,2.7729,2.7633,2.738,2.7019,2.6959,2.6935,2.6502,2.6202,2.5877,2.5733,2.5648,2.5636,2.5624,2.5516,2.5588,2.548,2.5312,2.5312,2.5312,2.5384,2.5528,2.6057,2.6622,2.72,2.7693,2.7909,2.8126,3.9296,3.8827,3.8827,3.9108,3.9735,4.0694,4.183,4.2763,4.341,4.3899,4.4317,4.4425,4.4425,4.4425,4.4425,4.4425,4.4425,4.4425,4.4425,4.4425,4.4425,4.4425,4.4425,4.4425,4.4425,4.4425,4.4425,4.4425,4.4425,4.4425,4.4425,4.4411,4.4045,4.3596,4.3132,4.2345,4.1769,4.1221,4.0898,4.0702,4.0702,4.0702,4.0702,4.0477,3.955,3.8482,3.8004,3.7274,3.7049,3.6978,3.6978,3.6978,3.6978,3.6978,3.6978,3.671,3.5579,3.4433,3.3692,3.2848,3.1692,3.0555,3.0458,3.029,3.005,2.9605,2.934,2.9196,2.8871,2.851,2.851,2.851,2.851,2.851,2.851,2.851,2.851,2.851,2.851,2.851,2.851,2.851,2.8366,2.8138,2.8162,2.8366,2.8005,2.7789,2.7753,2.7681,2.7693,2.7476,2.738,2.7164,2.6683,2.6322,2.6033,2.6033,2.6166,2.6226,2.631,2.6142,2.5961,2.5709,2.542,2.5324,2.5324,2.5384,2.5648,2.6346,2.6935,2.7404,2.7825,2.8174,2.8342,3.9455,3.8899,3.9114,3.9538,4.0223,4.1513,4.2452,4.3149,4.4007,4.4317,4.4425,4.4425,4.4425,4.4425,4.4425,4.4425,4.4425,4.4425,4.4425,4.4425,4.4425,4.4425,4.4425,4.4425,4.4425,4.4425,4.4425,4.4425,4.4425,4.4425,4.4425,4.4369,4.4102,4.3483,4.2753,4.2275,4.1671,4.087,4.0758,4.0702,4.0702,4.0702,4.0659,4.0266,3.9479,3.8749,3.8271,3.7583,3.6978,3.6978,3.6978,3.6978,3.6978,3.6978,3.6978,3.6978,3.5891,3.4955,3.4162,3.3352,3.2363,3.1184,3.0999,3.0807,3.0398,3.0013,2.9761,2.9448,2.916,2.8655,2.8534,2.851,2.851,2.851,2.851,2.851,2.851,2.851,2.851,2.851,2.851,2.851,2.851,2.8402,2.8462,2.845,2.8077,2.7825,2.7813,2.7813,2.7861,2.7873,2.7765,2.7596,2.7152,2.6671,2.6358,2.6394,2.6598,2.6719,2.6827,2.661,2.6298,2.5793,2.5528,2.5468,2.5372,2.5336,2.5793,2.661,2.7079,2.7368,2.7849,2.8414,2.851,4.0358,3.954,4.0466,4.1398,4.2222,4.2609,4.3218,4.4021,4.4303,4.4411,4.4425,4.4425,4.4425,4.4425,4.4425,4.4425,4.4425,4.4425,4.4425,4.4425,4.4425,4.4425,4.4425,4.4425,4.4425,4.4425,4.4425,4.4425,4.4425,4.4425,4.4425,4.42,4.3554,4.2879,4.243,4.1657,4.1207,4.0786,4.0702,4.0702,4.0702,4.0688,4.0505,4.0097,3.9367,3.8749,3.8116,3.7456,3.6978,3.6978,3.6978,3.6978,3.6978,3.6978,3.6978,3.6808,3.6201,3.5373,3.4472,3.3551,3.2624,3.1804,3.148,3.1492,3.124,3.0855,3.0422,3.017,2.9641,2.9015,2.8558,2.8582,2.8522,2.8522,2.851,2.8534,2.8546,2.8582,2.8643,2.8727,2.8655,2.851,2.851,2.851,2.851,2.851,2.8342,2.8198,2.8198,2.8174,2.8162,2.8162,2.8126,2.7933,2.7681,2.7188,2.6815,2.6851,2.6983,2.7067,2.7103,2.6947,2.6622,2.6322,2.5949,2.5745,2.5612,2.5444,2.5805,2.6572,2.6908,2.7284,2.7921,2.851,2.851,4.0108,3.9634,4.0211,4.1306,4.2598,4.2792,4.3396,4.4317,4.4425,4.4425,4.4425,4.4425,4.4425,4.4425,4.4425,4.4425,4.4425,4.4425,4.4425,4.4425,4.4425,4.4425,4.4425,4.4425,4.4425,4.4425,4.4425,4.4425,4.4425,4.4425,4.4425,4.4298,4.375,4.3245,4.2626,4.2078,4.1278,4.0926,4.0702,4.0702,4.0702,4.0702,4.0477,4.0196,3.9648,3.9044,3.8426,3.7793,3.7302,3.7063,3.6978,3.6978,3.6978,3.6978,3.6978,3.6886,3.648,3.591,3.5061,3.4152,3.331,3.2488,3.2001,3.1749,3.1541,3.1168,3.0795,3.0277,3.017,2.9366,2.8605,2.879,2.8787,2.857,2.8546,2.8679,2.8835,2.8907,2.9027,2.91,2.8847,2.8679,2.851,2.851,2.851,2.851,2.851,2.851,2.851,2.845,2.8366,2.827,2.8162,2.7789,2.7717,2.7584,2.732,2.7368,2.744,2.7524,2.7609,2.7572,2.7392,2.7128,2.6719,2.619,2.5937,2.5829,2.62,2.6545,2.7064,2.7609,2.815,2.851,2.851,3.9701,3.9597,3.9802,4.0906,4.239,4.2682,4.3286,4.4007,4.4303,4.4425,4.4425,4.4425,4.4425,4.4425,4.4425,4.4425,4.4425,4.4425,4.4425,4.4425,4.4425,4.4425,4.4425,4.4425,4.4425,4.4425,4.4425,4.4425,4.4425,4.4425,4.4425,4.4312,4.4312,4.3708,4.2725,4.2233,4.1657,4.1081,4.0702,4.0702,4.0702,4.0702,4.0702,4.0645,4.0097,3.9507,3.9044,3.8229,3.7681,3.7302,3.7091,3.6978,3.6978,3.6978,3.69,3.673,3.6573,3.6056,3.5318,3.4152,3.3066,3.2488,3.2001,3.1837,3.1601,3.1288,3.0831,3.0073,3.0061,3.0001,2.9307,2.9306,2.9268,2.9051,2.8943,2.8979,2.9316,2.9496,2.9605,2.9484,2.9112,2.8814,2.8706,2.851,2.851,2.851,2.851,2.851,2.851,2.851,2.8438,2.8318,2.8089,2.7596,2.756,2.7897,2.7801,2.7885,2.7993,2.8114,2.8234,2.833,2.8065,2.7717,2.7212,2.6707,2.6442,2.6334,2.6719,2.7115,2.7476,2.7873,2.8318,2.8498,2.851,4.007,3.9712,4.0617,4.1219,4.1604,4.2404,4.2889,4.3191,4.4073,4.4411,4.4411,4.4397,4.4369,4.4425,4.4425,4.4425,4.4425,4.4425,4.4425,4.4425,4.4425,4.4425,4.4425,4.4425,4.4425,4.4425,4.4425,4.4425,4.4425,4.4425,4.4383,4.4298,4.3905,4.3259,4.264,4.2331,4.1376,4.0856,4.073,4.0702,4.0702,4.0702,4.0702,4.0547,4.014,3.9732,3.9423,3.8566,3.7821,3.7723,3.7231,3.7007,3.6978,3.6978,3.6573,3.591,3.5156,3.4555,3.4306,3.3322,3.2488,3.2239,3.1837,3.1749,3.1625,3.1577,3.124,3.0575,3.0649,3.0664,3.0254,3.0121,3.0049,2.9845,2.9689,2.9773,2.9977,3.0013,3.0122,3.011,2.9809,2.9236,2.8809,2.8638,2.851,2.851,2.851,2.851,2.851,2.851,2.8354,2.8198,2.8234,2.7813,2.7633,2.7945,2.8126,2.8282,2.8378,2.851,2.851,2.851,2.851,2.8126,2.7645,2.722,2.6992,2.6992,2.7336,2.7629,2.7842,2.8077,2.8402,2.8498,2.8619,3.9315,3.9609,4.0109,4.1019,4.2097,4.2598,4.3204,4.364,4.3831,4.4088,4.4284,4.4017,4.4059,4.4355,4.4425,4.4425,4.4425,4.4425,4.4425,4.4425,4.4425,4.4425,4.4425,4.4425,4.4425,4.4425,4.4411,4.4425,4.4411,4.4355,4.4284,4.3975,4.3919,4.3526,4.2725,4.2654,4.2078,4.1432,4.0926,4.0716,4.0702,4.0702,4.0702,4.0674,4.0083,3.9831,3.9465,3.8594,3.7948,3.7793,3.7316,3.6744,3.6401,3.6163,3.583,3.4979,3.4069,3.3888,3.4056,3.298,3.2488,3.2251,3.2001,3.1749,3.1661,3.1649,3.1601,3.1312,3.13,3.1305,3.1077,3.0797,3.058,3.0387,3.0375,3.041,3.0482,3.053,3.0579,3.0555,3.047,2.9834,2.932,2.9068,2.8823,2.851,2.851,2.851,2.851,2.851,2.8294,2.7993,2.8102,2.8126,2.8029,2.8114,2.8282,2.8414,2.8414,2.851,2.851,2.851,2.851,2.851,2.8198,2.7831,2.7538,2.7519,2.7686,2.7878,2.8108,2.8306,2.8582,2.8883,2.8967,3.8489,3.9196,3.9208,4.0287,4.1985,4.2293,4.2711,4.3324,4.351,4.3658,4.3724,4.3692,4.4031,4.4326,4.4425,4.4425,4.4425,4.4425,4.4425,4.4425,4.4425,4.4425,4.4425,4.4425,4.4425,4.4383,4.4158,4.4242,4.4284,4.4088,4.375,4.3694,4.368,4.3385,4.2893,4.2584,4.2191,4.1292,4.0884,4.0716,4.0702,4.0702,4.0589,4.0378,4.0055,3.9704,3.9423,3.8763,3.8201,3.8074,3.7611,3.6972,3.6291,3.5952,3.5169,3.4223,3.3395,3.3152,3.3237,3.2821,3.2747,3.25,3.2251,3.1661,3.1661,3.1661,3.1661,3.1589,3.1601,3.1668,3.1598,3.1305,3.1086,3.0881,3.0748,3.0905,3.0951,3.0987,3.106,3.1096,3.0915,3.0482,2.9978,2.9713,2.9244,2.8667,2.851,2.851,2.851,2.851,2.8378,2.8114,2.8186,2.833,2.8294,2.8306,2.8474,2.851,2.851,2.851,2.851,2.851,2.851,2.851,2.851,2.839,2.8011,2.7915,2.7933,2.8114,2.8306,2.851,2.8775,2.9124,2.9034,3.808,3.808,3.8056,3.8871,4.0007,4.0919,4.1104,4.1183,4.2716,4.2805,4.2436,4.3482,4.4037,4.434,4.4298,4.4312,4.4369,4.4411,4.4369,4.4369,4.4411,4.4369,4.4312,4.4191,4.4191,4.4065,4.3408,4.3478,4.3775,4.2675,4.3208,4.4102,4.3252,4.2837,4.2237,4.1764,4.1313,4.0646,4.034,4.0343,4.043,4.046,4.0292,3.9957,3.9816,3.9535,3.9002,3.8639,3.8459,3.8417,3.7585,3.6821,3.5844,3.5425,3.4498,3.3395,3.298,3.2661,3.2326,3.2164,3.1913,3.1837,3.1749,3.1661,3.1661,3.1661,3.1661,3.1661,3.1661,3.1737,3.1689,3.1677,3.1508,3.1412,3.1255,3.1327,3.136,3.142,3.1492,3.1601,3.1312,3.0771,3.029,2.9881,2.9256,2.8655,2.851,2.851,2.851,2.851,2.851,2.8414,2.8426,2.8474,2.8474,2.851,2.851,2.851,2.851,2.851,2.851,2.851,2.851,2.851,2.851,2.851,2.8546,2.8383,2.8347,2.845,2.8607,2.8814,2.8903,2.9059,2.8689,3.7404,3.723,3.7218,3.8202,3.9584,3.9639,3.9986,4.035,4.0481,4.0719,4.0985,4.1914,4.2902,4.3658,4.3849,4.3849,4.3905,4.427,4.4116,4.4088,4.4144,4.4144,4.3924,4.318,4.2761,4.2365,4.1663,4.1207,4.1207,4.0773,4.0842,4.1245,4.2007,4.1807,4.1252,4.0423,3.9866,3.9546,3.9146,3.897,3.9073,3.9502,3.9656,3.9463,3.9704,3.9957,3.9733,3.8269,3.7965,3.7607,3.6565,3.5635,3.4821,3.4366,3.359,3.2488,3.2326,3.2077,3.1825,3.1661,3.1661,3.1661,3.1749,3.1661,3.1661,3.1661,3.1661,3.1661,3.1661,3.1661,3.1749,3.1737,3.1701,3.1661,3.1661,3.1661,3.1661,3.1661,3.1661,3.1649,3.1336,3.0891,3.0422,2.9965,2.9292,2.8655,2.8582,2.851,2.851,2.851,2.851,2.851,2.851,2.851,2.851,2.851,2.851,2.851,2.851,2.851,2.851,2.851,2.851,2.851,2.8443,2.8307,2.8402,2.8674,2.8733,2.8629,2.8831,2.9141,2.913,2.9078,2.8442,3.6952,3.684,3.6917,3.7826,3.9234,3.8906,3.9025,3.944,3.9468,3.9742,4.0652,4.1333,4.2117,4.3041,4.3216,4.2914,4.3012,4.3342,4.3208,4.3087,4.3009,4.3157,4.2564,4.1893,4.1073,4.0455,3.9853,3.9462,3.9928,3.8843,3.9109,3.9814,4.0383,4.0164,3.9863,3.8899,3.8476,3.8266,3.8057,3.7652,3.7768,3.8126,3.8182,3.7994,3.8024,3.8282,3.8143,3.7152,3.678,3.6531,3.5792,3.436,3.3623,3.302,3.2513,3.2001,3.1661,3.1661,3.1661,3.1661,3.1661,3.1661,3.1661,3.1661,3.1661,3.1661,3.1661,3.1661,3.1661,3.1661,3.1661,3.1661,3.1661,3.1661,3.1661,3.1661,3.1661,3.1661,3.1661,3.1649,3.1348,3.1132,3.0639,3.017,2.946,2.8835,2.8558,2.851,2.851,2.851,2.851,2.851,2.851,2.851,2.851,2.8558,2.8582,2.851,2.851,2.851,2.851,2.8387,2.8375,2.8431,2.8295,2.8089,2.8209,2.8562,2.868,2.874,2.9058,2.9394,2.8819,2.866,2.8011,3.6804,3.6816,3.7081,3.7779,3.8617,3.8812,3.8324,3.805,3.9203,4.0322,4.0941,4.1688,4.2084,4.239,4.2196,4.1714,4.1452,4.2034,4.2021,4.1428,4.1379,4.123,4.0856,4.0214,3.9541,3.9501,3.8687,3.8381,3.9081,3.7942,3.7919,3.8091,3.8251,3.8319,3.8607,3.8083,3.7756,3.773,3.7573,3.717,3.6871,3.6908,3.6551,3.6323,3.63,3.6605,3.6531,3.596,3.5698,3.5827,3.5175,3.4101,3.3483,3.2996,3.2438,3.1837,3.1749,3.1661,3.1661,3.1661,3.1661,3.1661,3.1661,3.1661,3.1661,3.1661,3.1661,3.1661,3.1661,3.1661,3.1661,3.1661,3.1661,3.1661,3.1661,3.1661,3.1661,3.1661,3.1661,3.1661,3.1613,3.1444,3.0927,3.0362,2.9653,2.9076,2.8667,2.8546,2.8631,2.8787,2.8895,2.8811,2.8835,2.8823,2.8835,2.8703,2.8655,2.857,2.8482,2.8383,2.8139,2.7754,2.786,2.8217,2.8046,2.763,2.7923,2.8384,2.8434,2.8471,2.9369,2.9515,2.8842,2.8177,2.7554,3.6284,3.6271,3.6368,3.6743,3.7152,3.7227,3.7045,3.6846,3.7071,3.7792,3.8738,3.8688,3.9559,4.0323,4.0326,3.9959,3.9721,4.0134,4.0147,3.9615,3.9867,3.972,3.932,3.8584,3.7789,3.728,3.6646,3.6397,3.6232,3.6148,3.604,3.5994,3.6268,3.6326,3.6603,3.6332,3.5639,3.5305,3.5207,3.5201,3.5084,3.5297,3.5392,3.5264,3.546,3.5654,3.5632,3.4865,3.459,3.471,3.3893,3.3009,3.2646,3.2276,3.2101,3.1749,3.1661,3.1661,3.1661,3.1661,3.1661,3.1661,3.1661,3.1661,3.1661,3.1661,3.1661,3.1661,3.1661,3.1661,3.1661,3.1661,3.1661,3.1661,3.1661,3.1661,3.1661,3.1661,3.1661,3.1661,3.1637,3.1408,3.0999,3.0867,3.0266,2.9929,2.9617,2.9208,2.916,2.9436,2.9605,2.94,2.9328,2.9268,2.9208,2.9009,2.8466,2.8022,2.8022,2.8092,2.7708,2.7251,2.7301,2.7578,2.7339,2.7181,2.7336,2.7546,2.791,2.825,2.8638,2.8782,2.8174,2.7569,2.7108,3.5766,3.5742,3.5824,3.6018,3.6395,3.6376,3.6525,3.645,3.6044,3.6521,3.7533,3.7176,3.7714,3.8832,3.8701,3.8039,3.7997,3.8658,3.8506,3.801,3.8187,3.8097,3.7659,3.693,3.6326,3.5633,3.5295,3.4957,3.5114,3.4847,3.4932,3.5042,3.4799,3.5161,3.5341,3.4992,3.4667,3.4437,3.4375,3.4026,3.3849,3.3796,3.3987,3.4093,3.4274,3.4574,3.4535,3.4021,3.3271,3.3083,3.2572,3.1749,3.1661,3.1661,3.1661,3.1661,3.1661,3.1661,3.1661,3.1661,3.1661,3.1661,3.1661,3.1661,3.1661,3.1661,3.1661,3.1661,3.1661,3.1661,3.1661,3.1661,3.1661,3.1661,3.1661,3.1661,3.1661,3.1661,3.1661,3.1661,3.1637,3.1372,3.1216,3.1192,3.0987,3.0807,3.0627,3.017,2.9737,2.9953,3.0122,2.9929,2.9797,2.9749,2.9559,2.9236,2.8549,2.7612,2.7617,2.7698,2.7172,2.6606,2.6834,2.6907,2.6732,2.6487,2.6456,2.6576,2.7146,2.7181,2.6981,2.7074,2.7094,2.6884,2.6396,3.5183,3.5171,3.5424,3.5805,3.6232,3.6295,3.6534,3.6934,3.6734,3.6977,3.7717,3.7533,3.7598,3.7651,3.7664,3.7134,3.6597,3.7304,3.7011,3.6609,3.6584,3.6445,3.616,3.5477,3.5272,3.4957,3.4823,3.4823,3.4823,3.4823,3.4823,3.4679,3.4619,3.4486,3.4378,3.4354,3.4198,3.3837,3.3657,3.3332,3.2991,3.2653,3.2665,3.2621,3.258,3.2797,3.2822,3.2486,3.2437,3.24,3.2176,3.1837,3.1661,3.1661,3.1661,3.1661,3.1661,3.1661,3.1661,3.1661,3.1661,3.1661,3.1661,3.1661,3.1661,3.1661,3.1661,3.1661,3.1661,3.1661,3.1661,3.1661,3.1661,3.1661,3.1661,3.1661,3.1661,3.1661,3.1661,3.1661,3.1661,3.1553,3.1529,3.1504,3.1384,3.1336,3.1132,3.0915,3.0543,3.0386,3.0482,3.0314,3.0218,3.0121,2.9891,2.9437,2.8305,2.7316,2.7184,2.7176,2.6587,2.6136,2.6365,2.636,2.6131,2.6032,2.6052,2.6253,2.6591,2.6466,2.6187,2.6284,2.6542,2.6134,2.5826,3.4691,3.4886,3.4964,3.5052,3.524,3.5617,3.6006,3.625,3.6098,3.6358,3.6989,3.6048,3.6225,3.6602,3.5953,3.5571,3.5475,3.5488,3.55,3.5271,3.5257,3.5259,3.5066,3.4921,3.4787,3.4799,3.4787,3.4775,3.4823,3.4811,3.4306,3.3849,3.4138,3.3909,3.3729,3.3669,3.338,3.3164,3.3068,3.2815,3.2454,3.2142,3.2034,3.2022,3.1781,3.2038,3.1913,3.1913,3.2001,3.1913,3.1825,3.1661,3.1661,3.1661,3.1661,3.1661,3.1661,3.1661,3.1661,3.1661,3.1661,3.1661,3.1661,3.1661,3.1661,3.1661,3.1661,3.1661,3.1661,3.1661,3.1661,3.1661,3.1661,3.1661,3.1661,3.1661,3.1661,3.1661,3.1661,3.1661,3.1661,3.1661,3.1661,3.1649,3.1553,3.1625,3.1589,3.1384,3.124,3.1036,3.0706,3.0551,3.0673,3.0611,3.0039,2.9581,2.8199,2.7036,2.6918,2.666,2.5951,2.5704,2.5849,2.5909,2.5842,2.5869,2.5873,2.6061,2.6187,2.6004,2.5917,2.5917,2.5984,2.5673,2.5527,3.4118,3.413,3.4207,3.4332,3.4595,3.4907,3.5269,3.5488,3.5709,3.5891,3.568,3.5306,3.5295,3.5679,3.5211,3.5017,3.5199,3.4739,3.4655,3.4714,3.4354,3.4269,3.4198,3.4282,3.4294,3.4414,3.4571,3.4583,3.4691,3.4511,3.4054,3.3464,3.3657,3.338,3.314,3.2971,3.2683,3.2491,3.2358,3.2334,3.2118,3.1865,3.1985,3.2034,3.1769,3.1709,3.1661,3.1661,3.1661,3.1661,3.1661,3.1661,3.1661,3.1661,3.1661,3.1661,3.1661,3.1661,3.1661,3.1661,3.1661,3.1661,3.1661,3.1661,3.1661,3.1661,3.1661,3.1661,3.1661,3.1661,3.1661,3.1661,3.1661,3.1661,3.1661,3.1661,3.1661,3.1661,3.1661,3.1661,3.1661,3.1661,3.1661,3.1661,3.1661,3.1661,3.1661,3.1601,3.1517,3.1444,3.0973,3.049,3.0861,3.1056,3.0256,2.9319,2.8091,2.6904,2.6412,2.5989,2.5369,2.5418,2.5767,2.5789,2.5741,2.5703,2.5781,2.5703,2.582,2.5713,2.5693,2.581,2.579,2.5741,2.5625,3.357,3.3125,3.3303,3.3729,3.4214,3.4276,3.447,3.4648,3.5413,3.5297,3.4682,3.4846,3.5064,3.5037,3.4763,3.4883,3.4844,3.4411,3.4265,3.436,3.3881,3.363,3.3594,3.3356,3.3813,3.397,3.4126,3.4342,3.4511,3.4318,3.3885,3.3272,3.3212,3.2947,3.2515,3.2442,3.2226,3.1985,3.207,3.2154,3.1853,3.1685,3.1661,3.1697,3.1673,3.1661,3.1661,3.1661,3.1661,3.1661,3.1661,3.1661,3.1661,3.1661,3.1661,3.1661,3.1661,3.1661,3.1661,3.1661,3.1661,3.1661,3.1661,3.1661,3.1661,3.1661,3.1661,3.1661,3.1661,3.1661,3.1661,3.1661,3.1661,3.1661,3.1661,3.1661,3.1661,3.1661,3.1661,3.1661,3.1661,3.1661,3.1661,3.1661,3.1661,3.1661,3.1661,3.1661,3.1383,3.1383,3.1158,3.045,3.0664,3.0699,2.9556,2.8631,2.7782,2.6931,2.624,2.5846,2.542,2.5527,2.5713,2.5732,2.5732,2.5732,2.5723,2.5732,2.5684,2.5576,2.5586,2.5674,2.5674,2.5615,2.5557,3.3021,3.2597,3.2672,3.2834,3.317,3.3556,3.3594,3.3583,3.4547,3.4765,3.4403,3.433,3.436,3.4433,3.434,3.4446,3.4335,3.4157,3.4127,3.3986,3.3582,3.332,3.3385,3.3184,3.3489,3.3897,3.4078,3.409,3.4138,3.397,3.3561,3.2791,3.2671,3.2418,3.1997,3.1949,3.1841,3.1773,3.1781,3.1901,3.1721,3.1661,3.1661,3.1661,3.1661,3.1661,3.1661,3.1661,3.1661,3.1661,3.1661,3.1661,3.1661,3.1661,3.1661,3.1661,3.1661,3.1661,3.1661,3.1661,3.1661,3.1661,3.1661,3.1661,3.1661,3.1661,3.1661,3.1661,3.1661,3.1661,3.1661,3.1661,3.1661,3.1661,3.1661,3.1661,3.1661,3.1661,3.1661,3.1661,3.1661,3.1661,3.1661,3.1661,3.1661,3.1661,3.1661,3.1484,3.0734,3.0543,3.0913,3.0406,3.0328,2.9977,2.8773,2.8006,2.7338,2.6696,2.5945,2.5722,2.5557,2.5635,2.5732,2.5732,2.5732,2.5732,2.5732,2.5732,2.5664,2.5547,2.5547,2.5664,2.5566,2.5478,2.5391,3.255,3.2125,3.2213,3.2376,3.2611,3.2959,3.3084,3.3219,3.3734,3.3896,3.3831,3.4012,3.4168,3.4077,3.4089,3.4119,3.4082,3.3831,3.3757,3.3605,3.3342,3.2967,3.2925,3.2829,3.2943,3.3248,3.3837,3.3982,3.3789,3.3609,3.32,3.2358,3.2142,3.201,3.1661,3.1661,3.1661,3.1673,3.1661,3.1661,3.1661,3.1661,3.1661,3.1661,3.1661,3.1661,3.1661,3.1661,3.1661,3.1661,3.1661,3.1661,3.1661,3.1661,3.1661,3.1661,3.1661,3.1661,3.1661,3.1661,3.1661,3.1661,3.1661,3.1661,3.1661,3.1661,3.1661,3.1661,3.1661,3.1661,3.1661,3.1661,3.1661,3.1661,3.1661,3.1661,3.1661,3.1661,3.1661,3.1661,3.1661,3.1661,3.1661,3.1661,3.1572,3.0913,3.1015,3.0633,2.9977,2.9521,2.9886,2.9977,2.9521,2.8691,2.7305,2.702,2.6979,2.6264,2.5732,2.5693,2.5644,2.5684,2.5732,2.5732,2.5732,2.5732,2.5732,2.5732,2.5703,2.5615,2.5625,2.5674,2.5498,2.5283,2.51,3.2125,3.1749,3.1937,3.2125,3.2388,3.2562,3.2822,3.3093,3.3106,3.3119,3.3269,3.3819,3.409,3.4049,3.3971,3.4242,3.4182,3.3605,3.338,3.3244,3.2859,3.2695,3.2445,3.2171,3.2507,3.2955,3.3561,3.3561,3.3392,3.3308,3.2935,3.1973,3.1709,3.1661,3.1661,3.1661,3.1661,3.1661,3.1661,3.1661,3.1661,3.1661,3.1661,3.1661,3.1661,3.1661,3.1661,3.1661,3.1661,3.1661,3.1661,3.1661,3.1661,3.1661,3.1661,3.1661,3.1661,3.1661,3.1661,3.1661,3.1661,3.1661,3.1661,3.1661,3.1661,3.1661,3.1661,3.1661,3.1661,3.1661,3.1661,3.1661,3.1661,3.1661,3.1661,3.1661,3.1661,3.1661,3.1661,3.1661,3.1661,3.1661,3.1661,3.1661,3.1205,3.0554,2.9897,2.9338,2.8866,2.8495,2.8495,2.8412,2.8038,2.703,2.6187,2.6091,2.6456,2.6187,2.5732,2.5732,2.5732,2.5732,2.5732,2.5732,2.5732,2.5732,2.5732,2.5732,2.5703,2.5537,2.5488,2.5381,2.5068,2.4902,2.4837,3.2213,3.195,3.1849,3.2025,3.2388,3.2487,3.2736,3.3081,3.3081,3.3081,3.3144,3.3194,3.3295,3.332,3.3308,3.347,3.3546,3.3196,3.3208,3.3082,3.2798,3.2661,3.2463,3.2313,3.2467,3.292,3.3413,3.3585,3.32,3.3164,3.2971,3.2274,3.1757,3.1673,3.1661,3.1661,3.1661,3.1661,3.1661,3.1661,3.1661,3.1661,3.1661,3.1661,3.1661,3.1661,3.1661,3.1661,3.1661,3.1661,3.1661,3.1661,3.1661,3.1661,3.1661,3.1661,3.1661,3.1661,3.1661,3.1661,3.1661,3.1661,3.1661,3.1661,3.1661,3.1661,3.1661,3.1661,3.1661,3.1661,3.1661,3.1661,3.1661,3.1661,3.1661,3.1661,3.1661,3.1661,3.1661,3.1661,3.1661,3.1661,3.1661,3.1496,3.1139,3.0487,2.9909,2.9165,2.7757,2.7474,2.7295,2.702,2.6648,2.6829,2.6733,2.6004,2.6004,2.5723,2.5732,2.5732,2.5732,2.5732,2.5732,2.5732,2.5732,2.5732,2.5732,2.5674,2.5342,2.5166,2.5156,2.5029,2.4707,2.4375,2.4152]}]]